<?xml version="1.0" encoding="UTF-8" standalone="no" ?>
<gpx xmlns="http://www.topografix.com/GPX/1/1" xmlns:xsi="http://www.w3.org/2001/XMLSchema-instance" xsi:schemaLocation="http://www.topografix.com/GPX/1/1 http://www.topografix.com/GPX/1/1/gpx.xsd" version="1.1" creator="VisuGPX - https://www.visugpx.com">
  <metadata>
    <name>ferriere les etivaux</name>
    <desc><![CDATA[Reconnaissance d\'ancienne trace pas mal de pietonnade ]]></desc>
  </metadata>
  <trk>
    <name><![CDATA[2015-06-13 13:04]]></name>
    <desc><![CDATA[<h1>OruxMaps</h1><br /><hr align="center" width="480" style="height: 2px; width: 517px"/><h2>Nom: 2015-06-13 13:04</h2><br /><p>Temps de départ: 06/13/2015 13:33</p><p>Temps d'arrivée: 06/13/2015 17:54</p><p>Distance: 39,4km (04:20)</p><p>Temps déplacement: 02:28</p><p>Vitesse moyenne: 9,1km/h</p><p>Vitesse moyenne: 15,9km/h</p><p>Vitess Max.: 53,4km/h</p><p>Altitude minimale: 350m</p><p>Altitude maximale: 1102m</p><p>Vitesse d'élévation: 505,1m/h</p><p>Vitesse de descente: -785,8m/h</p><p>Gain Altitude: 1237m</p><p>Perte Altitude: -1032m</p><p>Temps d'élévation: 02:26</p><p>Temps de descente: 01:18</p><hr align="center" width="480" style="height: 2px; width: 517px"/>]]></desc>
    <trkseg>
      <trkpt lat="46.0639" lon="3.56644">
        <ele>350.55</ele>
        <time>2015-06-13T11:33:57Z</time>
      </trkpt>
      <trkpt lat="46.06367" lon="3.56642">
        <ele>353.87</ele>
        <time>2015-06-13T11:34:02Z</time>
      </trkpt>
      <trkpt lat="46.06343" lon="3.56644">
        <ele>371.63</ele>
        <time>2015-06-13T11:34:07Z</time>
      </trkpt>
      <trkpt lat="46.06321" lon="3.56652">
        <ele>375.69</ele>
        <time>2015-06-13T11:34:10Z</time>
      </trkpt>
      <trkpt lat="46.06295" lon="3.56654">
        <ele>384.07</ele>
        <time>2015-06-13T11:34:13Z</time>
      </trkpt>
      <trkpt lat="46.06273" lon="3.56659">
        <ele>387.87</ele>
        <time>2015-06-13T11:34:16Z</time>
      </trkpt>
      <trkpt lat="46.0625" lon="3.56667">
        <ele>390.64</ele>
        <time>2015-06-13T11:34:20Z</time>
      </trkpt>
      <trkpt lat="46.06228" lon="3.5668">
        <ele>390.62</ele>
        <time>2015-06-13T11:34:24Z</time>
      </trkpt>
      <trkpt lat="46.06207" lon="3.56693">
        <ele>388.87</ele>
        <time>2015-06-13T11:34:28Z</time>
      </trkpt>
      <trkpt lat="46.06185" lon="3.56702">
        <ele>389.47</ele>
        <time>2015-06-13T11:34:32Z</time>
      </trkpt>
      <trkpt lat="46.06167" lon="3.56708">
        <ele>390.42</ele>
        <time>2015-06-13T11:34:35Z</time>
      </trkpt>
      <trkpt lat="46.06148" lon="3.56714">
        <ele>391.04</ele>
        <time>2015-06-13T11:34:38Z</time>
      </trkpt>
      <trkpt lat="46.06128" lon="3.56719">
        <ele>391.49</ele>
        <time>2015-06-13T11:34:41Z</time>
      </trkpt>
      <trkpt lat="46.06108" lon="3.56727">
        <ele>391.54</ele>
        <time>2015-06-13T11:34:44Z</time>
      </trkpt>
      <trkpt lat="46.06088" lon="3.56736">
        <ele>392.3</ele>
        <time>2015-06-13T11:34:47Z</time>
      </trkpt>
      <trkpt lat="46.06064" lon="3.56751">
        <ele>390.02</ele>
        <time>2015-06-13T11:34:50Z</time>
      </trkpt>
      <trkpt lat="46.06042" lon="3.56766">
        <ele>385.92</ele>
        <time>2015-06-13T11:34:52Z</time>
      </trkpt>
      <trkpt lat="46.06017" lon="3.56783">
        <ele>379.64</ele>
        <time>2015-06-13T11:34:54Z</time>
      </trkpt>
      <trkpt lat="46.05998" lon="3.56802">
        <ele>373.58</ele>
        <time>2015-06-13T11:34:56Z</time>
      </trkpt>
      <trkpt lat="46.05981" lon="3.56817">
        <ele>369.31</ele>
        <time>2015-06-13T11:34:58Z</time>
      </trkpt>
      <trkpt lat="46.05964" lon="3.56835">
        <ele>365.99</ele>
        <time>2015-06-13T11:35:00Z</time>
      </trkpt>
      <trkpt lat="46.05949" lon="3.5685">
        <ele>364.91</ele>
        <time>2015-06-13T11:35:02Z</time>
      </trkpt>
      <trkpt lat="46.05931" lon="3.56875">
        <ele>363.72</ele>
        <time>2015-06-13T11:35:05Z</time>
      </trkpt>
      <trkpt lat="46.05914" lon="3.56897">
        <ele>364.45</ele>
        <time>2015-06-13T11:35:08Z</time>
      </trkpt>
      <trkpt lat="46.05899" lon="3.56914">
        <ele>364.54</ele>
        <time>2015-06-13T11:35:11Z</time>
      </trkpt>
      <trkpt lat="46.05882" lon="3.56933">
        <ele>364.55</ele>
        <time>2015-06-13T11:35:15Z</time>
      </trkpt>
      <trkpt lat="46.05869" lon="3.56961">
        <ele>365.05</ele>
        <time>2015-06-13T11:35:19Z</time>
      </trkpt>
      <trkpt lat="46.05857" lon="3.56991">
        <ele>365.52</ele>
        <time>2015-06-13T11:35:23Z</time>
      </trkpt>
      <trkpt lat="46.05849" lon="3.57023">
        <ele>366.43</ele>
        <time>2015-06-13T11:35:27Z</time>
      </trkpt>
      <trkpt lat="46.05843" lon="3.57049">
        <ele>366.54</ele>
        <time>2015-06-13T11:35:30Z</time>
      </trkpt>
      <trkpt lat="46.05839" lon="3.57075">
        <ele>367.3</ele>
        <time>2015-06-13T11:35:33Z</time>
      </trkpt>
      <trkpt lat="46.05836" lon="3.57101">
        <ele>367.52</ele>
        <time>2015-06-13T11:35:36Z</time>
      </trkpt>
      <trkpt lat="46.05832" lon="3.57126">
        <ele>366.67</ele>
        <time>2015-06-13T11:35:39Z</time>
      </trkpt>
      <trkpt lat="46.05831" lon="3.57161">
        <ele>366.56</ele>
        <time>2015-06-13T11:35:43Z</time>
      </trkpt>
      <trkpt lat="46.05831" lon="3.57191">
        <ele>366.55</ele>
        <time>2015-06-13T11:35:47Z</time>
      </trkpt>
      <trkpt lat="46.05827" lon="3.57219">
        <ele>365.68</ele>
        <time>2015-06-13T11:35:52Z</time>
      </trkpt>
      <trkpt lat="46.05819" lon="3.57247">
        <ele>365.55</ele>
        <time>2015-06-13T11:35:58Z</time>
      </trkpt>
      <trkpt lat="46.05806" lon="3.57266">
        <ele>365.55</ele>
        <time>2015-06-13T11:36:03Z</time>
      </trkpt>
      <trkpt lat="46.0579" lon="3.57281">
        <ele>366.52</ele>
        <time>2015-06-13T11:36:09Z</time>
      </trkpt>
      <trkpt lat="46.05771" lon="3.57285">
        <ele>367.3</ele>
        <time>2015-06-13T11:36:16Z</time>
      </trkpt>
      <trkpt lat="46.05753" lon="3.57292">
        <ele>367.55</ele>
        <time>2015-06-13T11:36:23Z</time>
      </trkpt>
      <trkpt lat="46.05735" lon="3.57285">
        <ele>368.49</ele>
        <time>2015-06-13T11:36:30Z</time>
      </trkpt>
      <trkpt lat="46.05713" lon="3.57281">
        <ele>368.55</ele>
        <time>2015-06-13T11:36:37Z</time>
      </trkpt>
      <trkpt lat="46.05695" lon="3.57281">
        <ele>369.54</ele>
        <time>2015-06-13T11:36:43Z</time>
      </trkpt>
      <trkpt lat="46.05675" lon="3.57287">
        <ele>370.49</ele>
        <time>2015-06-13T11:36:50Z</time>
      </trkpt>
      <trkpt lat="46.05658" lon="3.57296">
        <ele>371.49</ele>
        <time>2015-06-13T11:36:57Z</time>
      </trkpt>
      <trkpt lat="46.0564" lon="3.57311">
        <ele>372.54</ele>
        <time>2015-06-13T11:37:05Z</time>
      </trkpt>
      <trkpt lat="46.05628" lon="3.5733">
        <ele>373.52</ele>
        <time>2015-06-13T11:37:11Z</time>
      </trkpt>
      <trkpt lat="46.05613" lon="3.5735">
        <ele>374.3</ele>
        <time>2015-06-13T11:37:18Z</time>
      </trkpt>
      <trkpt lat="46.05598" lon="3.57369">
        <ele>374.55</ele>
        <time>2015-06-13T11:37:25Z</time>
      </trkpt>
      <trkpt lat="46.05581" lon="3.57386">
        <ele>374.55</ele>
        <time>2015-06-13T11:37:33Z</time>
      </trkpt>
      <trkpt lat="46.05566" lon="3.57401">
        <ele>375.43</ele>
        <time>2015-06-13T11:37:41Z</time>
      </trkpt>
      <trkpt lat="46.0555" lon="3.57414">
        <ele>375.55</ele>
        <time>2015-06-13T11:37:49Z</time>
      </trkpt>
      <trkpt lat="46.05534" lon="3.57427">
        <ele>376.49</ele>
        <time>2015-06-13T11:37:56Z</time>
      </trkpt>
      <trkpt lat="46.05516" lon="3.57438">
        <ele>377.52</ele>
        <time>2015-06-13T11:38:04Z</time>
      </trkpt>
      <trkpt lat="46.05495" lon="3.57448">
        <ele>378.52</ele>
        <time>2015-06-13T11:38:12Z</time>
      </trkpt>
      <trkpt lat="46.05475" lon="3.57463">
        <ele>380.02</ele>
        <time>2015-06-13T11:38:20Z</time>
      </trkpt>
      <trkpt lat="46.05456" lon="3.57478">
        <ele>382.02</ele>
        <time>2015-06-13T11:38:28Z</time>
      </trkpt>
      <trkpt lat="46.05437" lon="3.57491">
        <ele>383.55</ele>
        <time>2015-06-13T11:38:36Z</time>
      </trkpt>
      <trkpt lat="46.05414" lon="3.57502">
        <ele>385.97</ele>
        <time>2015-06-13T11:38:42Z</time>
      </trkpt>
      <trkpt lat="46.05394" lon="3.57511">
        <ele>388.23</ele>
        <time>2015-06-13T11:38:48Z</time>
      </trkpt>
      <trkpt lat="46.05376" lon="3.57526">
        <ele>389.98</ele>
        <time>2015-06-13T11:38:53Z</time>
      </trkpt>
      <trkpt lat="46.0536" lon="3.57549">
        <ele>391.27</ele>
        <time>2015-06-13T11:38:57Z</time>
      </trkpt>
      <trkpt lat="46.0535" lon="3.57573">
        <ele>392.41</ele>
        <time>2015-06-13T11:39:01Z</time>
      </trkpt>
      <trkpt lat="46.05341" lon="3.57599">
        <ele>394.27</ele>
        <time>2015-06-13T11:39:06Z</time>
      </trkpt>
      <trkpt lat="46.05331" lon="3.57624">
        <ele>396.27</ele>
        <time>2015-06-13T11:39:12Z</time>
      </trkpt>
      <trkpt lat="46.05317" lon="3.57644">
        <ele>398.91</ele>
        <time>2015-06-13T11:39:18Z</time>
      </trkpt>
      <trkpt lat="46.05298" lon="3.57654">
        <ele>402.71</ele>
        <time>2015-06-13T11:39:24Z</time>
      </trkpt>
      <trkpt lat="46.05278" lon="3.57661">
        <ele>406.13</ele>
        <time>2015-06-13T11:39:30Z</time>
      </trkpt>
      <trkpt lat="46.05258" lon="3.57672">
        <ele>409.22</ele>
        <time>2015-06-13T11:39:36Z</time>
      </trkpt>
      <trkpt lat="46.05241" lon="3.57684">
        <ele>411.97</ele>
        <time>2015-06-13T11:39:42Z</time>
      </trkpt>
      <trkpt lat="46.05224" lon="3.57699">
        <ele>414.26</ele>
        <time>2015-06-13T11:39:48Z</time>
      </trkpt>
      <trkpt lat="46.05208" lon="3.57714">
        <ele>416.27</ele>
        <time>2015-06-13T11:39:54Z</time>
      </trkpt>
      <trkpt lat="46.05194" lon="3.57732">
        <ele>417.99</ele>
        <time>2015-06-13T11:40:00Z</time>
      </trkpt>
      <trkpt lat="46.05181" lon="3.57751">
        <ele>419.42</ele>
        <time>2015-06-13T11:40:06Z</time>
      </trkpt>
      <trkpt lat="46.05168" lon="3.5777">
        <ele>420.52</ele>
        <time>2015-06-13T11:40:13Z</time>
      </trkpt>
      <trkpt lat="46.0516" lon="3.57794">
        <ele>422.29</ele>
        <time>2015-06-13T11:40:19Z</time>
      </trkpt>
      <trkpt lat="46.05152" lon="3.57822">
        <ele>423.49</ele>
        <time>2015-06-13T11:40:26Z</time>
      </trkpt>
      <trkpt lat="46.05145" lon="3.5785">
        <ele>424.54</ele>
        <time>2015-06-13T11:40:33Z</time>
      </trkpt>
      <trkpt lat="46.0514" lon="3.57875">
        <ele>425.54</ele>
        <time>2015-06-13T11:40:39Z</time>
      </trkpt>
      <trkpt lat="46.05135" lon="3.57901">
        <ele>426.54</ele>
        <time>2015-06-13T11:40:45Z</time>
      </trkpt>
      <trkpt lat="46.05128" lon="3.57925">
        <ele>427.49</ele>
        <time>2015-06-13T11:40:51Z</time>
      </trkpt>
      <trkpt lat="46.05116" lon="3.5795">
        <ele>428.49</ele>
        <time>2015-06-13T11:40:58Z</time>
      </trkpt>
      <trkpt lat="46.05105" lon="3.57972">
        <ele>429.3</ele>
        <time>2015-06-13T11:41:04Z</time>
      </trkpt>
      <trkpt lat="46.05095" lon="3.57996">
        <ele>429.55</ele>
        <time>2015-06-13T11:41:10Z</time>
      </trkpt>
      <trkpt lat="46.05084" lon="3.58021">
        <ele>430.54</ele>
        <time>2015-06-13T11:41:17Z</time>
      </trkpt>
      <trkpt lat="46.05076" lon="3.58045">
        <ele>431.3</ele>
        <time>2015-06-13T11:41:22Z</time>
      </trkpt>
      <trkpt lat="46.05067" lon="3.58068">
        <ele>431.55</ele>
        <time>2015-06-13T11:41:27Z</time>
      </trkpt>
      <trkpt lat="46.05057" lon="3.58094">
        <ele>432.49</ele>
        <time>2015-06-13T11:41:33Z</time>
      </trkpt>
      <trkpt lat="46.05044" lon="3.58116">
        <ele>433.3</ele>
        <time>2015-06-13T11:41:39Z</time>
      </trkpt>
      <trkpt lat="46.05029" lon="3.58133">
        <ele>434.3</ele>
        <time>2015-06-13T11:41:45Z</time>
      </trkpt>
      <trkpt lat="46.05015" lon="3.5815">
        <ele>435.3</ele>
        <time>2015-06-13T11:41:51Z</time>
      </trkpt>
      <trkpt lat="46.05" lon="3.58169">
        <ele>436.49</ele>
        <time>2015-06-13T11:41:58Z</time>
      </trkpt>
      <trkpt lat="46.04984" lon="3.58186">
        <ele>438.04</ele>
        <time>2015-06-13T11:42:05Z</time>
      </trkpt>
      <trkpt lat="46.04968" lon="3.58199">
        <ele>439.48</ele>
        <time>2015-06-13T11:42:11Z</time>
      </trkpt>
      <trkpt lat="46.04951" lon="3.5821">
        <ele>441.41</ele>
        <time>2015-06-13T11:42:17Z</time>
      </trkpt>
      <trkpt lat="46.04932" lon="3.58221">
        <ele>444.22</ele>
        <time>2015-06-13T11:42:23Z</time>
      </trkpt>
      <trkpt lat="46.04916" lon="3.58236">
        <ele>446.27</ele>
        <time>2015-06-13T11:42:29Z</time>
      </trkpt>
      <trkpt lat="46.049" lon="3.58249">
        <ele>448.41</ele>
        <time>2015-06-13T11:42:35Z</time>
      </trkpt>
      <trkpt lat="46.04885" lon="3.58264">
        <ele>450.41</ele>
        <time>2015-06-13T11:42:41Z</time>
      </trkpt>
      <trkpt lat="46.0487" lon="3.58279">
        <ele>452.29</ele>
        <time>2015-06-13T11:42:47Z</time>
      </trkpt>
      <trkpt lat="46.04855" lon="3.58294">
        <ele>454.02</ele>
        <time>2015-06-13T11:42:53Z</time>
      </trkpt>
      <trkpt lat="46.0484" lon="3.58311">
        <ele>455.29</ele>
        <time>2015-06-13T11:42:59Z</time>
      </trkpt>
      <trkpt lat="46.04826" lon="3.58337">
        <ele>456.29</ele>
        <time>2015-06-13T11:43:04Z</time>
      </trkpt>
      <trkpt lat="46.04814" lon="3.58358">
        <ele>457.77</ele>
        <time>2015-06-13T11:43:07Z</time>
      </trkpt>
      <trkpt lat="46.048" lon="3.5838">
        <ele>458.46</ele>
        <time>2015-06-13T11:43:10Z</time>
      </trkpt>
      <trkpt lat="46.04785" lon="3.58397">
        <ele>459.42</ele>
        <time>2015-06-13T11:43:13Z</time>
      </trkpt>
      <trkpt lat="46.04767" lon="3.58416">
        <ele>460.29</ele>
        <time>2015-06-13T11:43:17Z</time>
      </trkpt>
      <trkpt lat="46.04749" lon="3.58433">
        <ele>460.54</ele>
        <time>2015-06-13T11:43:21Z</time>
      </trkpt>
      <trkpt lat="46.04732" lon="3.58448">
        <ele>461.49</ele>
        <time>2015-06-13T11:43:25Z</time>
      </trkpt>
      <trkpt lat="46.04713" lon="3.58463">
        <ele>462.05</ele>
        <time>2015-06-13T11:43:29Z</time>
      </trkpt>
      <trkpt lat="46.04694" lon="3.58474">
        <ele>462.52</ele>
        <time>2015-06-13T11:43:33Z</time>
      </trkpt>
      <trkpt lat="46.04676" lon="3.58487">
        <ele>462.55</ele>
        <time>2015-06-13T11:43:37Z</time>
      </trkpt>
      <trkpt lat="46.04656" lon="3.58502">
        <ele>463.52</ele>
        <time>2015-06-13T11:43:42Z</time>
      </trkpt>
      <trkpt lat="46.04639" lon="3.58515">
        <ele>464.3</ele>
        <time>2015-06-13T11:43:46Z</time>
      </trkpt>
      <trkpt lat="46.04624" lon="3.58534">
        <ele>465.04</ele>
        <time>2015-06-13T11:43:50Z</time>
      </trkpt>
      <trkpt lat="46.04608" lon="3.58556">
        <ele>465.52</ele>
        <time>2015-06-13T11:43:54Z</time>
      </trkpt>
      <trkpt lat="46.04594" lon="3.58573">
        <ele>466.42</ele>
        <time>2015-06-13T11:43:57Z</time>
      </trkpt>
      <trkpt lat="46.04577" lon="3.5859">
        <ele>466.54</ele>
        <time>2015-06-13T11:44:01Z</time>
      </trkpt>
      <trkpt lat="46.04558" lon="3.58603">
        <ele>466.55</ele>
        <time>2015-06-13T11:44:05Z</time>
      </trkpt>
      <trkpt lat="46.0453" lon="3.58613">
        <ele>465.68</ele>
        <time>2015-06-13T11:44:08Z</time>
      </trkpt>
      <trkpt lat="46.0451" lon="3.5862">
        <ele>464.33</ele>
        <time>2015-06-13T11:44:10Z</time>
      </trkpt>
      <trkpt lat="46.04494" lon="3.58633">
        <ele>463.75</ele>
        <time>2015-06-13T11:44:12Z</time>
      </trkpt>
      <trkpt lat="46.04475" lon="3.58648">
        <ele>464.08</ele>
        <time>2015-06-13T11:44:15Z</time>
      </trkpt>
      <trkpt lat="46.0446" lon="3.58667">
        <ele>465.24</ele>
        <time>2015-06-13T11:44:18Z</time>
      </trkpt>
      <trkpt lat="46.04444" lon="3.58695">
        <ele>467.72</ele>
        <time>2015-06-13T11:44:22Z</time>
      </trkpt>
      <trkpt lat="46.04432" lon="3.58725">
        <ele>470.69</ele>
        <time>2015-06-13T11:44:26Z</time>
      </trkpt>
      <trkpt lat="46.04425" lon="3.58749">
        <ele>472.19</ele>
        <time>2015-06-13T11:44:29Z</time>
      </trkpt>
      <trkpt lat="46.04416" lon="3.58777">
        <ele>473.97</ele>
        <time>2015-06-13T11:44:33Z</time>
      </trkpt>
      <trkpt lat="46.04407" lon="3.58802">
        <ele>474.52</ele>
        <time>2015-06-13T11:44:37Z</time>
      </trkpt>
      <trkpt lat="46.04398" lon="3.58828">
        <ele>474.55</ele>
        <time>2015-06-13T11:44:41Z</time>
      </trkpt>
      <trkpt lat="46.04387" lon="3.58856">
        <ele>475.3</ele>
        <time>2015-06-13T11:44:45Z</time>
      </trkpt>
      <trkpt lat="46.04377" lon="3.58884">
        <ele>476.41</ele>
        <time>2015-06-13T11:44:49Z</time>
      </trkpt>
      <trkpt lat="46.04367" lon="3.58914">
        <ele>476.73</ele>
        <time>2015-06-13T11:44:53Z</time>
      </trkpt>
      <trkpt lat="46.04357" lon="3.5894">
        <ele>476.56</ele>
        <time>2015-06-13T11:44:57Z</time>
      </trkpt>
      <trkpt lat="46.04349" lon="3.58968">
        <ele>475.68</ele>
        <time>2015-06-13T11:45:01Z</time>
      </trkpt>
      <trkpt lat="46.04344" lon="3.58995">
        <ele>475.56</ele>
        <time>2015-06-13T11:45:05Z</time>
      </trkpt>
      <trkpt lat="46.04343" lon="3.59028">
        <ele>475.55</ele>
        <time>2015-06-13T11:45:10Z</time>
      </trkpt>
      <trkpt lat="46.04341" lon="3.59053">
        <ele>474.68</ele>
        <time>2015-06-13T11:45:14Z</time>
      </trkpt>
      <trkpt lat="46.04338" lon="3.59081">
        <ele>474.56</ele>
        <time>2015-06-13T11:45:18Z</time>
      </trkpt>
      <trkpt lat="46.04329" lon="3.59107">
        <ele>473.62</ele>
        <time>2015-06-13T11:45:22Z</time>
      </trkpt>
      <trkpt lat="46.04315" lon="3.59128">
        <ele>472.81</ele>
        <time>2015-06-13T11:45:26Z</time>
      </trkpt>
      <trkpt lat="46.04298" lon="3.59148">
        <ele>472.57</ele>
        <time>2015-06-13T11:45:30Z</time>
      </trkpt>
      <trkpt lat="46.04278" lon="3.59156">
        <ele>473.99</ele>
        <time>2015-06-13T11:45:34Z</time>
      </trkpt>
      <trkpt lat="46.04259" lon="3.59163">
        <ele>475.02</ele>
        <time>2015-06-13T11:45:38Z</time>
      </trkpt>
      <trkpt lat="46.04239" lon="3.59176">
        <ele>477.64</ele>
        <time>2015-06-13T11:45:42Z</time>
      </trkpt>
      <trkpt lat="46.04225" lon="3.59193">
        <ele>480.68</ele>
        <time>2015-06-13T11:45:46Z</time>
      </trkpt>
      <trkpt lat="46.04213" lon="3.59216">
        <ele>482.87</ele>
        <time>2015-06-13T11:45:50Z</time>
      </trkpt>
      <trkpt lat="46.04204" lon="3.5924">
        <ele>483.51</ele>
        <time>2015-06-13T11:45:54Z</time>
      </trkpt>
      <trkpt lat="46.0419" lon="3.59264">
        <ele>484.49</ele>
        <time>2015-06-13T11:45:59Z</time>
      </trkpt>
      <trkpt lat="46.04178" lon="3.59285">
        <ele>485.05</ele>
        <time>2015-06-13T11:46:03Z</time>
      </trkpt>
      <trkpt lat="46.04167" lon="3.59307">
        <ele>485.52</ele>
        <time>2015-06-13T11:46:07Z</time>
      </trkpt>
      <trkpt lat="46.04158" lon="3.59332">
        <ele>485.55</ele>
        <time>2015-06-13T11:46:11Z</time>
      </trkpt>
      <trkpt lat="46.04156" lon="3.59365">
        <ele>486.05</ele>
        <time>2015-06-13T11:46:15Z</time>
      </trkpt>
      <trkpt lat="46.04159" lon="3.5939">
        <ele>486.49</ele>
        <time>2015-06-13T11:46:18Z</time>
      </trkpt>
      <trkpt lat="46.04168" lon="3.59416">
        <ele>486.55</ele>
        <time>2015-06-13T11:46:22Z</time>
      </trkpt>
      <trkpt lat="46.0418" lon="3.59442">
        <ele>485.68</ele>
        <time>2015-06-13T11:46:26Z</time>
      </trkpt>
      <trkpt lat="46.04195" lon="3.59465">
        <ele>485.56</ele>
        <time>2015-06-13T11:46:30Z</time>
      </trkpt>
      <trkpt lat="46.04211" lon="3.59487">
        <ele>484.62</ele>
        <time>2015-06-13T11:46:34Z</time>
      </trkpt>
      <trkpt lat="46.04227" lon="3.59502">
        <ele>483.62</ele>
        <time>2015-06-13T11:46:38Z</time>
      </trkpt>
      <trkpt lat="46.04245" lon="3.59515">
        <ele>483.56</ele>
        <time>2015-06-13T11:46:42Z</time>
      </trkpt>
      <trkpt lat="46.04262" lon="3.5953">
        <ele>483.05</ele>
        <time>2015-06-13T11:46:46Z</time>
      </trkpt>
      <trkpt lat="46.0428" lon="3.5954">
        <ele>482.08</ele>
        <time>2015-06-13T11:46:50Z</time>
      </trkpt>
      <trkpt lat="46.04299" lon="3.59555">
        <ele>480.84</ele>
        <time>2015-06-13T11:46:54Z</time>
      </trkpt>
      <trkpt lat="46.04318" lon="3.59571">
        <ele>480.57</ele>
        <time>2015-06-13T11:46:58Z</time>
      </trkpt>
      <trkpt lat="46.04331" lon="3.59592">
        <ele>480.55</ele>
        <time>2015-06-13T11:47:02Z</time>
      </trkpt>
      <trkpt lat="46.04335" lon="3.59622">
        <ele>481.05</ele>
        <time>2015-06-13T11:47:06Z</time>
      </trkpt>
      <trkpt lat="46.0433" lon="3.5965">
        <ele>481.52</ele>
        <time>2015-06-13T11:47:10Z</time>
      </trkpt>
      <trkpt lat="46.04323" lon="3.59678">
        <ele>482.3</ele>
        <time>2015-06-13T11:47:14Z</time>
      </trkpt>
      <trkpt lat="46.04313" lon="3.59701">
        <ele>482.54</ele>
        <time>2015-06-13T11:47:18Z</time>
      </trkpt>
      <trkpt lat="46.04305" lon="3.59725">
        <ele>483.3</ele>
        <time>2015-06-13T11:47:22Z</time>
      </trkpt>
      <trkpt lat="46.04296" lon="3.59749">
        <ele>483.54</ele>
        <time>2015-06-13T11:47:26Z</time>
      </trkpt>
      <trkpt lat="46.04288" lon="3.59774">
        <ele>484.3</ele>
        <time>2015-06-13T11:47:30Z</time>
      </trkpt>
      <trkpt lat="46.04278" lon="3.59798">
        <ele>484.54</ele>
        <time>2015-06-13T11:47:34Z</time>
      </trkpt>
      <trkpt lat="46.04268" lon="3.59824">
        <ele>484.55</ele>
        <time>2015-06-13T11:47:38Z</time>
      </trkpt>
      <trkpt lat="46.04259" lon="3.59849">
        <ele>485.05</ele>
        <time>2015-06-13T11:47:42Z</time>
      </trkpt>
      <trkpt lat="46.0425" lon="3.59875">
        <ele>485.52</ele>
        <time>2015-06-13T11:47:46Z</time>
      </trkpt>
      <trkpt lat="46.04241" lon="3.59901">
        <ele>485.55</ele>
        <time>2015-06-13T11:47:50Z</time>
      </trkpt>
      <trkpt lat="46.04232" lon="3.59927">
        <ele>486.49</ele>
        <time>2015-06-13T11:47:54Z</time>
      </trkpt>
      <trkpt lat="46.04223" lon="3.5995">
        <ele>486.55</ele>
        <time>2015-06-13T11:47:58Z</time>
      </trkpt>
      <trkpt lat="46.04216" lon="3.5998">
        <ele>487.52</ele>
        <time>2015-06-13T11:48:03Z</time>
      </trkpt>
      <trkpt lat="46.04212" lon="3.60008">
        <ele>487.55</ele>
        <time>2015-06-13T11:48:07Z</time>
      </trkpt>
      <trkpt lat="46.0421" lon="3.60034">
        <ele>487.55</ele>
        <time>2015-06-13T11:48:11Z</time>
      </trkpt>
      <trkpt lat="46.04208" lon="3.60062">
        <ele>487.55</ele>
        <time>2015-06-13T11:48:15Z</time>
      </trkpt>
      <trkpt lat="46.04206" lon="3.60088">
        <ele>487.55</ele>
        <time>2015-06-13T11:48:19Z</time>
      </trkpt>
      <trkpt lat="46.04204" lon="3.60113">
        <ele>487.55</ele>
        <time>2015-06-13T11:48:23Z</time>
      </trkpt>
      <trkpt lat="46.042" lon="3.60139">
        <ele>487.55</ele>
        <time>2015-06-13T11:48:27Z</time>
      </trkpt>
      <trkpt lat="46.04195" lon="3.60165">
        <ele>488.3</ele>
        <time>2015-06-13T11:48:31Z</time>
      </trkpt>
      <trkpt lat="46.04188" lon="3.60195">
        <ele>488.55</ele>
        <time>2015-06-13T11:48:36Z</time>
      </trkpt>
      <trkpt lat="46.04179" lon="3.60223">
        <ele>488.55</ele>
        <time>2015-06-13T11:48:41Z</time>
      </trkpt>
      <trkpt lat="46.04167" lon="3.60249">
        <ele>488.55</ele>
        <time>2015-06-13T11:48:46Z</time>
      </trkpt>
      <trkpt lat="46.04157" lon="3.6027">
        <ele>489.49</ele>
        <time>2015-06-13T11:48:50Z</time>
      </trkpt>
      <trkpt lat="46.04141" lon="3.60291">
        <ele>490.43</ele>
        <time>2015-06-13T11:48:55Z</time>
      </trkpt>
      <trkpt lat="46.04124" lon="3.60304">
        <ele>492.23</ele>
        <time>2015-06-13T11:48:59Z</time>
      </trkpt>
      <trkpt lat="46.04106" lon="3.60315">
        <ele>494.26</ele>
        <time>2015-06-13T11:49:04Z</time>
      </trkpt>
      <trkpt lat="46.04087" lon="3.60322">
        <ele>495.04</ele>
        <time>2015-06-13T11:49:09Z</time>
      </trkpt>
      <trkpt lat="46.04069" lon="3.60317">
        <ele>496.02</ele>
        <time>2015-06-13T11:49:13Z</time>
      </trkpt>
      <trkpt lat="46.0405" lon="3.60307">
        <ele>497.89</ele>
        <time>2015-06-13T11:49:17Z</time>
      </trkpt>
      <trkpt lat="46.04032" lon="3.60296">
        <ele>499.95</ele>
        <time>2015-06-13T11:49:21Z</time>
      </trkpt>
      <trkpt lat="46.04014" lon="3.60289">
        <ele>501.39</ele>
        <time>2015-06-13T11:49:25Z</time>
      </trkpt>
      <trkpt lat="46.03995" lon="3.60291">
        <ele>502.98</ele>
        <time>2015-06-13T11:49:29Z</time>
      </trkpt>
      <trkpt lat="46.03975" lon="3.60302">
        <ele>504.27</ele>
        <time>2015-06-13T11:49:33Z</time>
      </trkpt>
      <trkpt lat="46.0396" lon="3.60322">
        <ele>505.97</ele>
        <time>2015-06-13T11:49:37Z</time>
      </trkpt>
      <trkpt lat="46.03954" lon="3.60352">
        <ele>507.89</ele>
        <time>2015-06-13T11:49:41Z</time>
      </trkpt>
      <trkpt lat="46.0395" lon="3.60377">
        <ele>509.39</ele>
        <time>2015-06-13T11:49:45Z</time>
      </trkpt>
      <trkpt lat="46.03944" lon="3.60405">
        <ele>509.54</ele>
        <time>2015-06-13T11:49:49Z</time>
      </trkpt>
      <trkpt lat="46.03935" lon="3.60433">
        <ele>508.68</ele>
        <time>2015-06-13T11:49:53Z</time>
      </trkpt>
      <trkpt lat="46.03921" lon="3.60452">
        <ele>508.56</ele>
        <time>2015-06-13T11:49:57Z</time>
      </trkpt>
      <trkpt lat="46.03903" lon="3.60467">
        <ele>507.62</ele>
        <time>2015-06-13T11:50:01Z</time>
      </trkpt>
      <trkpt lat="46.03883" lon="3.60482">
        <ele>506.68</ele>
        <time>2015-06-13T11:50:05Z</time>
      </trkpt>
      <trkpt lat="46.03866" lon="3.60493">
        <ele>506.57</ele>
        <time>2015-06-13T11:50:08Z</time>
      </trkpt>
      <trkpt lat="46.03847" lon="3.60504">
        <ele>507.06</ele>
        <time>2015-06-13T11:50:11Z</time>
      </trkpt>
      <trkpt lat="46.03829" lon="3.60517">
        <ele>506.62</ele>
        <time>2015-06-13T11:50:14Z</time>
      </trkpt>
      <trkpt lat="46.03814" lon="3.60532">
        <ele>507.31</ele>
        <time>2015-06-13T11:50:17Z</time>
      </trkpt>
      <trkpt lat="46.03801" lon="3.6056">
        <ele>508.04</ele>
        <time>2015-06-13T11:50:21Z</time>
      </trkpt>
      <trkpt lat="46.03797" lon="3.60585">
        <ele>508.99</ele>
        <time>2015-06-13T11:50:24Z</time>
      </trkpt>
      <trkpt lat="46.03795" lon="3.60613">
        <ele>509.98</ele>
        <time>2015-06-13T11:50:27Z</time>
      </trkpt>
      <trkpt lat="46.03792" lon="3.60641">
        <ele>510.98</ele>
        <time>2015-06-13T11:50:30Z</time>
      </trkpt>
      <trkpt lat="46.0379" lon="3.60667">
        <ele>511.48</ele>
        <time>2015-06-13T11:50:33Z</time>
      </trkpt>
      <trkpt lat="46.03788" lon="3.60693">
        <ele>511.54</ele>
        <time>2015-06-13T11:50:36Z</time>
      </trkpt>
      <trkpt lat="46.03781" lon="3.60725">
        <ele>510.61</ele>
        <time>2015-06-13T11:50:40Z</time>
      </trkpt>
      <trkpt lat="46.03768" lon="3.60746">
        <ele>510.56</ele>
        <time>2015-06-13T11:50:44Z</time>
      </trkpt>
      <trkpt lat="46.03749" lon="3.60764">
        <ele>511.93</ele>
        <time>2015-06-13T11:50:48Z</time>
      </trkpt>
      <trkpt lat="46.03733" lon="3.60776">
        <ele>513.22</ele>
        <time>2015-06-13T11:50:51Z</time>
      </trkpt>
      <trkpt lat="46.03715" lon="3.60791">
        <ele>514.39</ele>
        <time>2015-06-13T11:50:54Z</time>
      </trkpt>
      <trkpt lat="46.03697" lon="3.60806">
        <ele>515.41</ele>
        <time>2015-06-13T11:50:57Z</time>
      </trkpt>
      <trkpt lat="46.0368" lon="3.60821">
        <ele>516.28</ele>
        <time>2015-06-13T11:51:00Z</time>
      </trkpt>
      <trkpt lat="46.03663" lon="3.60837">
        <ele>516.52</ele>
        <time>2015-06-13T11:51:03Z</time>
      </trkpt>
      <trkpt lat="46.03647" lon="3.60849">
        <ele>516.55</ele>
        <time>2015-06-13T11:51:06Z</time>
      </trkpt>
      <trkpt lat="46.03631" lon="3.60864">
        <ele>516.55</ele>
        <time>2015-06-13T11:51:09Z</time>
      </trkpt>
      <trkpt lat="46.03615" lon="3.60877">
        <ele>516.55</ele>
        <time>2015-06-13T11:51:12Z</time>
      </trkpt>
      <trkpt lat="46.03599" lon="3.60894">
        <ele>517.43</ele>
        <time>2015-06-13T11:51:15Z</time>
      </trkpt>
      <trkpt lat="46.03579" lon="3.60914">
        <ele>516.8</ele>
        <time>2015-06-13T11:51:19Z</time>
      </trkpt>
      <trkpt lat="46.03561" lon="3.60931">
        <ele>516.07</ele>
        <time>2015-06-13T11:51:23Z</time>
      </trkpt>
      <trkpt lat="46.03543" lon="3.6095">
        <ele>515.59</ele>
        <time>2015-06-13T11:51:27Z</time>
      </trkpt>
      <trkpt lat="46.03526" lon="3.60963">
        <ele>515.56</ele>
        <time>2015-06-13T11:51:30Z</time>
      </trkpt>
      <trkpt lat="46.0351" lon="3.60976">
        <ele>515.55</ele>
        <time>2015-06-13T11:51:33Z</time>
      </trkpt>
      <trkpt lat="46.03488" lon="3.60989">
        <ele>515.55</ele>
        <time>2015-06-13T11:51:37Z</time>
      </trkpt>
      <trkpt lat="46.03468" lon="3.61">
        <ele>515.55</ele>
        <time>2015-06-13T11:51:41Z</time>
      </trkpt>
      <trkpt lat="46.03449" lon="3.61004">
        <ele>515.55</ele>
        <time>2015-06-13T11:51:45Z</time>
      </trkpt>
      <trkpt lat="46.03429" lon="3.6101">
        <ele>516.99</ele>
        <time>2015-06-13T11:51:49Z</time>
      </trkpt>
      <trkpt lat="46.03411" lon="3.61017">
        <ele>518.89</ele>
        <time>2015-06-13T11:51:53Z</time>
      </trkpt>
      <trkpt lat="46.03393" lon="3.61023">
        <ele>520.39</ele>
        <time>2015-06-13T11:51:57Z</time>
      </trkpt>
      <trkpt lat="46.03373" lon="3.6103">
        <ele>521.49</ele>
        <time>2015-06-13T11:52:02Z</time>
      </trkpt>
      <trkpt lat="46.03355" lon="3.6103">
        <ele>521.55</ele>
        <time>2015-06-13T11:52:07Z</time>
      </trkpt>
      <trkpt lat="46.03335" lon="3.61021">
        <ele>521.55</ele>
        <time>2015-06-13T11:52:13Z</time>
      </trkpt>
      <trkpt lat="46.03321" lon="3.61004">
        <ele>522.43</ele>
        <time>2015-06-13T11:52:18Z</time>
      </trkpt>
      <trkpt lat="46.03307" lon="3.60987">
        <ele>522.55</ele>
        <time>2015-06-13T11:52:23Z</time>
      </trkpt>
      <trkpt lat="46.03294" lon="3.60965">
        <ele>522.55</ele>
        <time>2015-06-13T11:52:28Z</time>
      </trkpt>
      <trkpt lat="46.03281" lon="3.60944">
        <ele>522.55</ele>
        <time>2015-06-13T11:52:33Z</time>
      </trkpt>
      <trkpt lat="46.03267" lon="3.6092">
        <ele>523.52</ele>
        <time>2015-06-13T11:52:39Z</time>
      </trkpt>
      <trkpt lat="46.03254" lon="3.60899">
        <ele>523.55</ele>
        <time>2015-06-13T11:52:45Z</time>
      </trkpt>
      <trkpt lat="46.0324" lon="3.60877">
        <ele>523.55</ele>
        <time>2015-06-13T11:52:52Z</time>
      </trkpt>
      <trkpt lat="46.03225" lon="3.6086">
        <ele>524.52</ele>
        <time>2015-06-13T11:52:58Z</time>
      </trkpt>
      <trkpt lat="46.03209" lon="3.60843">
        <ele>525.05</ele>
        <time>2015-06-13T11:53:04Z</time>
      </trkpt>
      <trkpt lat="46.0319" lon="3.60834">
        <ele>525.55</ele>
        <time>2015-06-13T11:53:10Z</time>
      </trkpt>
      <trkpt lat="46.03172" lon="3.60832">
        <ele>525.55</ele>
        <time>2015-06-13T11:53:15Z</time>
      </trkpt>
      <trkpt lat="46.03151" lon="3.60828">
        <ele>526.52</ele>
        <time>2015-06-13T11:53:21Z</time>
      </trkpt>
      <trkpt lat="46.03133" lon="3.60824">
        <ele>526.55</ele>
        <time>2015-06-13T11:53:26Z</time>
      </trkpt>
      <trkpt lat="46.03113" lon="3.60817">
        <ele>526.55</ele>
        <time>2015-06-13T11:53:32Z</time>
      </trkpt>
      <trkpt lat="46.03093" lon="3.60815">
        <ele>527.43</ele>
        <time>2015-06-13T11:53:36Z</time>
      </trkpt>
      <trkpt lat="46.03075" lon="3.60813">
        <ele>528.3</ele>
        <time>2015-06-13T11:53:40Z</time>
      </trkpt>
      <trkpt lat="46.03056" lon="3.60813">
        <ele>529.41</ele>
        <time>2015-06-13T11:53:44Z</time>
      </trkpt>
      <trkpt lat="46.03037" lon="3.60815">
        <ele>531.27</ele>
        <time>2015-06-13T11:53:49Z</time>
      </trkpt>
      <trkpt lat="46.03014" lon="3.60817">
        <ele>533.04</ele>
        <time>2015-06-13T11:53:58Z</time>
      </trkpt>
      <trkpt lat="46.02995" lon="3.60821">
        <ele>535.26</ele>
        <time>2015-06-13T11:54:04Z</time>
      </trkpt>
      <trkpt lat="46.02973" lon="3.60828">
        <ele>537.02</ele>
        <time>2015-06-13T11:54:10Z</time>
      </trkpt>
      <trkpt lat="46.02954" lon="3.60832">
        <ele>538.04</ele>
        <time>2015-06-13T11:54:16Z</time>
      </trkpt>
      <trkpt lat="46.02935" lon="3.60837">
        <ele>538.54</ele>
        <time>2015-06-13T11:54:21Z</time>
      </trkpt>
      <trkpt lat="46.02912" lon="3.60841">
        <ele>540.02</ele>
        <time>2015-06-13T11:54:26Z</time>
      </trkpt>
      <trkpt lat="46.02892" lon="3.60845">
        <ele>541.29</ele>
        <time>2015-06-13T11:54:31Z</time>
      </trkpt>
      <trkpt lat="46.02872" lon="3.60847">
        <ele>542.42</ele>
        <time>2015-06-13T11:54:36Z</time>
      </trkpt>
      <trkpt lat="46.02851" lon="3.60854">
        <ele>543.49</ele>
        <time>2015-06-13T11:54:42Z</time>
      </trkpt>
      <trkpt lat="46.02835" lon="3.60869">
        <ele>545.41</ele>
        <time>2015-06-13T11:54:48Z</time>
      </trkpt>
      <trkpt lat="46.02826" lon="3.60892">
        <ele>546.52</ele>
        <time>2015-06-13T11:54:54Z</time>
      </trkpt>
      <trkpt lat="46.02822" lon="3.6092">
        <ele>548.04</ele>
        <time>2015-06-13T11:55:00Z</time>
      </trkpt>
      <trkpt lat="46.02821" lon="3.60948">
        <ele>548.54</ele>
        <time>2015-06-13T11:55:06Z</time>
      </trkpt>
      <trkpt lat="46.02821" lon="3.60978">
        <ele>549.52</ele>
        <time>2015-06-13T11:55:12Z</time>
      </trkpt>
      <trkpt lat="46.02819" lon="3.61006">
        <ele>550.43</ele>
        <time>2015-06-13T11:55:18Z</time>
      </trkpt>
      <trkpt lat="46.02819" lon="3.61034">
        <ele>551.49</ele>
        <time>2015-06-13T11:55:24Z</time>
      </trkpt>
      <trkpt lat="46.02818" lon="3.61064">
        <ele>552.49</ele>
        <time>2015-06-13T11:55:30Z</time>
      </trkpt>
      <trkpt lat="46.02818" lon="3.61094">
        <ele>553.52</ele>
        <time>2015-06-13T11:55:36Z</time>
      </trkpt>
      <trkpt lat="46.02821" lon="3.61124">
        <ele>554.49</ele>
        <time>2015-06-13T11:55:41Z</time>
      </trkpt>
      <trkpt lat="46.02824" lon="3.6115">
        <ele>554.55</ele>
        <time>2015-06-13T11:55:45Z</time>
      </trkpt>
      <trkpt lat="46.02827" lon="3.61178">
        <ele>555.49</ele>
        <time>2015-06-13T11:55:50Z</time>
      </trkpt>
      <trkpt lat="46.02829" lon="3.61208">
        <ele>555.55</ele>
        <time>2015-06-13T11:55:55Z</time>
      </trkpt>
      <trkpt lat="46.02831" lon="3.61238">
        <ele>556.49</ele>
        <time>2015-06-13T11:56:01Z</time>
      </trkpt>
      <trkpt lat="46.02831" lon="3.61268">
        <ele>557.05</ele>
        <time>2015-06-13T11:56:07Z</time>
      </trkpt>
      <trkpt lat="46.02828" lon="3.61294">
        <ele>557.54</ele>
        <time>2015-06-13T11:56:12Z</time>
      </trkpt>
      <trkpt lat="46.02823" lon="3.61324">
        <ele>558.49</ele>
        <time>2015-06-13T11:56:18Z</time>
      </trkpt>
      <trkpt lat="46.02819" lon="3.61349">
        <ele>560.27</ele>
        <time>2015-06-13T11:56:23Z</time>
      </trkpt>
      <trkpt lat="46.02816" lon="3.61377">
        <ele>562.27</ele>
        <time>2015-06-13T11:56:29Z</time>
      </trkpt>
      <trkpt lat="46.02813" lon="3.61403">
        <ele>563.98</ele>
        <time>2015-06-13T11:56:34Z</time>
      </trkpt>
      <trkpt lat="46.02811" lon="3.61431">
        <ele>565.29</ele>
        <time>2015-06-13T11:56:39Z</time>
      </trkpt>
      <trkpt lat="46.02809" lon="3.61459">
        <ele>567.42</ele>
        <time>2015-06-13T11:56:44Z</time>
      </trkpt>
      <trkpt lat="46.02806" lon="3.61489">
        <ele>573.02</ele>
        <time>2015-06-13T11:56:49Z</time>
      </trkpt>
      <trkpt lat="46.02803" lon="3.61519">
        <ele>576.19</ele>
        <time>2015-06-13T11:56:54Z</time>
      </trkpt>
      <trkpt lat="46.02798" lon="3.61547">
        <ele>577.28</ele>
        <time>2015-06-13T11:56:58Z</time>
      </trkpt>
      <trkpt lat="46.0279" lon="3.61575">
        <ele>577.54</ele>
        <time>2015-06-13T11:57:02Z</time>
      </trkpt>
      <trkpt lat="46.02775" lon="3.61598">
        <ele>577.55</ele>
        <time>2015-06-13T11:57:06Z</time>
      </trkpt>
      <trkpt lat="46.02758" lon="3.6162">
        <ele>576.68</ele>
        <time>2015-06-13T11:57:10Z</time>
      </trkpt>
      <trkpt lat="46.02741" lon="3.61637">
        <ele>576.57</ele>
        <time>2015-06-13T11:57:13Z</time>
      </trkpt>
      <trkpt lat="46.02724" lon="3.61656">
        <ele>577.05</ele>
        <time>2015-06-13T11:57:16Z</time>
      </trkpt>
      <trkpt lat="46.02707" lon="3.61676">
        <ele>577.99</ele>
        <time>2015-06-13T11:57:19Z</time>
      </trkpt>
      <trkpt lat="46.0269" lon="3.61695">
        <ele>578.98</ele>
        <time>2015-06-13T11:57:22Z</time>
      </trkpt>
      <trkpt lat="46.02672" lon="3.61714">
        <ele>579.48</ele>
        <time>2015-06-13T11:57:25Z</time>
      </trkpt>
      <trkpt lat="46.02655" lon="3.61736">
        <ele>580.42</ele>
        <time>2015-06-13T11:57:28Z</time>
      </trkpt>
      <trkpt lat="46.02637" lon="3.61757">
        <ele>580.54</ele>
        <time>2015-06-13T11:57:31Z</time>
      </trkpt>
      <trkpt lat="46.02619" lon="3.61776">
        <ele>580.55</ele>
        <time>2015-06-13T11:57:34Z</time>
      </trkpt>
      <trkpt lat="46.02602" lon="3.61798">
        <ele>580.55</ele>
        <time>2015-06-13T11:57:37Z</time>
      </trkpt>
      <trkpt lat="46.02585" lon="3.61819">
        <ele>580.55</ele>
        <time>2015-06-13T11:57:40Z</time>
      </trkpt>
      <trkpt lat="46.02569" lon="3.61839">
        <ele>580.55</ele>
        <time>2015-06-13T11:57:43Z</time>
      </trkpt>
      <trkpt lat="46.02554" lon="3.61856">
        <ele>580.55</ele>
        <time>2015-06-13T11:57:46Z</time>
      </trkpt>
      <trkpt lat="46.02538" lon="3.61871">
        <ele>580.55</ele>
        <time>2015-06-13T11:57:49Z</time>
      </trkpt>
      <trkpt lat="46.02522" lon="3.61884">
        <ele>580.05</ele>
        <time>2015-06-13T11:57:52Z</time>
      </trkpt>
      <trkpt lat="46.02504" lon="3.61899">
        <ele>579.62</ele>
        <time>2015-06-13T11:57:55Z</time>
      </trkpt>
      <trkpt lat="46.02486" lon="3.61914">
        <ele>579.56</ele>
        <time>2015-06-13T11:57:58Z</time>
      </trkpt>
      <trkpt lat="46.02468" lon="3.61929">
        <ele>579.55</ele>
        <time>2015-06-13T11:58:01Z</time>
      </trkpt>
      <trkpt lat="46.0245" lon="3.61944">
        <ele>580.05</ele>
        <time>2015-06-13T11:58:04Z</time>
      </trkpt>
      <trkpt lat="46.0243" lon="3.61961">
        <ele>580.49</ele>
        <time>2015-06-13T11:58:07Z</time>
      </trkpt>
      <trkpt lat="46.02412" lon="3.61976">
        <ele>581.05</ele>
        <time>2015-06-13T11:58:10Z</time>
      </trkpt>
      <trkpt lat="46.02395" lon="3.61993">
        <ele>581.49</ele>
        <time>2015-06-13T11:58:13Z</time>
      </trkpt>
      <trkpt lat="46.02383" lon="3.62019">
        <ele>582.3</ele>
        <time>2015-06-13T11:58:16Z</time>
      </trkpt>
      <trkpt lat="46.02379" lon="3.62051">
        <ele>583.02</ele>
        <time>2015-06-13T11:58:19Z</time>
      </trkpt>
      <trkpt lat="46.0238" lon="3.62087">
        <ele>583.49</ele>
        <time>2015-06-13T11:58:22Z</time>
      </trkpt>
      <trkpt lat="46.02382" lon="3.62124">
        <ele>582.79</ele>
        <time>2015-06-13T11:58:25Z</time>
      </trkpt>
      <trkpt lat="46.02385" lon="3.6216">
        <ele>581.21</ele>
        <time>2015-06-13T11:58:28Z</time>
      </trkpt>
      <trkpt lat="46.02389" lon="3.62195">
        <ele>578.51</ele>
        <time>2015-06-13T11:58:31Z</time>
      </trkpt>
      <trkpt lat="46.02391" lon="3.62231">
        <ele>576.42</ele>
        <time>2015-06-13T11:58:34Z</time>
      </trkpt>
      <trkpt lat="46.02392" lon="3.62268">
        <ele>574.91</ele>
        <time>2015-06-13T11:58:37Z</time>
      </trkpt>
      <trkpt lat="46.02393" lon="3.62304">
        <ele>573.22</ele>
        <time>2015-06-13T11:58:40Z</time>
      </trkpt>
      <trkpt lat="46.02393" lon="3.62339">
        <ele>571.89</ele>
        <time>2015-06-13T11:58:43Z</time>
      </trkpt>
      <trkpt lat="46.02392" lon="3.62373">
        <ele>570.72</ele>
        <time>2015-06-13T11:58:46Z</time>
      </trkpt>
      <trkpt lat="46.02391" lon="3.62405">
        <ele>569.2</ele>
        <time>2015-06-13T11:58:49Z</time>
      </trkpt>
      <trkpt lat="46.02389" lon="3.62435">
        <ele>567.88</ele>
        <time>2015-06-13T11:58:52Z</time>
      </trkpt>
      <trkpt lat="46.02387" lon="3.62465">
        <ele>566.84</ele>
        <time>2015-06-13T11:58:55Z</time>
      </trkpt>
      <trkpt lat="46.02387" lon="3.62495">
        <ele>566.59</ele>
        <time>2015-06-13T11:58:58Z</time>
      </trkpt>
      <trkpt lat="46.02389" lon="3.62525">
        <ele>566.56</ele>
        <time>2015-06-13T11:59:01Z</time>
      </trkpt>
      <trkpt lat="46.0239" lon="3.62553">
        <ele>567.43</ele>
        <time>2015-06-13T11:59:04Z</time>
      </trkpt>
      <trkpt lat="46.02391" lon="3.62581">
        <ele>567.54</ele>
        <time>2015-06-13T11:59:07Z</time>
      </trkpt>
      <trkpt lat="46.02391" lon="3.62611">
        <ele>567.55</ele>
        <time>2015-06-13T11:59:10Z</time>
      </trkpt>
      <trkpt lat="46.02394" lon="3.62639">
        <ele>567.55</ele>
        <time>2015-06-13T11:59:13Z</time>
      </trkpt>
      <trkpt lat="46.02397" lon="3.62669">
        <ele>567.55</ele>
        <time>2015-06-13T11:59:16Z</time>
      </trkpt>
      <trkpt lat="46.02402" lon="3.62699">
        <ele>566.68</ele>
        <time>2015-06-13T11:59:19Z</time>
      </trkpt>
      <trkpt lat="46.02409" lon="3.62727">
        <ele>566.57</ele>
        <time>2015-06-13T11:59:22Z</time>
      </trkpt>
      <trkpt lat="46.02417" lon="3.62757">
        <ele>565.68</ele>
        <time>2015-06-13T11:59:25Z</time>
      </trkpt>
      <trkpt lat="46.02427" lon="3.62785">
        <ele>565.07</ele>
        <time>2015-06-13T11:59:28Z</time>
      </trkpt>
      <trkpt lat="46.02438" lon="3.62813">
        <ele>564.12</ele>
        <time>2015-06-13T11:59:31Z</time>
      </trkpt>
      <trkpt lat="46.02446" lon="3.62839">
        <ele>562.25</ele>
        <time>2015-06-13T11:59:34Z</time>
      </trkpt>
      <trkpt lat="46.02455" lon="3.62864">
        <ele>560.89</ele>
        <time>2015-06-13T11:59:37Z</time>
      </trkpt>
      <trkpt lat="46.02463" lon="3.62888">
        <ele>560.6</ele>
        <time>2015-06-13T11:59:40Z</time>
      </trkpt>
      <trkpt lat="46.0247" lon="3.62911">
        <ele>559.68</ele>
        <time>2015-06-13T11:59:43Z</time>
      </trkpt>
      <trkpt lat="46.02478" lon="3.62937">
        <ele>560.07</ele>
        <time>2015-06-13T11:59:46Z</time>
      </trkpt>
      <trkpt lat="46.02487" lon="3.62965">
        <ele>559.12</ele>
        <time>2015-06-13T11:59:49Z</time>
      </trkpt>
      <trkpt lat="46.02497" lon="3.62993">
        <ele>557.25</ele>
        <time>2015-06-13T11:59:52Z</time>
      </trkpt>
      <trkpt lat="46.02508" lon="3.63021">
        <ele>555.89</ele>
        <time>2015-06-13T11:59:55Z</time>
      </trkpt>
      <trkpt lat="46.02513" lon="3.63053">
        <ele>556.1</ele>
        <time>2015-06-13T11:59:58Z</time>
      </trkpt>
      <trkpt lat="46.0251" lon="3.63079">
        <ele>556.94</ele>
        <time>2015-06-13T12:00:00Z</time>
      </trkpt>
      <trkpt lat="46.02505" lon="3.63115">
        <ele>558.23</ele>
        <time>2015-06-13T12:00:03Z</time>
      </trkpt>
      <trkpt lat="46.02499" lon="3.63152">
        <ele>559.39</ele>
        <time>2015-06-13T12:00:06Z</time>
      </trkpt>
      <trkpt lat="46.02499" lon="3.63188">
        <ele>560.03</ele>
        <time>2015-06-13T12:00:09Z</time>
      </trkpt>
      <trkpt lat="46.02501" lon="3.63225">
        <ele>560.99</ele>
        <time>2015-06-13T12:00:12Z</time>
      </trkpt>
      <trkpt lat="46.02504" lon="3.6325">
        <ele>561.41</ele>
        <time>2015-06-13T12:00:14Z</time>
      </trkpt>
      <trkpt lat="46.02509" lon="3.63276">
        <ele>561.52</ele>
        <time>2015-06-13T12:00:16Z</time>
      </trkpt>
      <trkpt lat="46.02514" lon="3.63313">
        <ele>561.05</ele>
        <time>2015-06-13T12:00:19Z</time>
      </trkpt>
      <trkpt lat="46.02519" lon="3.63347">
        <ele>560.61</ele>
        <time>2015-06-13T12:00:22Z</time>
      </trkpt>
      <trkpt lat="46.0252" lon="3.63379">
        <ele>560.56</ele>
        <time>2015-06-13T12:00:25Z</time>
      </trkpt>
      <trkpt lat="46.0252" lon="3.63414">
        <ele>560.55</ele>
        <time>2015-06-13T12:00:28Z</time>
      </trkpt>
      <trkpt lat="46.02518" lon="3.63452">
        <ele>561.93</ele>
        <time>2015-06-13T12:00:31Z</time>
      </trkpt>
      <trkpt lat="46.02517" lon="3.63489">
        <ele>563.35</ele>
        <time>2015-06-13T12:00:34Z</time>
      </trkpt>
      <trkpt lat="46.02516" lon="3.63525">
        <ele>563.53</ele>
        <time>2015-06-13T12:00:37Z</time>
      </trkpt>
      <trkpt lat="46.02514" lon="3.63562">
        <ele>563.05</ele>
        <time>2015-06-13T12:00:40Z</time>
      </trkpt>
      <trkpt lat="46.02513" lon="3.63598">
        <ele>562.62</ele>
        <time>2015-06-13T12:00:43Z</time>
      </trkpt>
      <trkpt lat="46.02516" lon="3.63624">
        <ele>562.57</ele>
        <time>2015-06-13T12:00:45Z</time>
      </trkpt>
      <trkpt lat="46.02523" lon="3.63658">
        <ele>562.55</ele>
        <time>2015-06-13T12:00:48Z</time>
      </trkpt>
      <trkpt lat="46.02533" lon="3.63693">
        <ele>561.8</ele>
        <time>2015-06-13T12:00:51Z</time>
      </trkpt>
      <trkpt lat="46.02545" lon="3.63725">
        <ele>560.33</ele>
        <time>2015-06-13T12:00:54Z</time>
      </trkpt>
      <trkpt lat="46.02556" lon="3.6375">
        <ele>558.5</ele>
        <time>2015-06-13T12:00:56Z</time>
      </trkpt>
      <trkpt lat="46.02569" lon="3.63776">
        <ele>555.29</ele>
        <time>2015-06-13T12:00:58Z</time>
      </trkpt>
      <trkpt lat="46.02581" lon="3.63802">
        <ele>552.24</ele>
        <time>2015-06-13T12:01:00Z</time>
      </trkpt>
      <trkpt lat="46.02592" lon="3.63828">
        <ele>549.72</ele>
        <time>2015-06-13T12:01:02Z</time>
      </trkpt>
      <trkpt lat="46.02602" lon="3.63851">
        <ele>547.6</ele>
        <time>2015-06-13T12:01:04Z</time>
      </trkpt>
      <trkpt lat="46.02605" lon="3.63888">
        <ele>545.93</ele>
        <time>2015-06-13T12:01:07Z</time>
      </trkpt>
      <trkpt lat="46.02603" lon="3.63924">
        <ele>545.1</ele>
        <time>2015-06-13T12:01:10Z</time>
      </trkpt>
      <trkpt lat="46.02601" lon="3.63959">
        <ele>544.62</ele>
        <time>2015-06-13T12:01:13Z</time>
      </trkpt>
      <trkpt lat="46.02597" lon="3.63995">
        <ele>544.56</ele>
        <time>2015-06-13T12:01:16Z</time>
      </trkpt>
      <trkpt lat="46.02593" lon="3.64029">
        <ele>545.43</ele>
        <time>2015-06-13T12:01:19Z</time>
      </trkpt>
      <trkpt lat="46.02589" lon="3.64064">
        <ele>545.54</ele>
        <time>2015-06-13T12:01:22Z</time>
      </trkpt>
      <trkpt lat="46.02578" lon="3.64094">
        <ele>545.55</ele>
        <time>2015-06-13T12:01:25Z</time>
      </trkpt>
      <trkpt lat="46.02566" lon="3.64117">
        <ele>545.55</ele>
        <time>2015-06-13T12:01:28Z</time>
      </trkpt>
      <trkpt lat="46.02554" lon="3.64141">
        <ele>546.43</ele>
        <time>2015-06-13T12:01:31Z</time>
      </trkpt>
      <trkpt lat="46.02546" lon="3.64167">
        <ele>546.54</ele>
        <time>2015-06-13T12:01:34Z</time>
      </trkpt>
      <trkpt lat="46.02544" lon="3.64197">
        <ele>546.55</ele>
        <time>2015-06-13T12:01:37Z</time>
      </trkpt>
      <trkpt lat="46.02544" lon="3.64225">
        <ele>547.05</ele>
        <time>2015-06-13T12:01:40Z</time>
      </trkpt>
      <trkpt lat="46.02544" lon="3.64253">
        <ele>547.49</ele>
        <time>2015-06-13T12:01:43Z</time>
      </trkpt>
      <trkpt lat="46.02544" lon="3.64283">
        <ele>547.55</ele>
        <time>2015-06-13T12:01:46Z</time>
      </trkpt>
      <trkpt lat="46.02543" lon="3.64317">
        <ele>546.61</ele>
        <time>2015-06-13T12:01:50Z</time>
      </trkpt>
      <trkpt lat="46.02543" lon="3.64349">
        <ele>546.56</ele>
        <time>2015-06-13T12:01:54Z</time>
      </trkpt>
      <trkpt lat="46.02543" lon="3.64381">
        <ele>546.55</ele>
        <time>2015-06-13T12:01:58Z</time>
      </trkpt>
      <trkpt lat="46.02542" lon="3.64409">
        <ele>546.55</ele>
        <time>2015-06-13T12:02:01Z</time>
      </trkpt>
      <trkpt lat="46.02542" lon="3.64437">
        <ele>546.55</ele>
        <time>2015-06-13T12:02:04Z</time>
      </trkpt>
      <trkpt lat="46.02542" lon="3.64465">
        <ele>546.55</ele>
        <time>2015-06-13T12:02:07Z</time>
      </trkpt>
      <trkpt lat="46.02542" lon="3.64493">
        <ele>546.55</ele>
        <time>2015-06-13T12:02:10Z</time>
      </trkpt>
      <trkpt lat="46.02543" lon="3.64521">
        <ele>545.68</ele>
        <time>2015-06-13T12:02:13Z</time>
      </trkpt>
      <trkpt lat="46.02544" lon="3.64549">
        <ele>545.07</ele>
        <time>2015-06-13T12:02:16Z</time>
      </trkpt>
      <trkpt lat="46.02544" lon="3.64577">
        <ele>544.62</ele>
        <time>2015-06-13T12:02:19Z</time>
      </trkpt>
      <trkpt lat="46.02538" lon="3.64604">
        <ele>543.69</ele>
        <time>2015-06-13T12:02:22Z</time>
      </trkpt>
      <trkpt lat="46.02518" lon="3.6463">
        <ele>542.82</ele>
        <time>2015-06-13T12:02:25Z</time>
      </trkpt>
      <trkpt lat="46.02499" lon="3.64641">
        <ele>542.62</ele>
        <time>2015-06-13T12:02:27Z</time>
      </trkpt>
      <trkpt lat="46.02484" lon="3.64656">
        <ele>542.57</ele>
        <time>2015-06-13T12:02:29Z</time>
      </trkpt>
      <trkpt lat="46.02471" lon="3.64677">
        <ele>542.56</ele>
        <time>2015-06-13T12:02:31Z</time>
      </trkpt>
      <trkpt lat="46.02457" lon="3.64705">
        <ele>542.55</ele>
        <time>2015-06-13T12:02:34Z</time>
      </trkpt>
      <trkpt lat="46.02441" lon="3.64725">
        <ele>543.54</ele>
        <time>2015-06-13T12:02:40Z</time>
      </trkpt>
      <trkpt lat="46.0242" lon="3.64729">
        <ele>544.3</ele>
        <time>2015-06-13T12:02:44Z</time>
      </trkpt>
      <trkpt lat="46.02399" lon="3.64735">
        <ele>544.54</ele>
        <time>2015-06-13T12:02:48Z</time>
      </trkpt>
      <trkpt lat="46.02383" lon="3.64748">
        <ele>543.8</ele>
        <time>2015-06-13T12:02:52Z</time>
      </trkpt>
      <trkpt lat="46.02372" lon="3.64774">
        <ele>542.82</ele>
        <time>2015-06-13T12:02:56Z</time>
      </trkpt>
      <trkpt lat="46.02361" lon="3.64795">
        <ele>542.57</ele>
        <time>2015-06-13T12:03:00Z</time>
      </trkpt>
      <trkpt lat="46.02347" lon="3.64815">
        <ele>542.55</ele>
        <time>2015-06-13T12:03:06Z</time>
      </trkpt>
      <trkpt lat="46.02333" lon="3.64836">
        <ele>542.55</ele>
        <time>2015-06-13T12:03:13Z</time>
      </trkpt>
      <trkpt lat="46.02322" lon="3.6486">
        <ele>542.55</ele>
        <time>2015-06-13T12:03:20Z</time>
      </trkpt>
      <trkpt lat="46.02325" lon="3.6489">
        <ele>542.55</ele>
        <time>2015-06-13T12:03:26Z</time>
      </trkpt>
      <trkpt lat="46.02331" lon="3.64918">
        <ele>542.55</ele>
        <time>2015-06-13T12:03:31Z</time>
      </trkpt>
      <trkpt lat="46.02331" lon="3.64946">
        <ele>541.8</ele>
        <time>2015-06-13T12:03:37Z</time>
      </trkpt>
      <trkpt lat="46.02325" lon="3.64976">
        <ele>541.06</ele>
        <time>2015-06-13T12:03:43Z</time>
      </trkpt>
      <trkpt lat="46.02317" lon="3.64999">
        <ele>539.71</ele>
        <time>2015-06-13T12:03:47Z</time>
      </trkpt>
      <trkpt lat="46.02316" lon="3.65034">
        <ele>538.63</ele>
        <time>2015-06-13T12:03:51Z</time>
      </trkpt>
      <trkpt lat="46.0232" lon="3.65062">
        <ele>538.06</ele>
        <time>2015-06-13T12:03:54Z</time>
      </trkpt>
      <trkpt lat="46.02324" lon="3.65092">
        <ele>537.62</ele>
        <time>2015-06-13T12:03:57Z</time>
      </trkpt>
      <trkpt lat="46.02327" lon="3.65119">
        <ele>536.69</ele>
        <time>2015-06-13T12:04:00Z</time>
      </trkpt>
      <trkpt lat="46.02331" lon="3.65145">
        <ele>536.55</ele>
        <time>2015-06-13T12:04:09Z</time>
      </trkpt>
      <trkpt lat="46.02335" lon="3.65171">
        <ele>534.05</ele>
        <time>2015-06-13T12:07:03Z</time>
      </trkpt>
      <trkpt lat="46.02329" lon="3.65145">
        <ele>535.55</ele>
        <time>2015-06-13T12:07:23Z</time>
      </trkpt>
      <trkpt lat="46.02329" lon="3.65117">
        <ele>546.55</ele>
        <time>2015-06-13T12:14:54Z</time>
      </trkpt>
      <trkpt lat="46.02324" lon="3.65089">
        <ele>545.56</ele>
        <time>2015-06-13T12:15:02Z</time>
      </trkpt>
      <trkpt lat="46.0232" lon="3.65064">
        <ele>545.55</ele>
        <time>2015-06-13T12:15:09Z</time>
      </trkpt>
      <trkpt lat="46.02314" lon="3.65036">
        <ele>545.55</ele>
        <time>2015-06-13T12:15:16Z</time>
      </trkpt>
      <trkpt lat="46.02311" lon="3.65008">
        <ele>545.55</ele>
        <time>2015-06-13T12:15:23Z</time>
      </trkpt>
      <trkpt lat="46.02316" lon="3.64982">
        <ele>546.43</ele>
        <time>2015-06-13T12:15:30Z</time>
      </trkpt>
      <trkpt lat="46.02323" lon="3.64956">
        <ele>546.55</ele>
        <time>2015-06-13T12:15:37Z</time>
      </trkpt>
      <trkpt lat="46.02328" lon="3.64931">
        <ele>547.49</ele>
        <time>2015-06-13T12:15:42Z</time>
      </trkpt>
      <trkpt lat="46.02327" lon="3.64903">
        <ele>550.11</ele>
        <time>2015-06-13T12:15:46Z</time>
      </trkpt>
      <trkpt lat="46.02322" lon="3.64873">
        <ele>552.21</ele>
        <time>2015-06-13T12:15:50Z</time>
      </trkpt>
      <trkpt lat="46.02333" lon="3.64845">
        <ele>552.53</ele>
        <time>2015-06-13T12:15:54Z</time>
      </trkpt>
      <trkpt lat="46.02346" lon="3.64817">
        <ele>552.55</ele>
        <time>2015-06-13T12:15:58Z</time>
      </trkpt>
      <trkpt lat="46.02361" lon="3.64802">
        <ele>552.55</ele>
        <time>2015-06-13T12:16:01Z</time>
      </trkpt>
      <trkpt lat="46.02377" lon="3.6478">
        <ele>552.3</ele>
        <time>2015-06-13T12:16:05Z</time>
      </trkpt>
      <trkpt lat="46.0238" lon="3.64755">
        <ele>552.52</ele>
        <time>2015-06-13T12:16:08Z</time>
      </trkpt>
      <trkpt lat="46.02373" lon="3.64729">
        <ele>552.55</ele>
        <time>2015-06-13T12:16:12Z</time>
      </trkpt>
      <trkpt lat="46.02352" lon="3.64722">
        <ele>552.55</ele>
        <time>2015-06-13T12:16:17Z</time>
      </trkpt>
      <trkpt lat="46.02334" lon="3.64718">
        <ele>552.55</ele>
        <time>2015-06-13T12:16:23Z</time>
      </trkpt>
      <trkpt lat="46.02314" lon="3.64722">
        <ele>552.55</ele>
        <time>2015-06-13T12:16:31Z</time>
      </trkpt>
      <trkpt lat="46.02288" lon="3.64727">
        <ele>553.55</ele>
        <time>2015-06-13T12:16:45Z</time>
      </trkpt>
      <trkpt lat="46.02262" lon="3.64733">
        <ele>554.05</ele>
        <time>2015-06-13T12:17:07Z</time>
      </trkpt>
      <trkpt lat="46.02242" lon="3.64738">
        <ele>554.55</ele>
        <time>2015-06-13T12:17:22Z</time>
      </trkpt>
      <trkpt lat="46.02222" lon="3.64738">
        <ele>555.55</ele>
        <time>2015-06-13T12:17:35Z</time>
      </trkpt>
      <trkpt lat="46.02203" lon="3.64727">
        <ele>556.55</ele>
        <time>2015-06-13T12:17:50Z</time>
      </trkpt>
      <trkpt lat="46.02181" lon="3.64705">
        <ele>558.05</ele>
        <time>2015-06-13T12:18:06Z</time>
      </trkpt>
      <trkpt lat="46.02161" lon="3.64697">
        <ele>560.05</ele>
        <time>2015-06-13T12:18:20Z</time>
      </trkpt>
      <trkpt lat="46.02134" lon="3.64697">
        <ele>562.05</ele>
        <time>2015-06-13T12:18:35Z</time>
      </trkpt>
      <trkpt lat="46.02112" lon="3.64688">
        <ele>565.04</ele>
        <time>2015-06-13T12:18:51Z</time>
      </trkpt>
      <trkpt lat="46.02095" lon="3.64673">
        <ele>567.05</ele>
        <time>2015-06-13T12:19:02Z</time>
      </trkpt>
      <trkpt lat="46.02072" lon="3.64654">
        <ele>569.05</ele>
        <time>2015-06-13T12:19:16Z</time>
      </trkpt>
      <trkpt lat="46.02056" lon="3.64641">
        <ele>572.02</ele>
        <time>2015-06-13T12:19:27Z</time>
      </trkpt>
      <trkpt lat="46.02039" lon="3.6463">
        <ele>574.29</ele>
        <time>2015-06-13T12:19:37Z</time>
      </trkpt>
      <trkpt lat="46.02021" lon="3.64626">
        <ele>576.42</ele>
        <time>2015-06-13T12:19:48Z</time>
      </trkpt>
      <trkpt lat="46.02002" lon="3.6463">
        <ele>578.52</ele>
        <time>2015-06-13T12:19:59Z</time>
      </trkpt>
      <trkpt lat="46.01984" lon="3.64635">
        <ele>581.04</ele>
        <time>2015-06-13T12:20:10Z</time>
      </trkpt>
      <trkpt lat="46.01966" lon="3.64643">
        <ele>583.49</ele>
        <time>2015-06-13T12:20:22Z</time>
      </trkpt>
      <trkpt lat="46.01951" lon="3.64658">
        <ele>586.49</ele>
        <time>2015-06-13T12:20:34Z</time>
      </trkpt>
      <trkpt lat="46.01936" lon="3.64673">
        <ele>590.02</ele>
        <time>2015-06-13T12:20:46Z</time>
      </trkpt>
      <trkpt lat="46.01918" lon="3.64673">
        <ele>592.49</ele>
        <time>2015-06-13T12:20:57Z</time>
      </trkpt>
      <trkpt lat="46.01899" lon="3.64675">
        <ele>595.49</ele>
        <time>2015-06-13T12:21:10Z</time>
      </trkpt>
      <trkpt lat="46.01881" lon="3.64667">
        <ele>598.43</ele>
        <time>2015-06-13T12:21:25Z</time>
      </trkpt>
      <trkpt lat="46.01868" lon="3.64647">
        <ele>600.52</ele>
        <time>2015-06-13T12:21:37Z</time>
      </trkpt>
      <trkpt lat="46.01857" lon="3.64624">
        <ele>603.04</ele>
        <time>2015-06-13T12:21:49Z</time>
      </trkpt>
      <trkpt lat="46.01849" lon="3.646">
        <ele>605.05</ele>
        <time>2015-06-13T12:22:01Z</time>
      </trkpt>
      <trkpt lat="46.01841" lon="3.64577">
        <ele>607.05</ele>
        <time>2015-06-13T12:22:13Z</time>
      </trkpt>
      <trkpt lat="46.01832" lon="3.64553">
        <ele>608.54</ele>
        <time>2015-06-13T12:22:25Z</time>
      </trkpt>
      <trkpt lat="46.01826" lon="3.64527">
        <ele>611.29</ele>
        <time>2015-06-13T12:22:38Z</time>
      </trkpt>
      <trkpt lat="46.01824" lon="3.64501">
        <ele>613.49</ele>
        <time>2015-06-13T12:22:50Z</time>
      </trkpt>
      <trkpt lat="46.01821" lon="3.64476">
        <ele>616.42</ele>
        <time>2015-06-13T12:23:03Z</time>
      </trkpt>
      <trkpt lat="46.01813" lon="3.6445">
        <ele>620.02</ele>
        <time>2015-06-13T12:23:18Z</time>
      </trkpt>
      <trkpt lat="46.01803" lon="3.64426">
        <ele>623.04</ele>
        <time>2015-06-13T12:23:33Z</time>
      </trkpt>
      <trkpt lat="46.01789" lon="3.64409">
        <ele>625.55</ele>
        <time>2015-06-13T12:23:53Z</time>
      </trkpt>
      <trkpt lat="46.01774" lon="3.64394">
        <ele>628.43</ele>
        <time>2015-06-13T12:24:11Z</time>
      </trkpt>
      <trkpt lat="46.01759" lon="3.64379">
        <ele>630.52</ele>
        <time>2015-06-13T12:24:25Z</time>
      </trkpt>
      <trkpt lat="46.01742" lon="3.64364">
        <ele>630.55</ele>
        <time>2015-06-13T12:24:41Z</time>
      </trkpt>
      <trkpt lat="46.01724" lon="3.64356">
        <ele>631.55</ele>
        <time>2015-06-13T12:24:52Z</time>
      </trkpt>
      <trkpt lat="46.01708" lon="3.64343">
        <ele>633.55</ele>
        <time>2015-06-13T12:25:54Z</time>
      </trkpt>
      <trkpt lat="46.01689" lon="3.64349">
        <ele>643.14</ele>
        <time>2015-06-13T12:27:20Z</time>
      </trkpt>
      <trkpt lat="46.01671" lon="3.64345">
        <ele>645.21</ele>
        <time>2015-06-13T12:27:24Z</time>
      </trkpt>
      <trkpt lat="46.01647" lon="3.64338">
        <ele>652.97</ele>
        <time>2015-06-13T12:27:28Z</time>
      </trkpt>
      <trkpt lat="46.01625" lon="3.64336">
        <ele>665.2</ele>
        <time>2015-06-13T12:27:32Z</time>
      </trkpt>
      <trkpt lat="46.01606" lon="3.64336">
        <ele>670.47</ele>
        <time>2015-06-13T12:27:36Z</time>
      </trkpt>
      <trkpt lat="46.01588" lon="3.64336">
        <ele>672.42</ele>
        <time>2015-06-13T12:27:40Z</time>
      </trkpt>
      <trkpt lat="46.0157" lon="3.64334">
        <ele>672.55</ele>
        <time>2015-06-13T12:27:48Z</time>
      </trkpt>
      <trkpt lat="46.01552" lon="3.6433">
        <ele>672.55</ele>
        <time>2015-06-13T12:28:00Z</time>
      </trkpt>
      <trkpt lat="46.01532" lon="3.64326">
        <ele>672.55</ele>
        <time>2015-06-13T12:28:06Z</time>
      </trkpt>
      <trkpt lat="46.01517" lon="3.64308">
        <ele>671.57</ele>
        <time>2015-06-13T12:28:12Z</time>
      </trkpt>
      <trkpt lat="46.01501" lon="3.64295">
        <ele>672.3</ele>
        <time>2015-06-13T12:28:17Z</time>
      </trkpt>
      <trkpt lat="46.01484" lon="3.64287">
        <ele>672.52</ele>
        <time>2015-06-13T12:28:20Z</time>
      </trkpt>
      <trkpt lat="46.01466" lon="3.64278">
        <ele>671.67</ele>
        <time>2015-06-13T12:28:23Z</time>
      </trkpt>
      <trkpt lat="46.01448" lon="3.6427">
        <ele>670.82</ele>
        <time>2015-06-13T12:28:26Z</time>
      </trkpt>
      <trkpt lat="46.01428" lon="3.64265">
        <ele>670.57</ele>
        <time>2015-06-13T12:28:30Z</time>
      </trkpt>
      <trkpt lat="46.01409" lon="3.64261">
        <ele>668.55</ele>
        <time>2015-06-13T12:28:34Z</time>
      </trkpt>
      <trkpt lat="46.0139" lon="3.64253">
        <ele>666.62</ele>
        <time>2015-06-13T12:28:39Z</time>
      </trkpt>
      <trkpt lat="46.01371" lon="3.64246">
        <ele>663.77</ele>
        <time>2015-06-13T12:28:44Z</time>
      </trkpt>
      <trkpt lat="46.01354" lon="3.64238">
        <ele>662.59</ele>
        <time>2015-06-13T12:28:50Z</time>
      </trkpt>
      <trkpt lat="46.01335" lon="3.64225">
        <ele>661.68</ele>
        <time>2015-06-13T12:28:56Z</time>
      </trkpt>
      <trkpt lat="46.01316" lon="3.64216">
        <ele>661.06</ele>
        <time>2015-06-13T12:29:01Z</time>
      </trkpt>
      <trkpt lat="46.01297" lon="3.6421">
        <ele>658.46</ele>
        <time>2015-06-13T12:29:05Z</time>
      </trkpt>
      <trkpt lat="46.01275" lon="3.64208">
        <ele>655.92</ele>
        <time>2015-06-13T12:29:09Z</time>
      </trkpt>
      <trkpt lat="46.01256" lon="3.6421">
        <ele>655.1</ele>
        <time>2015-06-13T12:29:12Z</time>
      </trkpt>
      <trkpt lat="46.01235" lon="3.64212">
        <ele>654.62</ele>
        <time>2015-06-13T12:29:15Z</time>
      </trkpt>
      <trkpt lat="46.01216" lon="3.64218">
        <ele>654.56</ele>
        <time>2015-06-13T12:29:18Z</time>
      </trkpt>
      <trkpt lat="46.01194" lon="3.6422">
        <ele>651.93</ele>
        <time>2015-06-13T12:29:22Z</time>
      </trkpt>
      <trkpt lat="46.01173" lon="3.64218">
        <ele>648.6</ele>
        <time>2015-06-13T12:29:25Z</time>
      </trkpt>
      <trkpt lat="46.01154" lon="3.64216">
        <ele>647.06</ele>
        <time>2015-06-13T12:29:27Z</time>
      </trkpt>
      <trkpt lat="46.01134" lon="3.64214">
        <ele>645.93</ele>
        <time>2015-06-13T12:29:29Z</time>
      </trkpt>
      <trkpt lat="46.01109" lon="3.64212">
        <ele>644.35</ele>
        <time>2015-06-13T12:29:32Z</time>
      </trkpt>
      <trkpt lat="46.01091" lon="3.64195">
        <ele>640.78</ele>
        <time>2015-06-13T12:29:35Z</time>
      </trkpt>
      <trkpt lat="46.01077" lon="3.64162">
        <ele>637.08</ele>
        <time>2015-06-13T12:29:38Z</time>
      </trkpt>
      <trkpt lat="46.0107" lon="3.64137">
        <ele>632.24</ele>
        <time>2015-06-13T12:29:41Z</time>
      </trkpt>
      <trkpt lat="46.01071" lon="3.64105">
        <ele>627.39</ele>
        <time>2015-06-13T12:29:44Z</time>
      </trkpt>
      <trkpt lat="46.01079" lon="3.64068">
        <ele>620.66</ele>
        <time>2015-06-13T12:29:47Z</time>
      </trkpt>
      <trkpt lat="46.01087" lon="3.64042">
        <ele>616.58</ele>
        <time>2015-06-13T12:29:49Z</time>
      </trkpt>
      <trkpt lat="46.01096" lon="3.64014">
        <ele>613.31</ele>
        <time>2015-06-13T12:29:51Z</time>
      </trkpt>
      <trkpt lat="46.01103" lon="3.63989">
        <ele>610.74</ele>
        <time>2015-06-13T12:29:53Z</time>
      </trkpt>
      <trkpt lat="46.0111" lon="3.63963">
        <ele>608.35</ele>
        <time>2015-06-13T12:29:55Z</time>
      </trkpt>
      <trkpt lat="46.01119" lon="3.63935">
        <ele>606.03</ele>
        <time>2015-06-13T12:29:58Z</time>
      </trkpt>
      <trkpt lat="46.01132" lon="3.63907">
        <ele>604.71</ele>
        <time>2015-06-13T12:30:02Z</time>
      </trkpt>
      <trkpt lat="46.01153" lon="3.63903">
        <ele>605.44</ele>
        <time>2015-06-13T12:30:06Z</time>
      </trkpt>
      <trkpt lat="46.01171" lon="3.63901">
        <ele>605.48</ele>
        <time>2015-06-13T12:30:10Z</time>
      </trkpt>
      <trkpt lat="46.01192" lon="3.63905">
        <ele>606.3</ele>
        <time>2015-06-13T12:30:15Z</time>
      </trkpt>
      <trkpt lat="46.01189" lon="3.63877">
        <ele>606.55</ele>
        <time>2015-06-13T12:30:24Z</time>
      </trkpt>
      <trkpt lat="46.01173" lon="3.6386">
        <ele>603.93</ele>
        <time>2015-06-13T12:30:27Z</time>
      </trkpt>
      <trkpt lat="46.01155" lon="3.63845">
        <ele>600.6</ele>
        <time>2015-06-13T12:30:30Z</time>
      </trkpt>
      <trkpt lat="46.01135" lon="3.63834">
        <ele>598.06</ele>
        <time>2015-06-13T12:30:33Z</time>
      </trkpt>
      <trkpt lat="46.01116" lon="3.63832">
        <ele>596.24</ele>
        <time>2015-06-13T12:30:36Z</time>
      </trkpt>
      <trkpt lat="46.01096" lon="3.63834">
        <ele>595.14</ele>
        <time>2015-06-13T12:30:39Z</time>
      </trkpt>
      <trkpt lat="46.01075" lon="3.63841">
        <ele>593.88</ele>
        <time>2015-06-13T12:30:42Z</time>
      </trkpt>
      <trkpt lat="46.01051" lon="3.63851">
        <ele>592.22</ele>
        <time>2015-06-13T12:30:45Z</time>
      </trkpt>
      <trkpt lat="46.01032" lon="3.6386">
        <ele>590.47</ele>
        <time>2015-06-13T12:30:47Z</time>
      </trkpt>
      <trkpt lat="46.01013" lon="3.63868">
        <ele>588.53</ele>
        <time>2015-06-13T12:30:49Z</time>
      </trkpt>
      <trkpt lat="46.00995" lon="3.63873">
        <ele>587.05</ele>
        <time>2015-06-13T12:30:51Z</time>
      </trkpt>
      <trkpt lat="46.00971" lon="3.63875">
        <ele>584.99</ele>
        <time>2015-06-13T12:30:54Z</time>
      </trkpt>
      <trkpt lat="46.00954" lon="3.63866">
        <ele>582.66</ele>
        <time>2015-06-13T12:30:56Z</time>
      </trkpt>
      <trkpt lat="46.00939" lon="3.63851">
        <ele>578.58</ele>
        <time>2015-06-13T12:30:58Z</time>
      </trkpt>
      <trkpt lat="46.00927" lon="3.63826">
        <ele>573.43</ele>
        <time>2015-06-13T12:31:01Z</time>
      </trkpt>
      <trkpt lat="46.00914" lon="3.63804">
        <ele>570.73</ele>
        <time>2015-06-13T12:31:05Z</time>
      </trkpt>
      <trkpt lat="46.00898" lon="3.63781">
        <ele>569.55</ele>
        <time>2015-06-13T12:31:17Z</time>
      </trkpt>
      <trkpt lat="46.00878" lon="3.63772">
        <ele>568.62</ele>
        <time>2015-06-13T12:31:24Z</time>
      </trkpt>
      <trkpt lat="46.00859" lon="3.63765">
        <ele>568.05</ele>
        <time>2015-06-13T12:31:30Z</time>
      </trkpt>
      <trkpt lat="46.00839" lon="3.63755">
        <ele>567.56</ele>
        <time>2015-06-13T12:31:37Z</time>
      </trkpt>
      <trkpt lat="46.00823" lon="3.63742">
        <ele>566.58</ele>
        <time>2015-06-13T12:31:44Z</time>
      </trkpt>
      <trkpt lat="46.00806" lon="3.6372">
        <ele>565.57</ele>
        <time>2015-06-13T12:31:54Z</time>
      </trkpt>
      <trkpt lat="46.00796" lon="3.63697">
        <ele>564.58</ele>
        <time>2015-06-13T12:32:02Z</time>
      </trkpt>
      <trkpt lat="46.00788" lon="3.63667">
        <ele>563.57</ele>
        <time>2015-06-13T12:32:12Z</time>
      </trkpt>
      <trkpt lat="46.00783" lon="3.63639">
        <ele>562.58</ele>
        <time>2015-06-13T12:32:21Z</time>
      </trkpt>
      <trkpt lat="46.00783" lon="3.63609">
        <ele>562.05</ele>
        <time>2015-06-13T12:32:31Z</time>
      </trkpt>
      <trkpt lat="46.00787" lon="3.63583">
        <ele>561.55</ele>
        <time>2015-06-13T12:32:43Z</time>
      </trkpt>
      <trkpt lat="46.0079" lon="3.63555">
        <ele>560.56</ele>
        <time>2015-06-13T12:32:56Z</time>
      </trkpt>
      <trkpt lat="46.00792" lon="3.63523">
        <ele>560.55</ele>
        <time>2015-06-13T12:33:06Z</time>
      </trkpt>
      <trkpt lat="46.00788" lon="3.63493">
        <ele>560.55</ele>
        <time>2015-06-13T12:33:14Z</time>
      </trkpt>
      <trkpt lat="46.00778" lon="3.63469">
        <ele>561.05</ele>
        <time>2015-06-13T12:33:23Z</time>
      </trkpt>
      <trkpt lat="46.00762" lon="3.63454">
        <ele>561.55</ele>
        <time>2015-06-13T12:33:31Z</time>
      </trkpt>
      <trkpt lat="46.00739" lon="3.63459">
        <ele>563.05</ele>
        <time>2015-06-13T12:33:41Z</time>
      </trkpt>
      <trkpt lat="46.00727" lon="3.63482">
        <ele>564.49</ele>
        <time>2015-06-13T12:33:51Z</time>
      </trkpt>
      <trkpt lat="46.00713" lon="3.63504">
        <ele>566.49</ele>
        <time>2015-06-13T12:34:03Z</time>
      </trkpt>
      <trkpt lat="46.00695" lon="3.63517">
        <ele>568.43</ele>
        <time>2015-06-13T12:34:14Z</time>
      </trkpt>
      <trkpt lat="46.0068" lon="3.63532">
        <ele>570.05</ele>
        <time>2015-06-13T12:34:25Z</time>
      </trkpt>
      <trkpt lat="46.00667" lon="3.63549">
        <ele>571.54</ele>
        <time>2015-06-13T12:34:38Z</time>
      </trkpt>
      <trkpt lat="46.00655" lon="3.6357">
        <ele>573.43</ele>
        <time>2015-06-13T12:34:53Z</time>
      </trkpt>
      <trkpt lat="46.00636" lon="3.63575">
        <ele>575.05</ele>
        <time>2015-06-13T12:35:08Z</time>
      </trkpt>
      <trkpt lat="46.0062" lon="3.6359">
        <ele>577.05</ele>
        <time>2015-06-13T12:35:25Z</time>
      </trkpt>
      <trkpt lat="46.00608" lon="3.63609">
        <ele>579.52</ele>
        <time>2015-06-13T12:35:41Z</time>
      </trkpt>
      <trkpt lat="46.00592" lon="3.63626">
        <ele>583.42</ele>
        <time>2015-06-13T12:35:57Z</time>
      </trkpt>
      <trkpt lat="46.00575" lon="3.63637">
        <ele>587.42</ele>
        <time>2015-06-13T12:36:15Z</time>
      </trkpt>
      <trkpt lat="46.00557" lon="3.6363">
        <ele>590.42</ele>
        <time>2015-06-13T12:36:29Z</time>
      </trkpt>
      <trkpt lat="46.00542" lon="3.63615">
        <ele>593.42</ele>
        <time>2015-06-13T12:36:42Z</time>
      </trkpt>
      <trkpt lat="46.00529" lon="3.63596">
        <ele>596.29</ele>
        <time>2015-06-13T12:36:54Z</time>
      </trkpt>
      <trkpt lat="46.00514" lon="3.63581">
        <ele>599.41</ele>
        <time>2015-06-13T12:37:06Z</time>
      </trkpt>
      <trkpt lat="46.00498" lon="3.63566">
        <ele>602.52</ele>
        <time>2015-06-13T12:37:20Z</time>
      </trkpt>
      <trkpt lat="46.00485" lon="3.63585">
        <ele>613.98</ele>
        <time>2015-06-13T12:39:17Z</time>
      </trkpt>
      <trkpt lat="46.00472" lon="3.63605">
        <ele>617.41</ele>
        <time>2015-06-13T12:39:28Z</time>
      </trkpt>
      <trkpt lat="46.00458" lon="3.63624">
        <ele>620.27</ele>
        <time>2015-06-13T12:39:37Z</time>
      </trkpt>
      <trkpt lat="46.00444" lon="3.63643">
        <ele>622.49</ele>
        <time>2015-06-13T12:39:48Z</time>
      </trkpt>
      <trkpt lat="46.00429" lon="3.63658">
        <ele>623.54</ele>
        <time>2015-06-13T12:39:56Z</time>
      </trkpt>
      <trkpt lat="46.00414" lon="3.63673">
        <ele>624.55</ele>
        <time>2015-06-13T12:40:03Z</time>
      </trkpt>
      <trkpt lat="46.00397" lon="3.63688">
        <ele>625.54</ele>
        <time>2015-06-13T12:40:10Z</time>
      </trkpt>
      <trkpt lat="46.00381" lon="3.63701">
        <ele>625.55</ele>
        <time>2015-06-13T12:40:16Z</time>
      </trkpt>
      <trkpt lat="46.00364" lon="3.63714">
        <ele>626.3</ele>
        <time>2015-06-13T12:40:23Z</time>
      </trkpt>
      <trkpt lat="46.00348" lon="3.63731">
        <ele>626.55</ele>
        <time>2015-06-13T12:40:30Z</time>
      </trkpt>
      <trkpt lat="46.00331" lon="3.63744">
        <ele>627.43</ele>
        <time>2015-06-13T12:40:37Z</time>
      </trkpt>
      <trkpt lat="46.00315" lon="3.63761">
        <ele>627.55</ele>
        <time>2015-06-13T12:40:45Z</time>
      </trkpt>
      <trkpt lat="46.00301" lon="3.63778">
        <ele>628.3</ele>
        <time>2015-06-13T12:40:59Z</time>
      </trkpt>
      <trkpt lat="46.00285" lon="3.63791">
        <ele>629.05</ele>
        <time>2015-06-13T12:41:25Z</time>
      </trkpt>
      <trkpt lat="46.00267" lon="3.63802">
        <ele>629.55</ele>
        <time>2015-06-13T12:41:46Z</time>
      </trkpt>
      <trkpt lat="46.00258" lon="3.63826">
        <ele>629.55</ele>
        <time>2015-06-13T12:42:03Z</time>
      </trkpt>
      <trkpt lat="46.00246" lon="3.63847">
        <ele>630.55</ele>
        <time>2015-06-13T12:42:25Z</time>
      </trkpt>
      <trkpt lat="46.0023" lon="3.6386">
        <ele>631.55</ele>
        <time>2015-06-13T12:42:48Z</time>
      </trkpt>
      <trkpt lat="46.00213" lon="3.63871">
        <ele>632.55</ele>
        <time>2015-06-13T12:43:16Z</time>
      </trkpt>
      <trkpt lat="46.00197" lon="3.63886">
        <ele>630.56</ele>
        <time>2015-06-13T12:48:53Z</time>
      </trkpt>
      <trkpt lat="46.00179" lon="3.63899">
        <ele>629.55</ele>
        <time>2015-06-13T12:49:11Z</time>
      </trkpt>
      <trkpt lat="46.0016" lon="3.63899">
        <ele>629.55</ele>
        <time>2015-06-13T12:49:18Z</time>
      </trkpt>
      <trkpt lat="46.00141" lon="3.63896">
        <ele>629.55</ele>
        <time>2015-06-13T12:49:28Z</time>
      </trkpt>
      <trkpt lat="46.00122" lon="3.6389">
        <ele>629.55</ele>
        <time>2015-06-13T12:49:39Z</time>
      </trkpt>
      <trkpt lat="46.00106" lon="3.63875">
        <ele>629.55</ele>
        <time>2015-06-13T12:49:49Z</time>
      </trkpt>
      <trkpt lat="46.00088" lon="3.63866">
        <ele>629.55</ele>
        <time>2015-06-13T12:49:58Z</time>
      </trkpt>
      <trkpt lat="46.00069" lon="3.63862">
        <ele>628.58</ele>
        <time>2015-06-13T12:50:06Z</time>
      </trkpt>
      <trkpt lat="46.0005" lon="3.63871">
        <ele>628.55</ele>
        <time>2015-06-13T12:50:17Z</time>
      </trkpt>
      <trkpt lat="46.00035" lon="3.63886">
        <ele>628.55</ele>
        <time>2015-06-13T12:50:41Z</time>
      </trkpt>
      <trkpt lat="46.0003" lon="3.6386">
        <ele>628.55</ele>
        <time>2015-06-13T12:52:08Z</time>
      </trkpt>
      <trkpt lat="46.00028" lon="3.63832">
        <ele>628.55</ele>
        <time>2015-06-13T12:52:19Z</time>
      </trkpt>
      <trkpt lat="46.00026" lon="3.63806">
        <ele>628.55</ele>
        <time>2015-06-13T12:52:29Z</time>
      </trkpt>
      <trkpt lat="46.0004" lon="3.63787">
        <ele>629.54</ele>
        <time>2015-06-13T12:52:39Z</time>
      </trkpt>
      <trkpt lat="46.00057" lon="3.63778">
        <ele>630.55</ele>
        <time>2015-06-13T12:52:47Z</time>
      </trkpt>
      <trkpt lat="46.00074" lon="3.63765">
        <ele>632.49</ele>
        <time>2015-06-13T12:52:57Z</time>
      </trkpt>
      <trkpt lat="46.00085" lon="3.63744">
        <ele>634.42</ele>
        <time>2015-06-13T12:53:06Z</time>
      </trkpt>
      <trkpt lat="46.00089" lon="3.63718">
        <ele>635.54</ele>
        <time>2015-06-13T12:53:15Z</time>
      </trkpt>
      <trkpt lat="46.00089" lon="3.6369">
        <ele>637.49</ele>
        <time>2015-06-13T12:53:25Z</time>
      </trkpt>
      <trkpt lat="46.00089" lon="3.6366">
        <ele>639.3</ele>
        <time>2015-06-13T12:53:35Z</time>
      </trkpt>
      <trkpt lat="46.00093" lon="3.63635">
        <ele>640.43</ele>
        <time>2015-06-13T12:53:44Z</time>
      </trkpt>
      <trkpt lat="46.00097" lon="3.63607">
        <ele>641.52</ele>
        <time>2015-06-13T12:53:53Z</time>
      </trkpt>
      <trkpt lat="46.00103" lon="3.63579">
        <ele>642.55</ele>
        <time>2015-06-13T12:54:03Z</time>
      </trkpt>
      <trkpt lat="46.00109" lon="3.63553">
        <ele>644.49</ele>
        <time>2015-06-13T12:54:13Z</time>
      </trkpt>
      <trkpt lat="46.00114" lon="3.63525">
        <ele>646.05</ele>
        <time>2015-06-13T12:54:22Z</time>
      </trkpt>
      <trkpt lat="46.00118" lon="3.63497">
        <ele>647.49</ele>
        <time>2015-06-13T12:54:31Z</time>
      </trkpt>
      <trkpt lat="46.00116" lon="3.63472">
        <ele>648.52</ele>
        <time>2015-06-13T12:54:39Z</time>
      </trkpt>
      <trkpt lat="46.00105" lon="3.63448">
        <ele>649.54</ele>
        <time>2015-06-13T12:54:47Z</time>
      </trkpt>
      <trkpt lat="46.00089" lon="3.63431">
        <ele>651.43</ele>
        <time>2015-06-13T12:54:59Z</time>
      </trkpt>
      <trkpt lat="46.00071" lon="3.6342">
        <ele>652.49</ele>
        <time>2015-06-13T12:55:08Z</time>
      </trkpt>
      <trkpt lat="46.00055" lon="3.63405">
        <ele>653.3</ele>
        <time>2015-06-13T12:55:16Z</time>
      </trkpt>
      <trkpt lat="46.00041" lon="3.63388">
        <ele>654.05</ele>
        <time>2015-06-13T12:55:24Z</time>
      </trkpt>
      <trkpt lat="46.00028" lon="3.63369">
        <ele>655.3</ele>
        <time>2015-06-13T12:55:33Z</time>
      </trkpt>
      <trkpt lat="46.00017" lon="3.63347">
        <ele>656.3</ele>
        <time>2015-06-13T12:55:41Z</time>
      </trkpt>
      <trkpt lat="46.00006" lon="3.63326">
        <ele>657.43</ele>
        <time>2015-06-13T12:55:49Z</time>
      </trkpt>
      <trkpt lat="45.99993" lon="3.63306">
        <ele>658.52</ele>
        <time>2015-06-13T12:55:57Z</time>
      </trkpt>
      <trkpt lat="45.99986" lon="3.63278">
        <ele>660.42</ele>
        <time>2015-06-13T12:56:05Z</time>
      </trkpt>
      <trkpt lat="45.99988" lon="3.63248">
        <ele>662.52</ele>
        <time>2015-06-13T12:56:16Z</time>
      </trkpt>
      <trkpt lat="45.99992" lon="3.63223">
        <ele>664.54</ele>
        <time>2015-06-13T12:56:27Z</time>
      </trkpt>
      <trkpt lat="45.99996" lon="3.63197">
        <ele>666.49</ele>
        <time>2015-06-13T12:56:36Z</time>
      </trkpt>
      <trkpt lat="45.99999" lon="3.63171">
        <ele>668.42</ele>
        <time>2015-06-13T12:56:44Z</time>
      </trkpt>
      <trkpt lat="46.00003" lon="3.63145">
        <ele>671.02</ele>
        <time>2015-06-13T12:56:53Z</time>
      </trkpt>
      <trkpt lat="46.00007" lon="3.6312">
        <ele>673.98</ele>
        <time>2015-06-13T12:57:02Z</time>
      </trkpt>
      <trkpt lat="46.00011" lon="3.63094">
        <ele>676.99</ele>
        <time>2015-06-13T12:57:13Z</time>
      </trkpt>
      <trkpt lat="46.00013" lon="3.63066">
        <ele>679.99</ele>
        <time>2015-06-13T12:57:24Z</time>
      </trkpt>
      <trkpt lat="46.00017" lon="3.6304">
        <ele>683.02</ele>
        <time>2015-06-13T12:57:35Z</time>
      </trkpt>
      <trkpt lat="46.00021" lon="3.63014">
        <ele>685.29</ele>
        <time>2015-06-13T12:57:44Z</time>
      </trkpt>
      <trkpt lat="46.00022" lon="3.62987">
        <ele>687.49</ele>
        <time>2015-06-13T12:57:56Z</time>
      </trkpt>
      <trkpt lat="46.0002" lon="3.62959">
        <ele>689.42</ele>
        <time>2015-06-13T12:58:05Z</time>
      </trkpt>
      <trkpt lat="46.00012" lon="3.62935">
        <ele>690.54</ele>
        <time>2015-06-13T12:58:15Z</time>
      </trkpt>
      <trkpt lat="45.99998" lon="3.62954">
        <ele>692.3</ele>
        <time>2015-06-13T12:58:23Z</time>
      </trkpt>
      <trkpt lat="45.99988" lon="3.62978">
        <ele>693.54</ele>
        <time>2015-06-13T12:58:33Z</time>
      </trkpt>
      <trkpt lat="45.99979" lon="3.63002">
        <ele>696.42</ele>
        <time>2015-06-13T12:58:47Z</time>
      </trkpt>
      <trkpt lat="45.99968" lon="3.63023">
        <ele>699.29</ele>
        <time>2015-06-13T12:59:01Z</time>
      </trkpt>
      <trkpt lat="45.99955" lon="3.63042">
        <ele>701.49</ele>
        <time>2015-06-13T12:59:12Z</time>
      </trkpt>
      <trkpt lat="45.99941" lon="3.6306">
        <ele>703.42</ele>
        <time>2015-06-13T12:59:20Z</time>
      </trkpt>
      <trkpt lat="45.99924" lon="3.63068">
        <ele>705.04</ele>
        <time>2015-06-13T12:59:29Z</time>
      </trkpt>
      <trkpt lat="45.99906" lon="3.63072">
        <ele>706.43</ele>
        <time>2015-06-13T12:59:37Z</time>
      </trkpt>
      <trkpt lat="45.99887" lon="3.63079">
        <ele>707.49</ele>
        <time>2015-06-13T12:59:45Z</time>
      </trkpt>
      <trkpt lat="45.99868" lon="3.63081">
        <ele>709.68</ele>
        <time>2015-06-13T12:59:50Z</time>
      </trkpt>
      <trkpt lat="45.99848" lon="3.63083">
        <ele>712.21</ele>
        <time>2015-06-13T12:59:55Z</time>
      </trkpt>
      <trkpt lat="45.99829" lon="3.63085">
        <ele>713.28</ele>
        <time>2015-06-13T12:59:59Z</time>
      </trkpt>
      <trkpt lat="45.99806" lon="3.63087">
        <ele>713.54</ele>
        <time>2015-06-13T13:00:03Z</time>
      </trkpt>
      <trkpt lat="45.99784" lon="3.63092">
        <ele>714.43</ele>
        <time>2015-06-13T13:00:07Z</time>
      </trkpt>
      <trkpt lat="45.99765" lon="3.63096">
        <ele>714.54</ele>
        <time>2015-06-13T13:00:10Z</time>
      </trkpt>
      <trkpt lat="45.99747" lon="3.63098">
        <ele>714.55</ele>
        <time>2015-06-13T13:00:13Z</time>
      </trkpt>
      <trkpt lat="45.99729" lon="3.63102">
        <ele>714.55</ele>
        <time>2015-06-13T13:00:16Z</time>
      </trkpt>
      <trkpt lat="45.99705" lon="3.63109">
        <ele>714.55</ele>
        <time>2015-06-13T13:00:20Z</time>
      </trkpt>
      <trkpt lat="45.99684" lon="3.63115">
        <ele>714.55</ele>
        <time>2015-06-13T13:00:24Z</time>
      </trkpt>
      <trkpt lat="45.99664" lon="3.63109">
        <ele>714.55</ele>
        <time>2015-06-13T13:00:29Z</time>
      </trkpt>
      <trkpt lat="45.99653" lon="3.63083">
        <ele>713.8</ele>
        <time>2015-06-13T13:00:36Z</time>
      </trkpt>
      <trkpt lat="45.99645" lon="3.6306">
        <ele>713.56</ele>
        <time>2015-06-13T13:00:42Z</time>
      </trkpt>
      <trkpt lat="45.99635" lon="3.63036">
        <ele>713.55</ele>
        <time>2015-06-13T13:00:48Z</time>
      </trkpt>
      <trkpt lat="45.99627" lon="3.63012">
        <ele>712.68</ele>
        <time>2015-06-13T13:00:54Z</time>
      </trkpt>
      <trkpt lat="45.99616" lon="3.62989">
        <ele>712.55</ele>
        <time>2015-06-13T13:01:00Z</time>
      </trkpt>
      <trkpt lat="45.99607" lon="3.62963">
        <ele>712.55</ele>
        <time>2015-06-13T13:01:06Z</time>
      </trkpt>
      <trkpt lat="45.99596" lon="3.62937">
        <ele>711.58</ele>
        <time>2015-06-13T13:01:12Z</time>
      </trkpt>
      <trkpt lat="45.99584" lon="3.62911">
        <ele>711.55</ele>
        <time>2015-06-13T13:01:18Z</time>
      </trkpt>
      <trkpt lat="45.99571" lon="3.62892">
        <ele>711.55</ele>
        <time>2015-06-13T13:01:23Z</time>
      </trkpt>
      <trkpt lat="45.99553" lon="3.6289">
        <ele>711.55</ele>
        <time>2015-06-13T13:01:27Z</time>
      </trkpt>
      <trkpt lat="45.99531" lon="3.62903">
        <ele>711.55</ele>
        <time>2015-06-13T13:01:31Z</time>
      </trkpt>
      <trkpt lat="45.99511" lon="3.6292">
        <ele>710.8</ele>
        <time>2015-06-13T13:01:35Z</time>
      </trkpt>
      <trkpt lat="45.99493" lon="3.62935">
        <ele>710.07</ele>
        <time>2015-06-13T13:01:39Z</time>
      </trkpt>
      <trkpt lat="45.99476" lon="3.6295">
        <ele>709.59</ele>
        <time>2015-06-13T13:01:43Z</time>
      </trkpt>
      <trkpt lat="45.9946" lon="3.62965">
        <ele>709.55</ele>
        <time>2015-06-13T13:01:47Z</time>
      </trkpt>
      <trkpt lat="45.99442" lon="3.6298">
        <ele>710.3</ele>
        <time>2015-06-13T13:01:52Z</time>
      </trkpt>
      <trkpt lat="45.99426" lon="3.62997">
        <ele>710.55</ele>
        <time>2015-06-13T13:01:58Z</time>
      </trkpt>
      <trkpt lat="45.99409" lon="3.63012">
        <ele>710.55</ele>
        <time>2015-06-13T13:02:04Z</time>
      </trkpt>
      <trkpt lat="45.99391" lon="3.63019">
        <ele>710.55</ele>
        <time>2015-06-13T13:02:11Z</time>
      </trkpt>
      <trkpt lat="45.99374" lon="3.63002">
        <ele>712.05</ele>
        <time>2015-06-13T13:02:32Z</time>
      </trkpt>
      <trkpt lat="45.99354" lon="3.62991">
        <ele>713.3</ele>
        <time>2015-06-13T13:02:42Z</time>
      </trkpt>
      <trkpt lat="45.99336" lon="3.62989">
        <ele>713.55</ele>
        <time>2015-06-13T13:02:49Z</time>
      </trkpt>
      <trkpt lat="45.99318" lon="3.62987">
        <ele>713.55</ele>
        <time>2015-06-13T13:02:55Z</time>
      </trkpt>
      <trkpt lat="45.99299" lon="3.62987">
        <ele>714.55</ele>
        <time>2015-06-13T13:03:02Z</time>
      </trkpt>
      <trkpt lat="45.9928" lon="3.62989">
        <ele>715.05</ele>
        <time>2015-06-13T13:03:08Z</time>
      </trkpt>
      <trkpt lat="45.99262" lon="3.62989">
        <ele>715.55</ele>
        <time>2015-06-13T13:03:14Z</time>
      </trkpt>
      <trkpt lat="45.99241" lon="3.62991">
        <ele>716.3</ele>
        <time>2015-06-13T13:03:20Z</time>
      </trkpt>
      <trkpt lat="45.99222" lon="3.62991">
        <ele>716.55</ele>
        <time>2015-06-13T13:03:25Z</time>
      </trkpt>
      <trkpt lat="45.99201" lon="3.62989">
        <ele>718.8</ele>
        <time>2015-06-13T13:03:30Z</time>
      </trkpt>
      <trkpt lat="45.99182" lon="3.62987">
        <ele>721.37</ele>
        <time>2015-06-13T13:03:35Z</time>
      </trkpt>
      <trkpt lat="45.99163" lon="3.62984">
        <ele>721.55</ele>
        <time>2015-06-13T13:03:40Z</time>
      </trkpt>
      <trkpt lat="45.99145" lon="3.62982">
        <ele>721.55</ele>
        <time>2015-06-13T13:03:45Z</time>
      </trkpt>
      <trkpt lat="45.99127" lon="3.62982">
        <ele>723.24</ele>
        <time>2015-06-13T13:03:49Z</time>
      </trkpt>
      <trkpt lat="45.99109" lon="3.62982">
        <ele>725.01</ele>
        <time>2015-06-13T13:03:54Z</time>
      </trkpt>
      <trkpt lat="45.9909" lon="3.62984">
        <ele>725.54</ele>
        <time>2015-06-13T13:03:59Z</time>
      </trkpt>
      <trkpt lat="45.9907" lon="3.62989">
        <ele>725.55</ele>
        <time>2015-06-13T13:04:05Z</time>
      </trkpt>
      <trkpt lat="45.99052" lon="3.62999">
        <ele>726.99</ele>
        <time>2015-06-13T13:04:10Z</time>
      </trkpt>
      <trkpt lat="45.99035" lon="3.63014">
        <ele>728.04</ele>
        <time>2015-06-13T13:04:15Z</time>
      </trkpt>
      <trkpt lat="45.99018" lon="3.63029">
        <ele>730.35</ele>
        <time>2015-06-13T13:04:20Z</time>
      </trkpt>
      <trkpt lat="45.98996" lon="3.63038">
        <ele>730.05</ele>
        <time>2015-06-13T13:04:32Z</time>
      </trkpt>
      <trkpt lat="45.98977" lon="3.63034">
        <ele>729.56</ele>
        <time>2015-06-13T13:04:38Z</time>
      </trkpt>
      <trkpt lat="45.98958" lon="3.63034">
        <ele>729.55</ele>
        <time>2015-06-13T13:04:43Z</time>
      </trkpt>
      <trkpt lat="45.9894" lon="3.63036">
        <ele>728.8</ele>
        <time>2015-06-13T13:04:49Z</time>
      </trkpt>
      <trkpt lat="45.98921" lon="3.63038">
        <ele>727.62</ele>
        <time>2015-06-13T13:04:57Z</time>
      </trkpt>
      <trkpt lat="45.98904" lon="3.63053">
        <ele>727.05</ele>
        <time>2015-06-13T13:05:04Z</time>
      </trkpt>
      <trkpt lat="45.98888" lon="3.6307">
        <ele>726.57</ele>
        <time>2015-06-13T13:05:09Z</time>
      </trkpt>
      <trkpt lat="45.98874" lon="3.63087">
        <ele>726.55</ele>
        <time>2015-06-13T13:05:14Z</time>
      </trkpt>
      <trkpt lat="45.9886" lon="3.63109">
        <ele>726.55</ele>
        <time>2015-06-13T13:05:20Z</time>
      </trkpt>
      <trkpt lat="45.98846" lon="3.63128">
        <ele>726.55</ele>
        <time>2015-06-13T13:05:25Z</time>
      </trkpt>
      <trkpt lat="45.98832" lon="3.63145">
        <ele>726.55</ele>
        <time>2015-06-13T13:05:30Z</time>
      </trkpt>
      <trkpt lat="45.98818" lon="3.63165">
        <ele>726.55</ele>
        <time>2015-06-13T13:05:35Z</time>
      </trkpt>
      <trkpt lat="45.98803" lon="3.63186">
        <ele>726.55</ele>
        <time>2015-06-13T13:05:41Z</time>
      </trkpt>
      <trkpt lat="45.9879" lon="3.63205">
        <ele>725.55</ele>
        <time>2015-06-13T13:06:22Z</time>
      </trkpt>
      <trkpt lat="45.98784" lon="3.63231">
        <ele>723.55</ele>
        <time>2015-06-13T13:07:35Z</time>
      </trkpt>
      <trkpt lat="45.98779" lon="3.63257">
        <ele>724.49</ele>
        <time>2015-06-13T13:07:41Z</time>
      </trkpt>
      <trkpt lat="45.98772" lon="3.63281">
        <ele>724.55</ele>
        <time>2015-06-13T13:07:49Z</time>
      </trkpt>
      <trkpt lat="45.98761" lon="3.63304">
        <ele>724.55</ele>
        <time>2015-06-13T13:07:57Z</time>
      </trkpt>
      <trkpt lat="45.9875" lon="3.63328">
        <ele>725.55</ele>
        <time>2015-06-13T13:08:07Z</time>
      </trkpt>
      <trkpt lat="45.98743" lon="3.63351">
        <ele>727.43</ele>
        <time>2015-06-13T13:08:37Z</time>
      </trkpt>
      <trkpt lat="45.9876" lon="3.63343">
        <ele>725.68</ele>
        <time>2015-06-13T13:10:33Z</time>
      </trkpt>
      <trkpt lat="45.98768" lon="3.63317">
        <ele>725.55</ele>
        <time>2015-06-13T13:10:44Z</time>
      </trkpt>
      <trkpt lat="45.98772" lon="3.63291">
        <ele>725.55</ele>
        <time>2015-06-13T13:10:52Z</time>
      </trkpt>
      <trkpt lat="45.98777" lon="3.63266">
        <ele>725.55</ele>
        <time>2015-06-13T13:11:01Z</time>
      </trkpt>
      <trkpt lat="45.98771" lon="3.6324">
        <ele>725.55</ele>
        <time>2015-06-13T13:11:11Z</time>
      </trkpt>
      <trkpt lat="45.98774" lon="3.63214">
        <ele>725.55</ele>
        <time>2015-06-13T13:11:23Z</time>
      </trkpt>
      <trkpt lat="45.98762" lon="3.63193">
        <ele>723.56</ele>
        <time>2015-06-13T13:11:39Z</time>
      </trkpt>
      <trkpt lat="45.98745" lon="3.63182">
        <ele>721.8</ele>
        <time>2015-06-13T13:11:59Z</time>
      </trkpt>
      <trkpt lat="45.98727" lon="3.63178">
        <ele>720.8</ele>
        <time>2015-06-13T13:12:06Z</time>
      </trkpt>
      <trkpt lat="45.98712" lon="3.63195">
        <ele>720.05</ele>
        <time>2015-06-13T13:12:13Z</time>
      </trkpt>
      <trkpt lat="45.98698" lon="3.63216">
        <ele>719.56</ele>
        <time>2015-06-13T13:12:19Z</time>
      </trkpt>
      <trkpt lat="45.98706" lon="3.63242">
        <ele>718.56</ele>
        <time>2015-06-13T13:12:27Z</time>
      </trkpt>
      <trkpt lat="45.98713" lon="3.63268">
        <ele>717.56</ele>
        <time>2015-06-13T13:12:35Z</time>
      </trkpt>
      <trkpt lat="45.98705" lon="3.63293">
        <ele>716.58</ele>
        <time>2015-06-13T13:12:43Z</time>
      </trkpt>
      <trkpt lat="45.98689" lon="3.63306">
        <ele>716.55</ele>
        <time>2015-06-13T13:12:54Z</time>
      </trkpt>
      <trkpt lat="45.98671" lon="3.63306">
        <ele>716.05</ele>
        <time>2015-06-13T13:13:03Z</time>
      </trkpt>
      <trkpt lat="45.98651" lon="3.63311">
        <ele>716.49</ele>
        <time>2015-06-13T13:13:10Z</time>
      </trkpt>
      <trkpt lat="45.98631" lon="3.63315">
        <ele>716.55</ele>
        <time>2015-06-13T13:13:17Z</time>
      </trkpt>
      <trkpt lat="45.98611" lon="3.63319">
        <ele>716.55</ele>
        <time>2015-06-13T13:13:24Z</time>
      </trkpt>
      <trkpt lat="45.98593" lon="3.63315">
        <ele>716.55</ele>
        <time>2015-06-13T13:13:29Z</time>
      </trkpt>
      <trkpt lat="45.98572" lon="3.63308">
        <ele>716.55</ele>
        <time>2015-06-13T13:13:35Z</time>
      </trkpt>
      <trkpt lat="45.98554" lon="3.633">
        <ele>716.05</ele>
        <time>2015-06-13T13:13:41Z</time>
      </trkpt>
      <trkpt lat="45.98534" lon="3.63296">
        <ele>715.56</ele>
        <time>2015-06-13T13:13:47Z</time>
      </trkpt>
      <trkpt lat="45.98515" lon="3.63296">
        <ele>715.55</ele>
        <time>2015-06-13T13:13:52Z</time>
      </trkpt>
      <trkpt lat="45.98497" lon="3.63293">
        <ele>715.55</ele>
        <time>2015-06-13T13:13:57Z</time>
      </trkpt>
      <trkpt lat="45.98478" lon="3.63291">
        <ele>715.55</ele>
        <time>2015-06-13T13:14:02Z</time>
      </trkpt>
      <trkpt lat="45.98457" lon="3.63289">
        <ele>715.55</ele>
        <time>2015-06-13T13:14:07Z</time>
      </trkpt>
      <trkpt lat="45.98434" lon="3.63287">
        <ele>715.55</ele>
        <time>2015-06-13T13:14:12Z</time>
      </trkpt>
      <trkpt lat="45.98412" lon="3.63281">
        <ele>716.3</ele>
        <time>2015-06-13T13:14:15Z</time>
      </trkpt>
      <trkpt lat="45.98391" lon="3.63276">
        <ele>716.52</ele>
        <time>2015-06-13T13:14:18Z</time>
      </trkpt>
      <trkpt lat="45.98372" lon="3.63272">
        <ele>716.55</ele>
        <time>2015-06-13T13:14:21Z</time>
      </trkpt>
      <trkpt lat="45.98353" lon="3.63268">
        <ele>716.55</ele>
        <time>2015-06-13T13:14:24Z</time>
      </trkpt>
      <trkpt lat="45.98335" lon="3.63266">
        <ele>716.55</ele>
        <time>2015-06-13T13:14:27Z</time>
      </trkpt>
      <trkpt lat="45.98313" lon="3.63261">
        <ele>716.55</ele>
        <time>2015-06-13T13:14:31Z</time>
      </trkpt>
      <trkpt lat="45.98293" lon="3.63259">
        <ele>716.55</ele>
        <time>2015-06-13T13:14:35Z</time>
      </trkpt>
      <trkpt lat="45.98268" lon="3.63255">
        <ele>716.55</ele>
        <time>2015-06-13T13:14:46Z</time>
      </trkpt>
      <trkpt lat="45.98264" lon="3.63225">
        <ele>715.56</ele>
        <time>2015-06-13T13:14:58Z</time>
      </trkpt>
      <trkpt lat="45.98269" lon="3.63197">
        <ele>712.58</ele>
        <time>2015-06-13T13:15:19Z</time>
      </trkpt>
      <trkpt lat="45.98273" lon="3.63169">
        <ele>706.8</ele>
        <time>2015-06-13T13:21:03Z</time>
      </trkpt>
      <trkpt lat="45.98273" lon="3.63137">
        <ele>703.56</ele>
        <time>2015-06-13T13:21:08Z</time>
      </trkpt>
      <trkpt lat="45.98278" lon="3.63107">
        <ele>699.55</ele>
        <time>2015-06-13T13:21:12Z</time>
      </trkpt>
      <trkpt lat="45.98291" lon="3.63087">
        <ele>697.65</ele>
        <time>2015-06-13T13:21:17Z</time>
      </trkpt>
      <trkpt lat="45.98313" lon="3.63083">
        <ele>697.56</ele>
        <time>2015-06-13T13:21:22Z</time>
      </trkpt>
      <trkpt lat="45.98332" lon="3.6307">
        <ele>697.55</ele>
        <time>2015-06-13T13:21:28Z</time>
      </trkpt>
      <trkpt lat="45.98345" lon="3.63049">
        <ele>698.3</ele>
        <time>2015-06-13T13:21:36Z</time>
      </trkpt>
      <trkpt lat="45.98342" lon="3.63019">
        <ele>699.05</ele>
        <time>2015-06-13T13:21:44Z</time>
      </trkpt>
      <trkpt lat="45.98329" lon="3.62995">
        <ele>699.55</ele>
        <time>2015-06-13T13:21:50Z</time>
      </trkpt>
      <trkpt lat="45.98318" lon="3.62974">
        <ele>700.52</ele>
        <time>2015-06-13T13:21:56Z</time>
      </trkpt>
      <trkpt lat="45.98307" lon="3.62929">
        <ele>701.55</ele>
        <time>2015-06-13T13:22:12Z</time>
      </trkpt>
      <trkpt lat="45.98207" lon="3.63051">
        <ele>702.05</ele>
        <time>2015-06-13T13:22:28Z</time>
      </trkpt>
      <trkpt lat="45.98243" lon="3.63021">
        <ele>702.3</ele>
        <time>2015-06-13T13:22:37Z</time>
      </trkpt>
      <trkpt lat="45.98266" lon="3.62991">
        <ele>702.43</ele>
        <time>2015-06-13T13:22:38Z</time>
      </trkpt>
      <trkpt lat="45.9825" lon="3.62974">
        <ele>703.52</ele>
        <time>2015-06-13T13:22:49Z</time>
      </trkpt>
      <trkpt lat="45.98235" lon="3.62957">
        <ele>702.55</ele>
        <time>2015-06-13T13:23:00Z</time>
      </trkpt>
      <trkpt lat="45.98228" lon="3.62931">
        <ele>701.56</ele>
        <time>2015-06-13T13:23:08Z</time>
      </trkpt>
      <trkpt lat="45.98225" lon="3.62905">
        <ele>701.55</ele>
        <time>2015-06-13T13:23:15Z</time>
      </trkpt>
      <trkpt lat="45.9822" lon="3.62879">
        <ele>701.55</ele>
        <time>2015-06-13T13:23:20Z</time>
      </trkpt>
      <trkpt lat="45.98212" lon="3.62851">
        <ele>701.55</ele>
        <time>2015-06-13T13:23:25Z</time>
      </trkpt>
      <trkpt lat="45.98205" lon="3.62823">
        <ele>700.8</ele>
        <time>2015-06-13T13:23:30Z</time>
      </trkpt>
      <trkpt lat="45.98197" lon="3.628">
        <ele>700.56</ele>
        <time>2015-06-13T13:23:35Z</time>
      </trkpt>
      <trkpt lat="45.98184" lon="3.62778">
        <ele>700.55</ele>
        <time>2015-06-13T13:23:40Z</time>
      </trkpt>
      <trkpt lat="45.9817" lon="3.62761">
        <ele>699.68</ele>
        <time>2015-06-13T13:23:44Z</time>
      </trkpt>
      <trkpt lat="45.98155" lon="3.62746">
        <ele>699.56</ele>
        <time>2015-06-13T13:23:48Z</time>
      </trkpt>
      <trkpt lat="45.98139" lon="3.62731">
        <ele>697.43</ele>
        <time>2015-06-13T13:23:52Z</time>
      </trkpt>
      <trkpt lat="45.9812" lon="3.62718">
        <ele>694.3</ele>
        <time>2015-06-13T13:23:56Z</time>
      </trkpt>
      <trkpt lat="45.98097" lon="3.62708">
        <ele>691.91</ele>
        <time>2015-06-13T13:24:00Z</time>
      </trkpt>
      <trkpt lat="45.98074" lon="3.62699">
        <ele>690.64</ele>
        <time>2015-06-13T13:24:04Z</time>
      </trkpt>
      <trkpt lat="45.98056" lon="3.6269">
        <ele>689.81</ele>
        <time>2015-06-13T13:24:07Z</time>
      </trkpt>
      <trkpt lat="45.98039" lon="3.62682">
        <ele>689.59</ele>
        <time>2015-06-13T13:24:10Z</time>
      </trkpt>
      <trkpt lat="45.98018" lon="3.62673">
        <ele>687.87</ele>
        <time>2015-06-13T13:24:14Z</time>
      </trkpt>
      <trkpt lat="45.97998" lon="3.62665">
        <ele>687.57</ele>
        <time>2015-06-13T13:24:18Z</time>
      </trkpt>
      <trkpt lat="45.97981" lon="3.62656">
        <ele>688.43</ele>
        <time>2015-06-13T13:24:22Z</time>
      </trkpt>
      <trkpt lat="45.97961" lon="3.62643">
        <ele>690.39</ele>
        <time>2015-06-13T13:24:27Z</time>
      </trkpt>
      <trkpt lat="45.9794" lon="3.62645">
        <ele>690.55</ele>
        <time>2015-06-13T13:24:45Z</time>
      </trkpt>
      <trkpt lat="45.98006" lon="3.62654">
        <ele>690.05</ele>
        <time>2015-06-13T13:26:14Z</time>
      </trkpt>
      <trkpt lat="45.97982" lon="3.6265">
        <ele>690.3</ele>
        <time>2015-06-13T13:26:17Z</time>
      </trkpt>
      <trkpt lat="45.97998" lon="3.62663">
        <ele>691.49</ele>
        <time>2015-06-13T13:26:25Z</time>
      </trkpt>
      <trkpt lat="45.9798" lon="3.62671">
        <ele>693.05</ele>
        <time>2015-06-13T13:26:45Z</time>
      </trkpt>
      <trkpt lat="45.97964" lon="3.62658">
        <ele>695.55</ele>
        <time>2015-06-13T13:28:00Z</time>
      </trkpt>
      <trkpt lat="45.97967" lon="3.62633">
        <ele>688.09</ele>
        <time>2015-06-13T13:30:25Z</time>
      </trkpt>
      <trkpt lat="45.9796" lon="3.62609">
        <ele>682.55</ele>
        <time>2015-06-13T13:31:09Z</time>
      </trkpt>
      <trkpt lat="45.9796" lon="3.62581">
        <ele>679.55</ele>
        <time>2015-06-13T13:32:38Z</time>
      </trkpt>
      <trkpt lat="45.9797" lon="3.62557">
        <ele>677.05</ele>
        <time>2015-06-13T13:33:18Z</time>
      </trkpt>
      <trkpt lat="45.97977" lon="3.62532">
        <ele>673.57</ele>
        <time>2015-06-13T13:34:09Z</time>
      </trkpt>
      <trkpt lat="45.97974" lon="3.62506">
        <ele>669.56</ele>
        <time>2015-06-13T13:34:50Z</time>
      </trkpt>
      <trkpt lat="45.9799" lon="3.62493">
        <ele>664.68</ele>
        <time>2015-06-13T13:36:13Z</time>
      </trkpt>
      <trkpt lat="45.97999" lon="3.62469">
        <ele>663.55</ele>
        <time>2015-06-13T13:36:35Z</time>
      </trkpt>
      <trkpt lat="45.98003" lon="3.62444">
        <ele>663.55</ele>
        <time>2015-06-13T13:37:00Z</time>
      </trkpt>
      <trkpt lat="45.98008" lon="3.62418">
        <ele>663.55</ele>
        <time>2015-06-13T13:37:29Z</time>
      </trkpt>
      <trkpt lat="45.98013" lon="3.62392">
        <ele>663.55</ele>
        <time>2015-06-13T13:37:59Z</time>
      </trkpt>
      <trkpt lat="45.98018" lon="3.62366">
        <ele>663.55</ele>
        <time>2015-06-13T13:38:23Z</time>
      </trkpt>
      <trkpt lat="45.98005" lon="3.62345">
        <ele>664.43</ele>
        <time>2015-06-13T13:38:58Z</time>
      </trkpt>
      <trkpt lat="45.98023" lon="3.62339">
        <ele>668.55</ele>
        <time>2015-06-13T13:41:01Z</time>
      </trkpt>
      <trkpt lat="45.98038" lon="3.62324">
        <ele>671.3</ele>
        <time>2015-06-13T13:41:20Z</time>
      </trkpt>
      <trkpt lat="45.98054" lon="3.62311">
        <ele>672.3</ele>
        <time>2015-06-13T13:41:34Z</time>
      </trkpt>
      <trkpt lat="45.98071" lon="3.62296">
        <ele>679.49</ele>
        <time>2015-06-13T13:46:23Z</time>
      </trkpt>
      <trkpt lat="45.98089" lon="3.62283">
        <ele>681.49</ele>
        <time>2015-06-13T13:46:33Z</time>
      </trkpt>
      <trkpt lat="45.98109" lon="3.62274">
        <ele>682.52</ele>
        <time>2015-06-13T13:46:41Z</time>
      </trkpt>
      <trkpt lat="45.98127" lon="3.62263">
        <ele>683.54</ele>
        <time>2015-06-13T13:46:49Z</time>
      </trkpt>
      <trkpt lat="45.98143" lon="3.62251">
        <ele>684.52</ele>
        <time>2015-06-13T13:46:57Z</time>
      </trkpt>
      <trkpt lat="45.9816" lon="3.62236">
        <ele>685.43</ele>
        <time>2015-06-13T13:47:07Z</time>
      </trkpt>
      <trkpt lat="45.98172" lon="3.62214">
        <ele>686.05</ele>
        <time>2015-06-13T13:47:16Z</time>
      </trkpt>
      <trkpt lat="45.98182" lon="3.62188">
        <ele>686.55</ele>
        <time>2015-06-13T13:47:25Z</time>
      </trkpt>
      <trkpt lat="45.98196" lon="3.62165">
        <ele>687.55</ele>
        <time>2015-06-13T13:47:33Z</time>
      </trkpt>
      <trkpt lat="45.98207" lon="3.62143">
        <ele>688.43</ele>
        <time>2015-06-13T13:47:41Z</time>
      </trkpt>
      <trkpt lat="45.98214" lon="3.62118">
        <ele>688.55</ele>
        <time>2015-06-13T13:47:48Z</time>
      </trkpt>
      <trkpt lat="45.98221" lon="3.62094">
        <ele>689.54</ele>
        <time>2015-06-13T13:47:55Z</time>
      </trkpt>
      <trkpt lat="45.98234" lon="3.62075">
        <ele>690.49</ele>
        <time>2015-06-13T13:48:03Z</time>
      </trkpt>
      <trkpt lat="45.98253" lon="3.62066">
        <ele>691.3</ele>
        <time>2015-06-13T13:48:11Z</time>
      </trkpt>
      <trkpt lat="45.98271" lon="3.62062">
        <ele>692.05</ele>
        <time>2015-06-13T13:48:20Z</time>
      </trkpt>
      <trkpt lat="45.98289" lon="3.62053">
        <ele>692.55</ele>
        <time>2015-06-13T13:48:29Z</time>
      </trkpt>
      <trkpt lat="45.98307" lon="3.62051">
        <ele>693.55</ele>
        <time>2015-06-13T13:48:37Z</time>
      </trkpt>
      <trkpt lat="45.98325" lon="3.62051">
        <ele>694.43</ele>
        <time>2015-06-13T13:48:45Z</time>
      </trkpt>
      <trkpt lat="45.98346" lon="3.62055">
        <ele>694.55</ele>
        <time>2015-06-13T13:48:52Z</time>
      </trkpt>
      <trkpt lat="45.98367" lon="3.62055">
        <ele>695.05</ele>
        <time>2015-06-13T13:48:57Z</time>
      </trkpt>
      <trkpt lat="45.98386" lon="3.62051">
        <ele>695.49</ele>
        <time>2015-06-13T13:49:00Z</time>
      </trkpt>
      <trkpt lat="45.98408" lon="3.62045">
        <ele>697.67</ele>
        <time>2015-06-13T13:49:03Z</time>
      </trkpt>
      <trkpt lat="45.98428" lon="3.62032">
        <ele>699.82</ele>
        <time>2015-06-13T13:49:06Z</time>
      </trkpt>
      <trkpt lat="45.98447" lon="3.6201">
        <ele>702.59</ele>
        <time>2015-06-13T13:49:09Z</time>
      </trkpt>
      <trkpt lat="45.98464" lon="3.61989">
        <ele>706.31</ele>
        <time>2015-06-13T13:49:12Z</time>
      </trkpt>
      <trkpt lat="45.98477" lon="3.61967">
        <ele>708.77</ele>
        <time>2015-06-13T13:49:15Z</time>
      </trkpt>
      <trkpt lat="45.98484" lon="3.61944">
        <ele>710.21</ele>
        <time>2015-06-13T13:49:18Z</time>
      </trkpt>
      <trkpt lat="45.98484" lon="3.61914">
        <ele>710.51</ele>
        <time>2015-06-13T13:49:21Z</time>
      </trkpt>
      <trkpt lat="45.98488" lon="3.61875">
        <ele>709.8</ele>
        <time>2015-06-13T13:49:24Z</time>
      </trkpt>
      <trkpt lat="45.9849" lon="3.61836">
        <ele>707.83</ele>
        <time>2015-06-13T13:49:27Z</time>
      </trkpt>
      <trkpt lat="45.98488" lon="3.618">
        <ele>704.59</ele>
        <time>2015-06-13T13:49:30Z</time>
      </trkpt>
      <trkpt lat="45.98482" lon="3.61766">
        <ele>702.93</ele>
        <time>2015-06-13T13:49:33Z</time>
      </trkpt>
      <trkpt lat="45.9847" lon="3.61744">
        <ele>701.85</ele>
        <time>2015-06-13T13:49:36Z</time>
      </trkpt>
      <trkpt lat="45.98452" lon="3.61738">
        <ele>701.59</ele>
        <time>2015-06-13T13:49:39Z</time>
      </trkpt>
      <trkpt lat="45.98428" lon="3.61742">
        <ele>700.12</ele>
        <time>2015-06-13T13:49:43Z</time>
      </trkpt>
      <trkpt lat="45.98408" lon="3.61744">
        <ele>695.37</ele>
        <time>2015-06-13T13:49:46Z</time>
      </trkpt>
      <trkpt lat="45.98387" lon="3.61751">
        <ele>687.54</ele>
        <time>2015-06-13T13:49:50Z</time>
      </trkpt>
      <trkpt lat="45.98372" lon="3.61766">
        <ele>684.08</ele>
        <time>2015-06-13T13:49:57Z</time>
      </trkpt>
      <trkpt lat="45.98352" lon="3.61776">
        <ele>683.56</ele>
        <time>2015-06-13T13:50:04Z</time>
      </trkpt>
      <trkpt lat="45.98332" lon="3.61781">
        <ele>682.57</ele>
        <time>2015-06-13T13:50:10Z</time>
      </trkpt>
      <trkpt lat="45.98313" lon="3.61783">
        <ele>682.55</ele>
        <time>2015-06-13T13:50:16Z</time>
      </trkpt>
      <trkpt lat="45.98294" lon="3.61787">
        <ele>682.05</ele>
        <time>2015-06-13T13:50:22Z</time>
      </trkpt>
      <trkpt lat="45.98276" lon="3.61787">
        <ele>681.56</ele>
        <time>2015-06-13T13:50:28Z</time>
      </trkpt>
      <trkpt lat="45.98258" lon="3.61787">
        <ele>681.55</ele>
        <time>2015-06-13T13:50:35Z</time>
      </trkpt>
      <trkpt lat="45.98236" lon="3.61794">
        <ele>682.43</ele>
        <time>2015-06-13T13:50:44Z</time>
      </trkpt>
      <trkpt lat="45.98217" lon="3.61804">
        <ele>683.49</ele>
        <time>2015-06-13T13:50:50Z</time>
      </trkpt>
      <trkpt lat="45.98199" lon="3.61815">
        <ele>685.42</ele>
        <time>2015-06-13T13:50:57Z</time>
      </trkpt>
      <trkpt lat="45.98181" lon="3.61826">
        <ele>687.42</ele>
        <time>2015-06-13T13:51:05Z</time>
      </trkpt>
      <trkpt lat="45.98163" lon="3.61839">
        <ele>689.29</ele>
        <time>2015-06-13T13:51:12Z</time>
      </trkpt>
      <trkpt lat="45.98148" lon="3.61858">
        <ele>690.52</ele>
        <time>2015-06-13T13:51:19Z</time>
      </trkpt>
      <trkpt lat="45.98138" lon="3.61881">
        <ele>692.04</ele>
        <time>2015-06-13T13:51:26Z</time>
      </trkpt>
      <trkpt lat="45.98125" lon="3.61903">
        <ele>693.3</ele>
        <time>2015-06-13T13:51:33Z</time>
      </trkpt>
      <trkpt lat="45.98121" lon="3.61931">
        <ele>693.55</ele>
        <time>2015-06-13T13:51:40Z</time>
      </trkpt>
      <trkpt lat="45.9811" lon="3.61959">
        <ele>695.05</ele>
        <time>2015-06-13T13:51:50Z</time>
      </trkpt>
      <trkpt lat="45.98097" lon="3.6198">
        <ele>696.52</ele>
        <time>2015-06-13T13:51:58Z</time>
      </trkpt>
      <trkpt lat="45.98082" lon="3.61997">
        <ele>697.52</ele>
        <time>2015-06-13T13:52:05Z</time>
      </trkpt>
      <trkpt lat="45.98067" lon="3.62012">
        <ele>698.54</ele>
        <time>2015-06-13T13:52:12Z</time>
      </trkpt>
      <trkpt lat="45.98052" lon="3.62027">
        <ele>699.54</ele>
        <time>2015-06-13T13:52:19Z</time>
      </trkpt>
      <trkpt lat="45.98032" lon="3.62038">
        <ele>701.05</ele>
        <time>2015-06-13T13:52:29Z</time>
      </trkpt>
      <trkpt lat="45.9802" lon="3.6206">
        <ele>702.49</ele>
        <time>2015-06-13T13:52:39Z</time>
      </trkpt>
      <trkpt lat="45.98007" lon="3.62081">
        <ele>703.55</ele>
        <time>2015-06-13T13:52:50Z</time>
      </trkpt>
      <trkpt lat="45.97993" lon="3.62098">
        <ele>704.55</ele>
        <time>2015-06-13T13:52:58Z</time>
      </trkpt>
      <trkpt lat="45.97975" lon="3.62109">
        <ele>706.42</ele>
        <time>2015-06-13T13:53:06Z</time>
      </trkpt>
      <trkpt lat="45.97955" lon="3.62115">
        <ele>707.49</ele>
        <time>2015-06-13T13:53:12Z</time>
      </trkpt>
      <trkpt lat="45.97937" lon="3.62122">
        <ele>709.29</ele>
        <time>2015-06-13T13:53:18Z</time>
      </trkpt>
      <trkpt lat="45.97918" lon="3.62118">
        <ele>710.52</ele>
        <time>2015-06-13T13:53:26Z</time>
      </trkpt>
      <trkpt lat="45.97898" lon="3.62111">
        <ele>712.49</ele>
        <time>2015-06-13T13:53:35Z</time>
      </trkpt>
      <trkpt lat="45.97881" lon="3.62103">
        <ele>714.42</ele>
        <time>2015-06-13T13:53:45Z</time>
      </trkpt>
      <trkpt lat="45.97862" lon="3.62096">
        <ele>716.05</ele>
        <time>2015-06-13T13:53:57Z</time>
      </trkpt>
      <trkpt lat="45.97844" lon="3.6209">
        <ele>718.49</ele>
        <time>2015-06-13T13:54:19Z</time>
      </trkpt>
      <trkpt lat="45.97826" lon="3.62087">
        <ele>719.55</ele>
        <time>2015-06-13T13:54:28Z</time>
      </trkpt>
      <trkpt lat="45.97807" lon="3.62087">
        <ele>720.55</ele>
        <time>2015-06-13T13:54:36Z</time>
      </trkpt>
      <trkpt lat="45.97789" lon="3.62087">
        <ele>721.55</ele>
        <time>2015-06-13T13:54:44Z</time>
      </trkpt>
      <trkpt lat="45.9777" lon="3.62092">
        <ele>722.55</ele>
        <time>2015-06-13T13:54:53Z</time>
      </trkpt>
      <trkpt lat="45.9775" lon="3.62098">
        <ele>722.55</ele>
        <time>2015-06-13T13:55:00Z</time>
      </trkpt>
      <trkpt lat="45.97731" lon="3.62107">
        <ele>723.43</ele>
        <time>2015-06-13T13:55:07Z</time>
      </trkpt>
      <trkpt lat="45.97714" lon="3.6212">
        <ele>723.55</ele>
        <time>2015-06-13T13:55:14Z</time>
      </trkpt>
      <trkpt lat="45.97697" lon="3.6213">
        <ele>723.55</ele>
        <time>2015-06-13T13:55:22Z</time>
      </trkpt>
      <trkpt lat="45.9768" lon="3.62143">
        <ele>724.52</ele>
        <time>2015-06-13T13:55:30Z</time>
      </trkpt>
      <trkpt lat="45.97664" lon="3.62158">
        <ele>726.29</ele>
        <time>2015-06-13T13:55:38Z</time>
      </trkpt>
      <trkpt lat="45.97646" lon="3.62171">
        <ele>728.29</ele>
        <time>2015-06-13T13:55:47Z</time>
      </trkpt>
      <trkpt lat="45.97629" lon="3.62182">
        <ele>729.54</ele>
        <time>2015-06-13T13:55:57Z</time>
      </trkpt>
      <trkpt lat="45.97611" lon="3.62193">
        <ele>731.49</ele>
        <time>2015-06-13T13:56:09Z</time>
      </trkpt>
      <trkpt lat="45.97593" lon="3.62193">
        <ele>734.49</ele>
        <time>2015-06-13T13:56:23Z</time>
      </trkpt>
      <trkpt lat="45.97574" lon="3.62188">
        <ele>737.42</ele>
        <time>2015-06-13T13:56:36Z</time>
      </trkpt>
      <trkpt lat="45.97555" lon="3.62182">
        <ele>740.29</ele>
        <time>2015-06-13T13:56:49Z</time>
      </trkpt>
      <trkpt lat="45.97537" lon="3.62184">
        <ele>742.55</ele>
        <time>2015-06-13T13:57:14Z</time>
      </trkpt>
      <trkpt lat="45.97518" lon="3.62188">
        <ele>743.43</ele>
        <time>2015-06-13T13:57:33Z</time>
      </trkpt>
      <trkpt lat="45.97498" lon="3.62195">
        <ele>746.48</ele>
        <time>2015-06-13T13:57:45Z</time>
      </trkpt>
      <trkpt lat="45.9748" lon="3.62199">
        <ele>748.42</ele>
        <time>2015-06-13T13:57:54Z</time>
      </trkpt>
      <trkpt lat="45.97462" lon="3.62203">
        <ele>750.29</ele>
        <time>2015-06-13T13:58:03Z</time>
      </trkpt>
      <trkpt lat="45.97443" lon="3.6221">
        <ele>752.42</ele>
        <time>2015-06-13T13:58:14Z</time>
      </trkpt>
      <trkpt lat="45.97424" lon="3.62212">
        <ele>754.52</ele>
        <time>2015-06-13T13:58:25Z</time>
      </trkpt>
      <trkpt lat="45.97407" lon="3.62221">
        <ele>757.92</ele>
        <time>2015-06-13T13:58:35Z</time>
      </trkpt>
      <trkpt lat="45.97392" lon="3.62236">
        <ele>761.55</ele>
        <time>2015-06-13T13:58:58Z</time>
      </trkpt>
      <trkpt lat="45.97379" lon="3.62255">
        <ele>771.27</ele>
        <time>2015-06-13T13:59:27Z</time>
      </trkpt>
      <trkpt lat="45.97372" lon="3.62278">
        <ele>775.43</ele>
        <time>2015-06-13T13:59:45Z</time>
      </trkpt>
      <trkpt lat="45.97355" lon="3.62289">
        <ele>777.55</ele>
        <time>2015-06-13T14:00:04Z</time>
      </trkpt>
      <trkpt lat="45.97337" lon="3.62302">
        <ele>780.43</ele>
        <time>2015-06-13T14:00:20Z</time>
      </trkpt>
      <trkpt lat="45.97321" lon="3.62315">
        <ele>782.43</ele>
        <time>2015-06-13T14:00:33Z</time>
      </trkpt>
      <trkpt lat="45.97305" lon="3.6233">
        <ele>784.3</ele>
        <time>2015-06-13T14:00:46Z</time>
      </trkpt>
      <trkpt lat="45.9729" lon="3.62345">
        <ele>785.52</ele>
        <time>2015-06-13T14:00:57Z</time>
      </trkpt>
      <trkpt lat="45.97276" lon="3.62362">
        <ele>786.55</ele>
        <time>2015-06-13T14:01:19Z</time>
      </trkpt>
      <trkpt lat="45.97259" lon="3.62373">
        <ele>788.54</ele>
        <time>2015-06-13T14:01:33Z</time>
      </trkpt>
      <trkpt lat="45.9724" lon="3.62381">
        <ele>790.52</ele>
        <time>2015-06-13T14:01:49Z</time>
      </trkpt>
      <trkpt lat="45.97221" lon="3.6239">
        <ele>792.3</ele>
        <time>2015-06-13T14:01:57Z</time>
      </trkpt>
      <trkpt lat="45.97202" lon="3.62396">
        <ele>794.04</ele>
        <time>2015-06-13T14:02:06Z</time>
      </trkpt>
      <trkpt lat="45.97182" lon="3.62401">
        <ele>796.02</ele>
        <time>2015-06-13T14:02:14Z</time>
      </trkpt>
      <trkpt lat="45.97162" lon="3.62396">
        <ele>798.02</ele>
        <time>2015-06-13T14:02:21Z</time>
      </trkpt>
      <trkpt lat="45.97143" lon="3.6239">
        <ele>799.42</ele>
        <time>2015-06-13T14:02:27Z</time>
      </trkpt>
      <trkpt lat="45.97123" lon="3.62386">
        <ele>801.49</ele>
        <time>2015-06-13T14:02:35Z</time>
      </trkpt>
      <trkpt lat="45.97102" lon="3.62384">
        <ele>803.41</ele>
        <time>2015-06-13T14:02:41Z</time>
      </trkpt>
      <trkpt lat="45.97083" lon="3.62388">
        <ele>805.48</ele>
        <time>2015-06-13T14:02:48Z</time>
      </trkpt>
      <trkpt lat="45.97065" lon="3.62394">
        <ele>807.52</ele>
        <time>2015-06-13T14:02:57Z</time>
      </trkpt>
      <trkpt lat="45.97049" lon="3.62407">
        <ele>807.55</ele>
        <time>2015-06-13T14:03:03Z</time>
      </trkpt>
      <trkpt lat="45.97031" lon="3.62414">
        <ele>808.05</ele>
        <time>2015-06-13T14:03:09Z</time>
      </trkpt>
      <trkpt lat="45.97012" lon="3.62418">
        <ele>808.54</ele>
        <time>2015-06-13T14:03:14Z</time>
      </trkpt>
      <trkpt lat="45.9699" lon="3.62422">
        <ele>809.43</ele>
        <time>2015-06-13T14:03:19Z</time>
      </trkpt>
      <trkpt lat="45.9697" lon="3.62422">
        <ele>810.42</ele>
        <time>2015-06-13T14:03:23Z</time>
      </trkpt>
      <trkpt lat="45.96952" lon="3.62422">
        <ele>811.42</ele>
        <time>2015-06-13T14:03:27Z</time>
      </trkpt>
      <trkpt lat="45.96932" lon="3.6242">
        <ele>813.27</ele>
        <time>2015-06-13T14:03:33Z</time>
      </trkpt>
      <trkpt lat="45.96914" lon="3.62416">
        <ele>815.04</ele>
        <time>2015-06-13T14:03:41Z</time>
      </trkpt>
      <trkpt lat="45.96895" lon="3.62414">
        <ele>816.49</ele>
        <time>2015-06-13T14:03:49Z</time>
      </trkpt>
      <trkpt lat="45.96877" lon="3.62409">
        <ele>817.55</ele>
        <time>2015-06-13T14:04:01Z</time>
      </trkpt>
      <trkpt lat="45.96859" lon="3.62412">
        <ele>818.55</ele>
        <time>2015-06-13T14:04:18Z</time>
      </trkpt>
      <trkpt lat="45.96842" lon="3.62422">
        <ele>820.43</ele>
        <time>2015-06-13T14:04:29Z</time>
      </trkpt>
      <trkpt lat="45.96826" lon="3.62437">
        <ele>821.54</ele>
        <time>2015-06-13T14:04:40Z</time>
      </trkpt>
      <trkpt lat="45.96811" lon="3.62452">
        <ele>823.43</ele>
        <time>2015-06-13T14:04:50Z</time>
      </trkpt>
      <trkpt lat="45.96798" lon="3.62474">
        <ele>826.04</ele>
        <time>2015-06-13T14:05:01Z</time>
      </trkpt>
      <trkpt lat="45.96785" lon="3.62493">
        <ele>828.49</ele>
        <time>2015-06-13T14:05:12Z</time>
      </trkpt>
      <trkpt lat="45.96775" lon="3.62517">
        <ele>830.43</ele>
        <time>2015-06-13T14:05:23Z</time>
      </trkpt>
      <trkpt lat="45.96766" lon="3.6254">
        <ele>832.3</ele>
        <time>2015-06-13T14:05:35Z</time>
      </trkpt>
      <trkpt lat="45.96756" lon="3.62564">
        <ele>834.43</ele>
        <time>2015-06-13T14:05:48Z</time>
      </trkpt>
      <trkpt lat="45.96746" lon="3.62587">
        <ele>836.43</ele>
        <time>2015-06-13T14:06:03Z</time>
      </trkpt>
      <trkpt lat="45.96735" lon="3.62611">
        <ele>837.55</ele>
        <time>2015-06-13T14:06:19Z</time>
      </trkpt>
      <trkpt lat="45.96724" lon="3.62633">
        <ele>838.55</ele>
        <time>2015-06-13T14:06:35Z</time>
      </trkpt>
      <trkpt lat="45.96717" lon="3.62658">
        <ele>838.55</ele>
        <time>2015-06-13T14:06:50Z</time>
      </trkpt>
      <trkpt lat="45.96717" lon="3.62686">
        <ele>838.55</ele>
        <time>2015-06-13T14:07:06Z</time>
      </trkpt>
      <trkpt lat="45.96716" lon="3.62714">
        <ele>838.55</ele>
        <time>2015-06-13T14:07:20Z</time>
      </trkpt>
      <trkpt lat="45.96701" lon="3.6277">
        <ele>838.55</ele>
        <time>2015-06-13T14:07:34Z</time>
      </trkpt>
      <trkpt lat="45.96694" lon="3.62793">
        <ele>841.91</ele>
        <time>2015-06-13T14:07:44Z</time>
      </trkpt>
      <trkpt lat="45.96674" lon="3.628">
        <ele>846.89</ele>
        <time>2015-06-13T14:07:54Z</time>
      </trkpt>
      <trkpt lat="45.96656" lon="3.62811">
        <ele>848.41</ele>
        <time>2015-06-13T14:07:59Z</time>
      </trkpt>
      <trkpt lat="45.96637" lon="3.62817">
        <ele>850.02</ele>
        <time>2015-06-13T14:08:04Z</time>
      </trkpt>
      <trkpt lat="45.96615" lon="3.62813">
        <ele>851.29</ele>
        <time>2015-06-13T14:08:09Z</time>
      </trkpt>
      <trkpt lat="45.96596" lon="3.62811">
        <ele>852.29</ele>
        <time>2015-06-13T14:08:14Z</time>
      </trkpt>
      <trkpt lat="45.96577" lon="3.62811">
        <ele>852.55</ele>
        <time>2015-06-13T14:08:20Z</time>
      </trkpt>
      <trkpt lat="45.96558" lon="3.62813">
        <ele>852.55</ele>
        <time>2015-06-13T14:08:29Z</time>
      </trkpt>
      <trkpt lat="45.9654" lon="3.62815">
        <ele>852.55</ele>
        <time>2015-06-13T14:08:44Z</time>
      </trkpt>
      <trkpt lat="45.96522" lon="3.62813">
        <ele>852.55</ele>
        <time>2015-06-13T14:09:02Z</time>
      </trkpt>
      <trkpt lat="45.96504" lon="3.62811">
        <ele>851.55</ele>
        <time>2015-06-13T14:09:17Z</time>
      </trkpt>
      <trkpt lat="45.96486" lon="3.62808">
        <ele>850.55</ele>
        <time>2015-06-13T14:09:30Z</time>
      </trkpt>
      <trkpt lat="45.96466" lon="3.62808">
        <ele>849.56</ele>
        <time>2015-06-13T14:09:43Z</time>
      </trkpt>
      <trkpt lat="45.96446" lon="3.62808">
        <ele>848.62</ele>
        <time>2015-06-13T14:09:53Z</time>
      </trkpt>
      <trkpt lat="45.96426" lon="3.62813">
        <ele>847.62</ele>
        <time>2015-06-13T14:10:01Z</time>
      </trkpt>
      <trkpt lat="45.96407" lon="3.62817">
        <ele>846.56</ele>
        <time>2015-06-13T14:10:09Z</time>
      </trkpt>
      <trkpt lat="45.96389" lon="3.62817">
        <ele>846.55</ele>
        <time>2015-06-13T14:10:19Z</time>
      </trkpt>
      <trkpt lat="45.96371" lon="3.62815">
        <ele>846.55</ele>
        <time>2015-06-13T14:10:30Z</time>
      </trkpt>
      <trkpt lat="45.96352" lon="3.62813">
        <ele>847.54</ele>
        <time>2015-06-13T14:10:44Z</time>
      </trkpt>
      <trkpt lat="45.96334" lon="3.62817">
        <ele>851.04</ele>
        <time>2015-06-13T14:11:02Z</time>
      </trkpt>
      <trkpt lat="45.96316" lon="3.62826">
        <ele>853.3</ele>
        <time>2015-06-13T14:11:18Z</time>
      </trkpt>
      <trkpt lat="45.963" lon="3.62841">
        <ele>855.05</ele>
        <time>2015-06-13T14:11:32Z</time>
      </trkpt>
      <trkpt lat="45.96287" lon="3.62862">
        <ele>856.55</ele>
        <time>2015-06-13T14:11:47Z</time>
      </trkpt>
      <trkpt lat="45.96271" lon="3.62877">
        <ele>855.56</ele>
        <time>2015-06-13T14:12:01Z</time>
      </trkpt>
      <trkpt lat="45.96256" lon="3.62894">
        <ele>856.43</ele>
        <time>2015-06-13T14:12:13Z</time>
      </trkpt>
      <trkpt lat="45.96241" lon="3.62909">
        <ele>857.54</ele>
        <time>2015-06-13T14:12:23Z</time>
      </trkpt>
      <trkpt lat="45.96225" lon="3.62922">
        <ele>859.3</ele>
        <time>2015-06-13T14:12:33Z</time>
      </trkpt>
      <trkpt lat="45.96209" lon="3.62937">
        <ele>860.52</ele>
        <time>2015-06-13T14:12:43Z</time>
      </trkpt>
      <trkpt lat="45.96194" lon="3.62952">
        <ele>862.43</ele>
        <time>2015-06-13T14:12:53Z</time>
      </trkpt>
      <trkpt lat="45.96177" lon="3.62965">
        <ele>864.52</ele>
        <time>2015-06-13T14:13:06Z</time>
      </trkpt>
      <trkpt lat="45.9616" lon="3.62978">
        <ele>867.42</ele>
        <time>2015-06-13T14:13:19Z</time>
      </trkpt>
      <trkpt lat="45.96143" lon="3.62987">
        <ele>869.52</ele>
        <time>2015-06-13T14:13:31Z</time>
      </trkpt>
      <trkpt lat="45.96125" lon="3.62993">
        <ele>871.3</ele>
        <time>2015-06-13T14:13:41Z</time>
      </trkpt>
      <trkpt lat="45.96108" lon="3.63004">
        <ele>873.3</ele>
        <time>2015-06-13T14:13:54Z</time>
      </trkpt>
      <trkpt lat="45.96093" lon="3.63019">
        <ele>875.52</ele>
        <time>2015-06-13T14:14:49Z</time>
      </trkpt>
      <trkpt lat="45.96075" lon="3.63012">
        <ele>877.42</ele>
        <time>2015-06-13T14:14:58Z</time>
      </trkpt>
      <trkpt lat="45.96055" lon="3.6301">
        <ele>879.29</ele>
        <time>2015-06-13T14:15:07Z</time>
      </trkpt>
      <trkpt lat="45.96036" lon="3.63008">
        <ele>881.49</ele>
        <time>2015-06-13T14:15:14Z</time>
      </trkpt>
      <trkpt lat="45.96018" lon="3.63002">
        <ele>883.39</ele>
        <time>2015-06-13T14:15:19Z</time>
      </trkpt>
      <trkpt lat="45.95999" lon="3.62995">
        <ele>884.49</ele>
        <time>2015-06-13T14:15:26Z</time>
      </trkpt>
      <trkpt lat="45.95986" lon="3.63012">
        <ele>886.55</ele>
        <time>2015-06-13T14:16:32Z</time>
      </trkpt>
      <trkpt lat="45.95975" lon="3.63034">
        <ele>889.43</ele>
        <time>2015-06-13T14:18:09Z</time>
      </trkpt>
      <trkpt lat="45.95966" lon="3.63057">
        <ele>889.55</ele>
        <time>2015-06-13T14:18:18Z</time>
      </trkpt>
      <trkpt lat="45.95955" lon="3.63079">
        <ele>890.55</ele>
        <time>2015-06-13T14:18:28Z</time>
      </trkpt>
      <trkpt lat="45.95942" lon="3.63102">
        <ele>891.3</ele>
        <time>2015-06-13T14:18:36Z</time>
      </trkpt>
      <trkpt lat="45.95946" lon="3.6313">
        <ele>891.55</ele>
        <time>2015-06-13T14:18:42Z</time>
      </trkpt>
      <trkpt lat="45.95961" lon="3.63156">
        <ele>890.68</ele>
        <time>2015-06-13T14:18:46Z</time>
      </trkpt>
      <trkpt lat="45.95978" lon="3.63167">
        <ele>891.07</ele>
        <time>2015-06-13T14:18:49Z</time>
      </trkpt>
      <trkpt lat="45.95996" lon="3.6318">
        <ele>890.12</ele>
        <time>2015-06-13T14:18:52Z</time>
      </trkpt>
      <trkpt lat="45.96017" lon="3.63188">
        <ele>888.87</ele>
        <time>2015-06-13T14:18:55Z</time>
      </trkpt>
      <trkpt lat="45.96039" lon="3.63193">
        <ele>888.09</ele>
        <time>2015-06-13T14:18:58Z</time>
      </trkpt>
      <trkpt lat="45.96061" lon="3.63197">
        <ele>887.62</ele>
        <time>2015-06-13T14:19:01Z</time>
      </trkpt>
      <trkpt lat="45.9608" lon="3.63199">
        <ele>887.56</ele>
        <time>2015-06-13T14:19:04Z</time>
      </trkpt>
      <trkpt lat="45.96101" lon="3.63214">
        <ele>887.55</ele>
        <time>2015-06-13T14:19:07Z</time>
      </trkpt>
      <trkpt lat="45.96116" lon="3.63235">
        <ele>887.55</ele>
        <time>2015-06-13T14:19:10Z</time>
      </trkpt>
      <trkpt lat="45.96127" lon="3.63259">
        <ele>888.3</ele>
        <time>2015-06-13T14:19:14Z</time>
      </trkpt>
      <trkpt lat="45.96135" lon="3.63287">
        <ele>886.55</ele>
        <time>2015-06-13T14:19:49Z</time>
      </trkpt>
      <trkpt lat="45.96126" lon="3.63311">
        <ele>883.69</ele>
        <time>2015-06-13T14:19:58Z</time>
      </trkpt>
      <trkpt lat="45.96116" lon="3.63338">
        <ele>882.06</ele>
        <time>2015-06-13T14:20:08Z</time>
      </trkpt>
      <trkpt lat="45.9611" lon="3.63364">
        <ele>881.05</ele>
        <time>2015-06-13T14:20:17Z</time>
      </trkpt>
      <trkpt lat="45.9611" lon="3.63392">
        <ele>880.55</ele>
        <time>2015-06-13T14:20:26Z</time>
      </trkpt>
      <trkpt lat="45.96115" lon="3.6342">
        <ele>880.55</ele>
        <time>2015-06-13T14:20:36Z</time>
      </trkpt>
      <trkpt lat="45.96123" lon="3.63448">
        <ele>881.49</ele>
        <time>2015-06-13T14:20:43Z</time>
      </trkpt>
      <trkpt lat="45.96133" lon="3.63474">
        <ele>881.55</ele>
        <time>2015-06-13T14:20:49Z</time>
      </trkpt>
      <trkpt lat="45.96143" lon="3.63497">
        <ele>881.55</ele>
        <time>2015-06-13T14:20:55Z</time>
      </trkpt>
      <trkpt lat="45.96152" lon="3.63521">
        <ele>881.55</ele>
        <time>2015-06-13T14:21:02Z</time>
      </trkpt>
      <trkpt lat="45.96159" lon="3.63547">
        <ele>881.55</ele>
        <time>2015-06-13T14:21:09Z</time>
      </trkpt>
      <trkpt lat="45.96168" lon="3.6357">
        <ele>881.55</ele>
        <time>2015-06-13T14:21:16Z</time>
      </trkpt>
      <trkpt lat="45.96175" lon="3.63596">
        <ele>882.49</ele>
        <time>2015-06-13T14:21:24Z</time>
      </trkpt>
      <trkpt lat="45.96186" lon="3.63632">
        <ele>883.55</ele>
        <time>2015-06-13T14:21:35Z</time>
      </trkpt>
      <trkpt lat="45.96192" lon="3.63658">
        <ele>883.55</ele>
        <time>2015-06-13T14:21:44Z</time>
      </trkpt>
      <trkpt lat="45.96192" lon="3.63686">
        <ele>884.55</ele>
        <time>2015-06-13T14:21:59Z</time>
      </trkpt>
      <trkpt lat="45.9619" lon="3.63716">
        <ele>886.05</ele>
        <time>2015-06-13T14:22:12Z</time>
      </trkpt>
      <trkpt lat="45.96193" lon="3.63742">
        <ele>889.48</ele>
        <time>2015-06-13T14:22:23Z</time>
      </trkpt>
      <trkpt lat="45.96193" lon="3.6377">
        <ele>892.49</ele>
        <time>2015-06-13T14:22:36Z</time>
      </trkpt>
      <trkpt lat="45.96187" lon="3.63796">
        <ele>895.04</ele>
        <time>2015-06-13T14:22:48Z</time>
      </trkpt>
      <trkpt lat="45.96181" lon="3.63821">
        <ele>896.54</ele>
        <time>2015-06-13T14:22:59Z</time>
      </trkpt>
      <trkpt lat="45.96182" lon="3.63849">
        <ele>898.43</ele>
        <time>2015-06-13T14:23:11Z</time>
      </trkpt>
      <trkpt lat="45.9618" lon="3.63875">
        <ele>899.55</ele>
        <time>2015-06-13T14:23:25Z</time>
      </trkpt>
      <trkpt lat="45.96172" lon="3.63901">
        <ele>900.55</ele>
        <time>2015-06-13T14:23:40Z</time>
      </trkpt>
      <trkpt lat="45.96157" lon="3.6392">
        <ele>900.55</ele>
        <time>2015-06-13T14:23:50Z</time>
      </trkpt>
      <trkpt lat="45.96141" lon="3.63937">
        <ele>900.55</ele>
        <time>2015-06-13T14:24:00Z</time>
      </trkpt>
      <trkpt lat="45.96125" lon="3.6395">
        <ele>901.05</ele>
        <time>2015-06-13T14:24:07Z</time>
      </trkpt>
      <trkpt lat="45.96109" lon="3.63963">
        <ele>902.3</ele>
        <time>2015-06-13T14:24:13Z</time>
      </trkpt>
      <trkpt lat="45.96093" lon="3.63978">
        <ele>903.43</ele>
        <time>2015-06-13T14:24:21Z</time>
      </trkpt>
      <trkpt lat="45.96076" lon="3.63993">
        <ele>904.05</ele>
        <time>2015-06-13T14:24:30Z</time>
      </trkpt>
      <trkpt lat="45.96057" lon="3.64006">
        <ele>904.55</ele>
        <time>2015-06-13T14:24:40Z</time>
      </trkpt>
      <trkpt lat="45.9604" lon="3.64019">
        <ele>905.3</ele>
        <time>2015-06-13T14:24:49Z</time>
      </trkpt>
      <trkpt lat="45.96021" lon="3.64032">
        <ele>905.55</ele>
        <time>2015-06-13T14:24:57Z</time>
      </trkpt>
      <trkpt lat="45.96004" lon="3.64042">
        <ele>905.55</ele>
        <time>2015-06-13T14:25:04Z</time>
      </trkpt>
      <trkpt lat="45.95987" lon="3.64057">
        <ele>905.55</ele>
        <time>2015-06-13T14:25:13Z</time>
      </trkpt>
      <trkpt lat="45.95972" lon="3.64072">
        <ele>905.55</ele>
        <time>2015-06-13T14:25:22Z</time>
      </trkpt>
      <trkpt lat="45.95959" lon="3.64092">
        <ele>905.55</ele>
        <time>2015-06-13T14:25:29Z</time>
      </trkpt>
      <trkpt lat="45.95944" lon="3.64111">
        <ele>904.56</ele>
        <time>2015-06-13T14:25:38Z</time>
      </trkpt>
      <trkpt lat="45.95929" lon="3.64128">
        <ele>905.54</ele>
        <time>2015-06-13T14:25:46Z</time>
      </trkpt>
      <trkpt lat="45.95913" lon="3.64143">
        <ele>905.55</ele>
        <time>2015-06-13T14:25:54Z</time>
      </trkpt>
      <trkpt lat="45.95899" lon="3.64162">
        <ele>905.55</ele>
        <time>2015-06-13T14:26:02Z</time>
      </trkpt>
      <trkpt lat="45.95886" lon="3.64186">
        <ele>906.54</ele>
        <time>2015-06-13T14:26:09Z</time>
      </trkpt>
      <trkpt lat="45.95871" lon="3.64205">
        <ele>906.55</ele>
        <time>2015-06-13T14:26:16Z</time>
      </trkpt>
      <trkpt lat="45.95856" lon="3.64227">
        <ele>906.74</ele>
        <time>2015-06-13T14:26:20Z</time>
      </trkpt>
      <trkpt lat="45.95841" lon="3.64246">
        <ele>906.58</ele>
        <time>2015-06-13T14:26:23Z</time>
      </trkpt>
      <trkpt lat="45.95826" lon="3.6427">
        <ele>906.55</ele>
        <time>2015-06-13T14:26:27Z</time>
      </trkpt>
      <trkpt lat="45.95818" lon="3.64298">
        <ele>907.05</ele>
        <time>2015-06-13T14:26:31Z</time>
      </trkpt>
      <trkpt lat="45.95811" lon="3.64328">
        <ele>907.52</ele>
        <time>2015-06-13T14:26:35Z</time>
      </trkpt>
      <trkpt lat="45.95806" lon="3.64356">
        <ele>907.55</ele>
        <time>2015-06-13T14:26:39Z</time>
      </trkpt>
      <trkpt lat="45.95802" lon="3.64383">
        <ele>907.55</ele>
        <time>2015-06-13T14:26:43Z</time>
      </trkpt>
      <trkpt lat="45.95799" lon="3.64416">
        <ele>908.49</ele>
        <time>2015-06-13T14:26:47Z</time>
      </trkpt>
      <trkpt lat="45.95793" lon="3.64441">
        <ele>907.17</ele>
        <time>2015-06-13T14:26:51Z</time>
      </trkpt>
      <trkpt lat="45.95791" lon="3.64471">
        <ele>903.72</ele>
        <time>2015-06-13T14:26:55Z</time>
      </trkpt>
      <trkpt lat="45.95787" lon="3.64501">
        <ele>900.2</ele>
        <time>2015-06-13T14:26:58Z</time>
      </trkpt>
      <trkpt lat="45.95781" lon="3.64532">
        <ele>899.59</ele>
        <time>2015-06-13T14:27:02Z</time>
      </trkpt>
      <trkpt lat="45.95765" lon="3.64557">
        <ele>900.55</ele>
        <time>2015-06-13T14:27:12Z</time>
      </trkpt>
      <trkpt lat="45.95746" lon="3.6457">
        <ele>900.55</ele>
        <time>2015-06-13T14:27:20Z</time>
      </trkpt>
      <trkpt lat="45.95728" lon="3.64574">
        <ele>899.8</ele>
        <time>2015-06-13T14:27:28Z</time>
      </trkpt>
      <trkpt lat="45.9571" lon="3.64579">
        <ele>898.8</ele>
        <time>2015-06-13T14:27:36Z</time>
      </trkpt>
      <trkpt lat="45.9569" lon="3.64592">
        <ele>896.57</ele>
        <time>2015-06-13T14:27:47Z</time>
      </trkpt>
      <trkpt lat="45.9568" lon="3.64617">
        <ele>894.07</ele>
        <time>2015-06-13T14:27:56Z</time>
      </trkpt>
      <trkpt lat="45.9566" lon="3.6463">
        <ele>892.07</ele>
        <time>2015-06-13T14:28:06Z</time>
      </trkpt>
      <trkpt lat="45.95641" lon="3.64639">
        <ele>890.57</ele>
        <time>2015-06-13T14:28:15Z</time>
      </trkpt>
      <trkpt lat="45.95622" lon="3.64639">
        <ele>889.58</ele>
        <time>2015-06-13T14:28:23Z</time>
      </trkpt>
      <trkpt lat="45.95601" lon="3.64639">
        <ele>889.55</ele>
        <time>2015-06-13T14:28:30Z</time>
      </trkpt>
      <trkpt lat="45.95579" lon="3.64641">
        <ele>889.55</ele>
        <time>2015-06-13T14:28:36Z</time>
      </trkpt>
      <trkpt lat="45.95559" lon="3.64641">
        <ele>889.55</ele>
        <time>2015-06-13T14:28:41Z</time>
      </trkpt>
      <trkpt lat="45.95535" lon="3.64639">
        <ele>889.55</ele>
        <time>2015-06-13T14:28:44Z</time>
      </trkpt>
      <trkpt lat="45.95511" lon="3.64639">
        <ele>889.55</ele>
        <time>2015-06-13T14:28:46Z</time>
      </trkpt>
      <trkpt lat="45.95491" lon="3.64635">
        <ele>888.8</ele>
        <time>2015-06-13T14:28:48Z</time>
      </trkpt>
      <trkpt lat="45.95467" lon="3.6463">
        <ele>888.05</ele>
        <time>2015-06-13T14:31:47Z</time>
      </trkpt>
      <trkpt lat="45.95448" lon="3.64635">
        <ele>886.62</ele>
        <time>2015-06-13T14:31:53Z</time>
      </trkpt>
      <trkpt lat="45.9543" lon="3.64639">
        <ele>886.55</ele>
        <time>2015-06-13T14:32:01Z</time>
      </trkpt>
      <trkpt lat="45.95412" lon="3.64639">
        <ele>886.55</ele>
        <time>2015-06-13T14:32:09Z</time>
      </trkpt>
      <trkpt lat="45.95393" lon="3.64639">
        <ele>885.56</ele>
        <time>2015-06-13T14:32:16Z</time>
      </trkpt>
      <trkpt lat="45.95375" lon="3.64637">
        <ele>886.3</ele>
        <time>2015-06-13T14:32:22Z</time>
      </trkpt>
      <trkpt lat="45.95356" lon="3.64641">
        <ele>886.55</ele>
        <time>2015-06-13T14:32:29Z</time>
      </trkpt>
      <trkpt lat="45.95336" lon="3.64652">
        <ele>886.55</ele>
        <time>2015-06-13T14:32:39Z</time>
      </trkpt>
      <trkpt lat="45.95316" lon="3.64652">
        <ele>886.55</ele>
        <time>2015-06-13T14:32:47Z</time>
      </trkpt>
      <trkpt lat="45.95298" lon="3.64658">
        <ele>886.55</ele>
        <time>2015-06-13T14:32:56Z</time>
      </trkpt>
      <trkpt lat="45.9528" lon="3.6466">
        <ele>886.55</ele>
        <time>2015-06-13T14:33:06Z</time>
      </trkpt>
      <trkpt lat="45.9526" lon="3.64665">
        <ele>887.55</ele>
        <time>2015-06-13T14:33:15Z</time>
      </trkpt>
      <trkpt lat="45.95239" lon="3.64662">
        <ele>888.93</ele>
        <time>2015-06-13T14:33:21Z</time>
      </trkpt>
      <trkpt lat="45.95219" lon="3.6465">
        <ele>890.26</ele>
        <time>2015-06-13T14:33:25Z</time>
      </trkpt>
      <trkpt lat="45.95201" lon="3.64645">
        <ele>890.52</ele>
        <time>2015-06-13T14:33:28Z</time>
      </trkpt>
      <trkpt lat="45.95183" lon="3.6465">
        <ele>890.55</ele>
        <time>2015-06-13T14:33:31Z</time>
      </trkpt>
      <trkpt lat="45.95165" lon="3.64654">
        <ele>890.55</ele>
        <time>2015-06-13T14:33:35Z</time>
      </trkpt>
      <trkpt lat="45.95145" lon="3.64656">
        <ele>890.05</ele>
        <time>2015-06-13T14:36:27Z</time>
      </trkpt>
      <trkpt lat="45.95125" lon="3.6465">
        <ele>889.57</ele>
        <time>2015-06-13T14:36:32Z</time>
      </trkpt>
      <trkpt lat="45.95105" lon="3.6465">
        <ele>889.55</ele>
        <time>2015-06-13T14:36:38Z</time>
      </trkpt>
      <trkpt lat="45.95084" lon="3.6465">
        <ele>889.55</ele>
        <time>2015-06-13T14:36:44Z</time>
      </trkpt>
      <trkpt lat="45.95065" lon="3.64652">
        <ele>889.55</ele>
        <time>2015-06-13T14:36:49Z</time>
      </trkpt>
      <trkpt lat="45.95047" lon="3.64652">
        <ele>889.55</ele>
        <time>2015-06-13T14:36:54Z</time>
      </trkpt>
      <trkpt lat="45.95027" lon="3.64647">
        <ele>890.49</ele>
        <time>2015-06-13T14:36:59Z</time>
      </trkpt>
      <trkpt lat="45.95007" lon="3.64637">
        <ele>890.55</ele>
        <time>2015-06-13T14:37:04Z</time>
      </trkpt>
      <trkpt lat="45.9499" lon="3.64622">
        <ele>892.24</ele>
        <time>2015-06-13T14:37:08Z</time>
      </trkpt>
      <trkpt lat="45.94972" lon="3.64607">
        <ele>893.47</ele>
        <time>2015-06-13T14:37:12Z</time>
      </trkpt>
      <trkpt lat="45.94951" lon="3.64592">
        <ele>893.55</ele>
        <time>2015-06-13T14:37:16Z</time>
      </trkpt>
      <trkpt lat="45.94934" lon="3.6457">
        <ele>894.43</ele>
        <time>2015-06-13T14:37:19Z</time>
      </trkpt>
      <trkpt lat="45.94915" lon="3.64544">
        <ele>896.16</ele>
        <time>2015-06-13T14:37:22Z</time>
      </trkpt>
      <trkpt lat="45.94902" lon="3.64525">
        <ele>897.71</ele>
        <time>2015-06-13T14:37:24Z</time>
      </trkpt>
      <trkpt lat="45.94883" lon="3.64499">
        <ele>899.2</ele>
        <time>2015-06-13T14:37:27Z</time>
      </trkpt>
      <trkpt lat="45.94864" lon="3.64471">
        <ele>900.38</ele>
        <time>2015-06-13T14:37:30Z</time>
      </trkpt>
      <trkpt lat="45.94854" lon="3.64448">
        <ele>900.51</ele>
        <time>2015-06-13T14:37:32Z</time>
      </trkpt>
      <trkpt lat="45.94841" lon="3.64426">
        <ele>900.04</ele>
        <time>2015-06-13T14:37:34Z</time>
      </trkpt>
      <trkpt lat="45.94829" lon="3.64405">
        <ele>899.18</ele>
        <time>2015-06-13T14:37:36Z</time>
      </trkpt>
      <trkpt lat="45.94815" lon="3.64379">
        <ele>896.63</ele>
        <time>2015-06-13T14:37:39Z</time>
      </trkpt>
      <trkpt lat="45.94801" lon="3.64358">
        <ele>893.93</ele>
        <time>2015-06-13T14:37:43Z</time>
      </trkpt>
      <trkpt lat="45.94782" lon="3.64349">
        <ele>889.68</ele>
        <time>2015-06-13T14:38:37Z</time>
      </trkpt>
      <trkpt lat="45.94764" lon="3.64347">
        <ele>886.9</ele>
        <time>2015-06-13T14:38:42Z</time>
      </trkpt>
      <trkpt lat="45.94745" lon="3.64351">
        <ele>884.1</ele>
        <time>2015-06-13T14:38:49Z</time>
      </trkpt>
      <trkpt lat="45.94728" lon="3.6436">
        <ele>881.18</ele>
        <time>2015-06-13T14:38:56Z</time>
      </trkpt>
      <trkpt lat="45.9471" lon="3.64366">
        <ele>878.14</ele>
        <time>2015-06-13T14:39:02Z</time>
      </trkpt>
      <trkpt lat="45.94693" lon="3.64386">
        <ele>875.84</ele>
        <time>2015-06-13T14:39:08Z</time>
      </trkpt>
      <trkpt lat="45.94677" lon="3.64403">
        <ele>873.81</ele>
        <time>2015-06-13T14:39:14Z</time>
      </trkpt>
      <trkpt lat="45.94663" lon="3.6442">
        <ele>871.14</ele>
        <time>2015-06-13T14:39:20Z</time>
      </trkpt>
      <trkpt lat="45.9465" lon="3.64444">
        <ele>868.71</ele>
        <time>2015-06-13T14:39:27Z</time>
      </trkpt>
      <trkpt lat="45.94638" lon="3.64478">
        <ele>865.57</ele>
        <time>2015-06-13T14:39:39Z</time>
      </trkpt>
      <trkpt lat="45.94632" lon="3.64504">
        <ele>863.06</ele>
        <time>2015-06-13T14:39:52Z</time>
      </trkpt>
      <trkpt lat="45.94638" lon="3.64544">
        <ele>859.08</ele>
        <time>2015-06-13T14:40:10Z</time>
      </trkpt>
      <trkpt lat="45.94647" lon="3.64572">
        <ele>857.87</ele>
        <time>2015-06-13T14:40:13Z</time>
      </trkpt>
      <trkpt lat="45.94654" lon="3.646">
        <ele>855.89</ele>
        <time>2015-06-13T14:40:17Z</time>
      </trkpt>
      <trkpt lat="45.94658" lon="3.64626">
        <ele>855.56</ele>
        <time>2015-06-13T14:40:22Z</time>
      </trkpt>
      <trkpt lat="45.94659" lon="3.64656">
        <ele>855.55</ele>
        <time>2015-06-13T14:40:30Z</time>
      </trkpt>
      <trkpt lat="45.94657" lon="3.64684">
        <ele>857.04</ele>
        <time>2015-06-13T14:40:39Z</time>
      </trkpt>
      <trkpt lat="45.94654" lon="3.64714">
        <ele>858.04</ele>
        <time>2015-06-13T14:40:44Z</time>
      </trkpt>
      <trkpt lat="45.9465" lon="3.64744">
        <ele>861.24</ele>
        <time>2015-06-13T14:40:47Z</time>
      </trkpt>
      <trkpt lat="45.94652" lon="3.64772">
        <ele>868.39</ele>
        <time>2015-06-13T14:40:50Z</time>
      </trkpt>
      <trkpt lat="45.94658" lon="3.64798">
        <ele>873.78</ele>
        <time>2015-06-13T14:40:53Z</time>
      </trkpt>
      <trkpt lat="45.94667" lon="3.64828">
        <ele>878</ele>
        <time>2015-06-13T14:40:57Z</time>
      </trkpt>
      <trkpt lat="45.94677" lon="3.6486">
        <ele>879.53</ele>
        <time>2015-06-13T14:41:03Z</time>
      </trkpt>
      <trkpt lat="45.94689" lon="3.64886">
        <ele>880.05</ele>
        <time>2015-06-13T14:41:10Z</time>
      </trkpt>
      <trkpt lat="45.94693" lon="3.64911">
        <ele>880.52</ele>
        <time>2015-06-13T14:41:14Z</time>
      </trkpt>
      <trkpt lat="45.94684" lon="3.64941">
        <ele>880.05</ele>
        <time>2015-06-13T14:41:19Z</time>
      </trkpt>
      <trkpt lat="45.94672" lon="3.64963">
        <ele>878.87</ele>
        <time>2015-06-13T14:41:22Z</time>
      </trkpt>
      <trkpt lat="45.94647" lon="3.64978">
        <ele>880.55</ele>
        <time>2015-06-13T14:43:37Z</time>
      </trkpt>
      <trkpt lat="45.9463" lon="3.64995">
        <ele>881.55</ele>
        <time>2015-06-13T14:43:48Z</time>
      </trkpt>
      <trkpt lat="45.94613" lon="3.65004">
        <ele>882.55</ele>
        <time>2015-06-13T14:44:03Z</time>
      </trkpt>
      <trkpt lat="45.94595" lon="3.64997">
        <ele>884.55</ele>
        <time>2015-06-13T14:44:39Z</time>
      </trkpt>
      <trkpt lat="45.94578" lon="3.64989">
        <ele>885.55</ele>
        <time>2015-06-13T14:45:02Z</time>
      </trkpt>
      <trkpt lat="45.94559" lon="3.64984">
        <ele>886.55</ele>
        <time>2015-06-13T14:45:22Z</time>
      </trkpt>
      <trkpt lat="45.9454" lon="3.6498">
        <ele>887.55</ele>
        <time>2015-06-13T14:45:38Z</time>
      </trkpt>
      <trkpt lat="45.94523" lon="3.64969">
        <ele>887.54</ele>
        <time>2015-06-13T14:47:24Z</time>
      </trkpt>
      <trkpt lat="45.94504" lon="3.64963">
        <ele>888.3</ele>
        <time>2015-06-13T14:47:28Z</time>
      </trkpt>
      <trkpt lat="45.94485" lon="3.64961">
        <ele>890.35</ele>
        <time>2015-06-13T14:47:32Z</time>
      </trkpt>
      <trkpt lat="45.94464" lon="3.64961">
        <ele>891.53</ele>
        <time>2015-06-13T14:47:38Z</time>
      </trkpt>
      <trkpt lat="45.94445" lon="3.64963">
        <ele>891.55</ele>
        <time>2015-06-13T14:47:44Z</time>
      </trkpt>
      <trkpt lat="45.9442" lon="3.64974">
        <ele>890.58</ele>
        <time>2015-06-13T14:47:53Z</time>
      </trkpt>
      <trkpt lat="45.94403" lon="3.64982">
        <ele>890.55</ele>
        <time>2015-06-13T14:47:59Z</time>
      </trkpt>
      <trkpt lat="45.94382" lon="3.64995">
        <ele>890.55</ele>
        <time>2015-06-13T14:48:07Z</time>
      </trkpt>
      <trkpt lat="45.94364" lon="3.65004">
        <ele>889.68</ele>
        <time>2015-06-13T14:48:13Z</time>
      </trkpt>
      <trkpt lat="45.94343" lon="3.65016">
        <ele>890.05</ele>
        <time>2015-06-13T14:48:22Z</time>
      </trkpt>
      <trkpt lat="45.94325" lon="3.65027">
        <ele>893.02</ele>
        <time>2015-06-13T14:48:32Z</time>
      </trkpt>
      <trkpt lat="45.94305" lon="3.65034">
        <ele>896.04</ele>
        <time>2015-06-13T14:48:44Z</time>
      </trkpt>
      <trkpt lat="45.9428" lon="3.65042">
        <ele>900.04</ele>
        <time>2015-06-13T14:48:59Z</time>
      </trkpt>
      <trkpt lat="45.94261" lon="3.65042">
        <ele>902.29</ele>
        <time>2015-06-13T14:49:09Z</time>
      </trkpt>
      <trkpt lat="45.94242" lon="3.6504">
        <ele>903.43</ele>
        <time>2015-06-13T14:49:18Z</time>
      </trkpt>
      <trkpt lat="45.94224" lon="3.6504">
        <ele>904.05</ele>
        <time>2015-06-13T14:49:26Z</time>
      </trkpt>
      <trkpt lat="45.94206" lon="3.65038">
        <ele>905.42</ele>
        <time>2015-06-13T14:49:32Z</time>
      </trkpt>
      <trkpt lat="45.94187" lon="3.65042">
        <ele>906.43</ele>
        <time>2015-06-13T14:49:38Z</time>
      </trkpt>
      <trkpt lat="45.94169" lon="3.65051">
        <ele>907.3</ele>
        <time>2015-06-13T14:49:44Z</time>
      </trkpt>
      <trkpt lat="45.94153" lon="3.65074">
        <ele>908.05</ele>
        <time>2015-06-13T14:49:52Z</time>
      </trkpt>
      <trkpt lat="45.94137" lon="3.65094">
        <ele>908.55</ele>
        <time>2015-06-13T14:50:01Z</time>
      </trkpt>
      <trkpt lat="45.94117" lon="3.65102">
        <ele>909.55</ele>
        <time>2015-06-13T14:50:11Z</time>
      </trkpt>
      <trkpt lat="45.94093" lon="3.65117">
        <ele>910.55</ele>
        <time>2015-06-13T14:50:28Z</time>
      </trkpt>
      <trkpt lat="45.9409" lon="3.65143">
        <ele>911.55</ele>
        <time>2015-06-13T14:51:45Z</time>
      </trkpt>
      <trkpt lat="45.94079" lon="3.65165">
        <ele>914.52</ele>
        <time>2015-06-13T14:52:01Z</time>
      </trkpt>
      <trkpt lat="45.94066" lon="3.65184">
        <ele>916.54</ele>
        <time>2015-06-13T14:52:15Z</time>
      </trkpt>
      <trkpt lat="45.94052" lon="3.65203">
        <ele>917.55</ele>
        <time>2015-06-13T14:52:26Z</time>
      </trkpt>
      <trkpt lat="45.94038" lon="3.65222">
        <ele>919.3</ele>
        <time>2015-06-13T14:52:39Z</time>
      </trkpt>
      <trkpt lat="45.94029" lon="3.65248">
        <ele>921.02</ele>
        <time>2015-06-13T14:52:49Z</time>
      </trkpt>
      <trkpt lat="45.94019" lon="3.65274">
        <ele>922.91</ele>
        <time>2015-06-13T14:52:54Z</time>
      </trkpt>
      <trkpt lat="45.9401" lon="3.65298">
        <ele>924.01</ele>
        <time>2015-06-13T14:52:58Z</time>
      </trkpt>
      <trkpt lat="45.94007" lon="3.65323">
        <ele>925.29</ele>
        <time>2015-06-13T14:53:03Z</time>
      </trkpt>
      <trkpt lat="45.94013" lon="3.65349">
        <ele>926.55</ele>
        <time>2015-06-13T14:53:20Z</time>
      </trkpt>
      <trkpt lat="45.9401" lon="3.65375">
        <ele>927.55</ele>
        <time>2015-06-13T14:53:50Z</time>
      </trkpt>
      <trkpt lat="45.94029" lon="3.65386">
        <ele>930.52</ele>
        <time>2015-06-13T14:54:38Z</time>
      </trkpt>
      <trkpt lat="45.94043" lon="3.65403">
        <ele>931.43</ele>
        <time>2015-06-13T14:54:44Z</time>
      </trkpt>
      <trkpt lat="45.94058" lon="3.6542">
        <ele>931.55</ele>
        <time>2015-06-13T14:54:50Z</time>
      </trkpt>
      <trkpt lat="45.94074" lon="3.65437">
        <ele>931.55</ele>
        <time>2015-06-13T14:54:57Z</time>
      </trkpt>
      <trkpt lat="45.94089" lon="3.65458">
        <ele>931.55</ele>
        <time>2015-06-13T14:55:05Z</time>
      </trkpt>
      <trkpt lat="45.94103" lon="3.65476">
        <ele>931.55</ele>
        <time>2015-06-13T14:55:12Z</time>
      </trkpt>
      <trkpt lat="45.94118" lon="3.65491">
        <ele>931.55</ele>
        <time>2015-06-13T14:55:19Z</time>
      </trkpt>
      <trkpt lat="45.94133" lon="3.65506">
        <ele>932.49</ele>
        <time>2015-06-13T14:55:26Z</time>
      </trkpt>
      <trkpt lat="45.94149" lon="3.65521">
        <ele>933.3</ele>
        <time>2015-06-13T14:55:34Z</time>
      </trkpt>
      <trkpt lat="45.94164" lon="3.65536">
        <ele>934.05</ele>
        <time>2015-06-13T14:55:41Z</time>
      </trkpt>
      <trkpt lat="45.94182" lon="3.65546">
        <ele>935.43</ele>
        <time>2015-06-13T14:55:50Z</time>
      </trkpt>
      <trkpt lat="45.94201" lon="3.65553">
        <ele>937.3</ele>
        <time>2015-06-13T14:56:00Z</time>
      </trkpt>
      <trkpt lat="45.94221" lon="3.65557">
        <ele>939.42</ele>
        <time>2015-06-13T14:56:11Z</time>
      </trkpt>
      <trkpt lat="45.94239" lon="3.65561">
        <ele>941.29</ele>
        <time>2015-06-13T14:56:19Z</time>
      </trkpt>
      <trkpt lat="45.94256" lon="3.65572">
        <ele>942.52</ele>
        <time>2015-06-13T14:56:27Z</time>
      </trkpt>
      <trkpt lat="45.94272" lon="3.65585">
        <ele>944.42</ele>
        <time>2015-06-13T14:56:35Z</time>
      </trkpt>
      <trkpt lat="45.94288" lon="3.656">
        <ele>946.29</ele>
        <time>2015-06-13T14:56:43Z</time>
      </trkpt>
      <trkpt lat="45.94305" lon="3.65613">
        <ele>948.41</ele>
        <time>2015-06-13T14:56:51Z</time>
      </trkpt>
      <trkpt lat="45.94321" lon="3.6563">
        <ele>951.27</ele>
        <time>2015-06-13T14:57:00Z</time>
      </trkpt>
      <trkpt lat="45.94331" lon="3.65654">
        <ele>953.98</ele>
        <time>2015-06-13T14:57:08Z</time>
      </trkpt>
      <trkpt lat="45.94339" lon="3.65682">
        <ele>956.02</ele>
        <time>2015-06-13T14:57:17Z</time>
      </trkpt>
      <trkpt lat="45.94349" lon="3.65705">
        <ele>958.02</ele>
        <time>2015-06-13T14:57:26Z</time>
      </trkpt>
      <trkpt lat="45.94363" lon="3.65722">
        <ele>960.29</ele>
        <time>2015-06-13T14:57:36Z</time>
      </trkpt>
      <trkpt lat="45.94374" lon="3.65744">
        <ele>962.49</ele>
        <time>2015-06-13T14:57:48Z</time>
      </trkpt>
      <trkpt lat="45.94387" lon="3.65763">
        <ele>964.49</ele>
        <time>2015-06-13T14:57:59Z</time>
      </trkpt>
      <trkpt lat="45.94403" lon="3.65778">
        <ele>966.3</ele>
        <time>2015-06-13T14:58:10Z</time>
      </trkpt>
      <trkpt lat="45.94418" lon="3.65793">
        <ele>967.49</ele>
        <time>2015-06-13T14:58:18Z</time>
      </trkpt>
      <trkpt lat="45.94433" lon="3.65808">
        <ele>968.49</ele>
        <time>2015-06-13T14:58:27Z</time>
      </trkpt>
      <trkpt lat="45.94449" lon="3.65825">
        <ele>969.49</ele>
        <time>2015-06-13T14:58:36Z</time>
      </trkpt>
      <trkpt lat="45.94464" lon="3.6584">
        <ele>970.52</ele>
        <time>2015-06-13T14:58:44Z</time>
      </trkpt>
      <trkpt lat="45.94477" lon="3.6586">
        <ele>971.55</ele>
        <time>2015-06-13T14:58:53Z</time>
      </trkpt>
      <trkpt lat="45.94486" lon="3.65883">
        <ele>972.55</ele>
        <time>2015-06-13T14:59:04Z</time>
      </trkpt>
      <trkpt lat="45.94493" lon="3.65907">
        <ele>974.54</ele>
        <time>2015-06-13T14:59:19Z</time>
      </trkpt>
      <trkpt lat="45.94488" lon="3.65879">
        <ele>981.3</ele>
        <time>2015-06-13T15:01:11Z</time>
      </trkpt>
      <trkpt lat="45.94496" lon="3.65853">
        <ele>982.52</ele>
        <time>2015-06-13T15:01:19Z</time>
      </trkpt>
      <trkpt lat="45.94515" lon="3.65847">
        <ele>984.54</ele>
        <time>2015-06-13T15:01:30Z</time>
      </trkpt>
      <trkpt lat="45.94532" lon="3.65858">
        <ele>989.49</ele>
        <time>2015-06-13T15:01:57Z</time>
      </trkpt>
      <trkpt lat="45.94548" lon="3.6587">
        <ele>993.55</ele>
        <time>2015-06-13T15:02:38Z</time>
      </trkpt>
      <trkpt lat="45.94566" lon="3.65875">
        <ele>996.05</ele>
        <time>2015-06-13T15:03:18Z</time>
      </trkpt>
      <trkpt lat="45.94583" lon="3.65866">
        <ele>997.55</ele>
        <time>2015-06-13T15:03:30Z</time>
      </trkpt>
      <trkpt lat="45.94602" lon="3.65873">
        <ele>998.55</ele>
        <time>2015-06-13T15:03:40Z</time>
      </trkpt>
      <trkpt lat="45.94618" lon="3.65886">
        <ele>999.55</ele>
        <time>2015-06-13T15:03:51Z</time>
      </trkpt>
      <trkpt lat="45.94634" lon="3.65903">
        <ele>1000.55</ele>
        <time>2015-06-13T15:04:01Z</time>
      </trkpt>
      <trkpt lat="45.94651" lon="3.65916">
        <ele>1002.49</ele>
        <time>2015-06-13T15:04:18Z</time>
      </trkpt>
      <trkpt lat="45.94668" lon="3.65924">
        <ele>1005.04</ele>
        <time>2015-06-13T15:04:30Z</time>
      </trkpt>
      <trkpt lat="45.94686" lon="3.65933">
        <ele>1005.55</ele>
        <time>2015-06-13T15:04:39Z</time>
      </trkpt>
      <trkpt lat="45.94705" lon="3.65937">
        <ele>1005.55</ele>
        <time>2015-06-13T15:04:47Z</time>
      </trkpt>
      <trkpt lat="45.94725" lon="3.65939">
        <ele>1006.05</ele>
        <time>2015-06-13T15:04:53Z</time>
      </trkpt>
      <trkpt lat="45.94746" lon="3.65941">
        <ele>1005.77</ele>
        <time>2015-06-13T15:04:57Z</time>
      </trkpt>
      <trkpt lat="45.94766" lon="3.65946">
        <ele>1005.58</ele>
        <time>2015-06-13T15:05:00Z</time>
      </trkpt>
      <trkpt lat="45.94787" lon="3.65943">
        <ele>1005.81</ele>
        <time>2015-06-13T15:05:03Z</time>
      </trkpt>
      <trkpt lat="45.9481" lon="3.65941">
        <ele>1005.58</ele>
        <time>2015-06-13T15:05:06Z</time>
      </trkpt>
      <trkpt lat="45.94829" lon="3.65937">
        <ele>1004.18</ele>
        <time>2015-06-13T15:05:09Z</time>
      </trkpt>
      <trkpt lat="45.94848" lon="3.65928">
        <ele>1003.59</ele>
        <time>2015-06-13T15:05:13Z</time>
      </trkpt>
      <trkpt lat="45.94875" lon="3.65924">
        <ele>1004.05</ele>
        <time>2015-06-13T15:05:21Z</time>
      </trkpt>
      <trkpt lat="45.94898" lon="3.65931">
        <ele>1009.65</ele>
        <time>2015-06-13T15:05:25Z</time>
      </trkpt>
      <trkpt lat="45.94916" lon="3.65941">
        <ele>1013.44</ele>
        <time>2015-06-13T15:05:28Z</time>
      </trkpt>
      <trkpt lat="45.94934" lon="3.65952">
        <ele>1016.17</ele>
        <time>2015-06-13T15:05:32Z</time>
      </trkpt>
      <trkpt lat="45.94952" lon="3.65963">
        <ele>1016.54</ele>
        <time>2015-06-13T15:05:37Z</time>
      </trkpt>
      <trkpt lat="45.94979" lon="3.65961">
        <ele>1016.55</ele>
        <time>2015-06-13T15:05:50Z</time>
      </trkpt>
      <trkpt lat="45.95" lon="3.65952">
        <ele>1015.56</ele>
        <time>2015-06-13T15:06:02Z</time>
      </trkpt>
      <trkpt lat="45.95016" lon="3.65937">
        <ele>1013.57</ele>
        <time>2015-06-13T15:06:11Z</time>
      </trkpt>
      <trkpt lat="45.95033" lon="3.65916">
        <ele>1008.6</ele>
        <time>2015-06-13T15:06:21Z</time>
      </trkpt>
      <trkpt lat="45.95047" lon="3.65894">
        <ele>1004.9</ele>
        <time>2015-06-13T15:06:27Z</time>
      </trkpt>
      <trkpt lat="45.95059" lon="3.6587">
        <ele>998.91</ele>
        <time>2015-06-13T15:06:32Z</time>
      </trkpt>
      <trkpt lat="45.9507" lon="3.65847">
        <ele>984.44</ele>
        <time>2015-06-13T15:06:37Z</time>
      </trkpt>
      <trkpt lat="45.9508" lon="3.65823">
        <ele>982.08</ele>
        <time>2015-06-13T15:06:44Z</time>
      </trkpt>
      <trkpt lat="45.95094" lon="3.65802">
        <ele>974.32</ele>
        <time>2015-06-13T15:06:49Z</time>
      </trkpt>
      <trkpt lat="45.9511" lon="3.65772">
        <ele>974.06</ele>
        <time>2015-06-13T15:06:57Z</time>
      </trkpt>
      <trkpt lat="45.95124" lon="3.65748">
        <ele>971.57</ele>
        <time>2015-06-13T15:08:09Z</time>
      </trkpt>
      <trkpt lat="45.95142" lon="3.65744">
        <ele>968.06</ele>
        <time>2015-06-13T15:08:23Z</time>
      </trkpt>
      <trkpt lat="45.95162" lon="3.65748">
        <ele>966.55</ele>
        <time>2015-06-13T15:08:39Z</time>
      </trkpt>
      <trkpt lat="45.95181" lon="3.65761">
        <ele>969.87</ele>
        <time>2015-06-13T15:09:37Z</time>
      </trkpt>
      <trkpt lat="45.95202" lon="3.65772">
        <ele>972.55</ele>
        <time>2015-06-13T15:09:48Z</time>
      </trkpt>
      <trkpt lat="45.95221" lon="3.65776">
        <ele>975.53</ele>
        <time>2015-06-13T15:09:58Z</time>
      </trkpt>
      <trkpt lat="45.95238" lon="3.65787">
        <ele>978.43</ele>
        <time>2015-06-13T15:10:17Z</time>
      </trkpt>
      <trkpt lat="45.95254" lon="3.658">
        <ele>980.55</ele>
        <time>2015-06-13T15:10:37Z</time>
      </trkpt>
      <trkpt lat="45.95267" lon="3.65819">
        <ele>980.55</ele>
        <time>2015-06-13T15:11:19Z</time>
      </trkpt>
      <trkpt lat="45.95283" lon="3.65832">
        <ele>981.3</ele>
        <time>2015-06-13T15:11:43Z</time>
      </trkpt>
      <trkpt lat="45.953" lon="3.65843">
        <ele>983.49</ele>
        <time>2015-06-13T15:11:55Z</time>
      </trkpt>
      <trkpt lat="45.95315" lon="3.6586">
        <ele>986.29</ele>
        <time>2015-06-13T15:12:04Z</time>
      </trkpt>
      <trkpt lat="45.95327" lon="3.65881">
        <ele>990.97</ele>
        <time>2015-06-13T15:12:15Z</time>
      </trkpt>
      <trkpt lat="45.95338" lon="3.65903">
        <ele>996.02</ele>
        <time>2015-06-13T15:12:31Z</time>
      </trkpt>
      <trkpt lat="45.95346" lon="3.65926">
        <ele>999.49</ele>
        <time>2015-06-13T15:12:51Z</time>
      </trkpt>
      <trkpt lat="45.95347" lon="3.65954">
        <ele>1003.43</ele>
        <time>2015-06-13T15:13:15Z</time>
      </trkpt>
      <trkpt lat="45.95353" lon="3.6598">
        <ele>1005.43</ele>
        <time>2015-06-13T15:13:46Z</time>
      </trkpt>
      <trkpt lat="45.95363" lon="3.66004">
        <ele>1006.55</ele>
        <time>2015-06-13T15:13:58Z</time>
      </trkpt>
      <trkpt lat="45.95376" lon="3.66023">
        <ele>1009.54</ele>
        <time>2015-06-13T15:14:16Z</time>
      </trkpt>
      <trkpt lat="45.95385" lon="3.66046">
        <ele>1012.3</ele>
        <time>2015-06-13T15:14:45Z</time>
      </trkpt>
      <trkpt lat="45.95385" lon="3.66074">
        <ele>1015.55</ele>
        <time>2015-06-13T15:15:06Z</time>
      </trkpt>
      <trkpt lat="45.95383" lon="3.661">
        <ele>1017.54</ele>
        <time>2015-06-13T15:15:36Z</time>
      </trkpt>
      <trkpt lat="45.95389" lon="3.66126">
        <ele>1019.43</ele>
        <time>2015-06-13T15:15:55Z</time>
      </trkpt>
      <trkpt lat="45.95399" lon="3.66149">
        <ele>1022.48</ele>
        <time>2015-06-13T15:16:08Z</time>
      </trkpt>
      <trkpt lat="45.95408" lon="3.66173">
        <ele>1027.47</ele>
        <time>2015-06-13T15:16:25Z</time>
      </trkpt>
      <trkpt lat="45.95406" lon="3.66199">
        <ele>1034.41</ele>
        <time>2015-06-13T15:17:06Z</time>
      </trkpt>
      <trkpt lat="45.95403" lon="3.66225">
        <ele>1036.55</ele>
        <time>2015-06-13T15:17:22Z</time>
      </trkpt>
      <trkpt lat="45.95407" lon="3.6625">
        <ele>1039.3</ele>
        <time>2015-06-13T15:17:43Z</time>
      </trkpt>
      <trkpt lat="45.954" lon="3.66274">
        <ele>1041.49</ele>
        <time>2015-06-13T15:18:04Z</time>
      </trkpt>
      <trkpt lat="45.95385" lon="3.66289">
        <ele>1042.55</ele>
        <time>2015-06-13T15:18:24Z</time>
      </trkpt>
      <trkpt lat="45.95371" lon="3.66308">
        <ele>1043.55</ele>
        <time>2015-06-13T15:18:51Z</time>
      </trkpt>
      <trkpt lat="45.95356" lon="3.66323">
        <ele>1046.52</ele>
        <time>2015-06-13T15:19:23Z</time>
      </trkpt>
      <trkpt lat="45.95343" lon="3.66343">
        <ele>1048.52</ele>
        <time>2015-06-13T15:19:47Z</time>
      </trkpt>
      <trkpt lat="45.95326" lon="3.66353">
        <ele>1050.52</ele>
        <time>2015-06-13T15:20:15Z</time>
      </trkpt>
      <trkpt lat="45.95311" lon="3.6637">
        <ele>1051.43</ele>
        <time>2015-06-13T15:20:36Z</time>
      </trkpt>
      <trkpt lat="45.95297" lon="3.66388">
        <ele>1051.55</ele>
        <time>2015-06-13T15:20:47Z</time>
      </trkpt>
      <trkpt lat="45.95281" lon="3.664">
        <ele>1052.55</ele>
        <time>2015-06-13T15:21:00Z</time>
      </trkpt>
      <trkpt lat="45.9526" lon="3.66407">
        <ele>1051.55</ele>
        <time>2015-06-13T15:21:16Z</time>
      </trkpt>
      <trkpt lat="45.95242" lon="3.66413">
        <ele>1050.56</ele>
        <time>2015-06-13T15:21:24Z</time>
      </trkpt>
      <trkpt lat="45.95224" lon="3.66422">
        <ele>1050.55</ele>
        <time>2015-06-13T15:21:34Z</time>
      </trkpt>
      <trkpt lat="45.95206" lon="3.66431">
        <ele>1051.55</ele>
        <time>2015-06-13T15:21:44Z</time>
      </trkpt>
      <trkpt lat="45.95186" lon="3.66437">
        <ele>1052.3</ele>
        <time>2015-06-13T15:21:54Z</time>
      </trkpt>
      <trkpt lat="45.95176" lon="3.66458">
        <ele>1052.55</ele>
        <time>2015-06-13T15:22:06Z</time>
      </trkpt>
      <trkpt lat="45.95171" lon="3.66484">
        <ele>1053.55</ele>
        <time>2015-06-13T15:22:33Z</time>
      </trkpt>
      <trkpt lat="45.95188" lon="3.66493">
        <ele>1055.55</ele>
        <time>2015-06-13T15:25:56Z</time>
      </trkpt>
      <trkpt lat="45.95198" lon="3.66519">
        <ele>1056.54</ele>
        <time>2015-06-13T15:26:05Z</time>
      </trkpt>
      <trkpt lat="45.9521" lon="3.6654">
        <ele>1058.05</ele>
        <time>2015-06-13T15:26:13Z</time>
      </trkpt>
      <trkpt lat="45.95223" lon="3.66559">
        <ele>1059.3</ele>
        <time>2015-06-13T15:26:20Z</time>
      </trkpt>
      <trkpt lat="45.95238" lon="3.66579">
        <ele>1060.49</ele>
        <time>2015-06-13T15:26:26Z</time>
      </trkpt>
      <trkpt lat="45.95254" lon="3.66596">
        <ele>1061.52</ele>
        <time>2015-06-13T15:26:32Z</time>
      </trkpt>
      <trkpt lat="45.95272" lon="3.66609">
        <ele>1063.29</ele>
        <time>2015-06-13T15:26:38Z</time>
      </trkpt>
      <trkpt lat="45.95288" lon="3.66626">
        <ele>1064.43</ele>
        <time>2015-06-13T15:26:45Z</time>
      </trkpt>
      <trkpt lat="45.95303" lon="3.66645">
        <ele>1065.49</ele>
        <time>2015-06-13T15:26:51Z</time>
      </trkpt>
      <trkpt lat="45.95317" lon="3.66662">
        <ele>1066.52</ele>
        <time>2015-06-13T15:26:57Z</time>
      </trkpt>
      <trkpt lat="45.95335" lon="3.66675">
        <ele>1067.54</ele>
        <time>2015-06-13T15:27:04Z</time>
      </trkpt>
      <trkpt lat="45.95354" lon="3.66682">
        <ele>1068.55</ele>
        <time>2015-06-13T15:27:12Z</time>
      </trkpt>
      <trkpt lat="45.95372" lon="3.66684">
        <ele>1068.55</ele>
        <time>2015-06-13T15:27:20Z</time>
      </trkpt>
      <trkpt lat="45.95392" lon="3.6669">
        <ele>1070.43</ele>
        <time>2015-06-13T15:27:26Z</time>
      </trkpt>
      <trkpt lat="45.9541" lon="3.66697">
        <ele>1074.05</ele>
        <time>2015-06-13T15:27:30Z</time>
      </trkpt>
      <trkpt lat="45.95429" lon="3.66701">
        <ele>1073.77</ele>
        <time>2015-06-13T15:27:34Z</time>
      </trkpt>
      <trkpt lat="45.95448" lon="3.66701">
        <ele>1071.88</ele>
        <time>2015-06-13T15:27:38Z</time>
      </trkpt>
      <trkpt lat="45.95466" lon="3.66701">
        <ele>1071.07</ele>
        <time>2015-06-13T15:27:42Z</time>
      </trkpt>
      <trkpt lat="45.95488" lon="3.66701">
        <ele>1071.53</ele>
        <time>2015-06-13T15:27:48Z</time>
      </trkpt>
      <trkpt lat="45.95508" lon="3.66694">
        <ele>1071.55</ele>
        <time>2015-06-13T15:27:53Z</time>
      </trkpt>
      <trkpt lat="45.9553" lon="3.66686">
        <ele>1071.55</ele>
        <time>2015-06-13T15:27:58Z</time>
      </trkpt>
      <trkpt lat="45.95547" lon="3.66675">
        <ele>1071.55</ele>
        <time>2015-06-13T15:28:03Z</time>
      </trkpt>
      <trkpt lat="45.95566" lon="3.66667">
        <ele>1071.55</ele>
        <time>2015-06-13T15:28:08Z</time>
      </trkpt>
      <trkpt lat="45.95584" lon="3.66662">
        <ele>1071.55</ele>
        <time>2015-06-13T15:28:14Z</time>
      </trkpt>
      <trkpt lat="45.95605" lon="3.66656">
        <ele>1072.52</ele>
        <time>2015-06-13T15:28:21Z</time>
      </trkpt>
      <trkpt lat="45.95622" lon="3.66645">
        <ele>1072.93</ele>
        <time>2015-06-13T15:28:27Z</time>
      </trkpt>
      <trkpt lat="45.95643" lon="3.66632">
        <ele>1067.08</ele>
        <time>2015-06-13T15:28:31Z</time>
      </trkpt>
      <trkpt lat="45.95665" lon="3.66617">
        <ele>1064.66</ele>
        <time>2015-06-13T15:28:36Z</time>
      </trkpt>
      <trkpt lat="45.95682" lon="3.66609">
        <ele>1064.56</ele>
        <time>2015-06-13T15:28:41Z</time>
      </trkpt>
      <trkpt lat="45.9571" lon="3.66596">
        <ele>1063.55</ele>
        <time>2015-06-13T15:29:50Z</time>
      </trkpt>
      <trkpt lat="45.95733" lon="3.66587">
        <ele>1064.05</ele>
        <time>2015-06-13T15:29:58Z</time>
      </trkpt>
      <trkpt lat="45.95754" lon="3.66591">
        <ele>1065.05</ele>
        <time>2015-06-13T15:30:07Z</time>
      </trkpt>
      <trkpt lat="45.95774" lon="3.66598">
        <ele>1065.55</ele>
        <time>2015-06-13T15:30:17Z</time>
      </trkpt>
      <trkpt lat="45.95796" lon="3.66594">
        <ele>1065.55</ele>
        <time>2015-06-13T15:30:27Z</time>
      </trkpt>
      <trkpt lat="45.95816" lon="3.66591">
        <ele>1065.55</ele>
        <time>2015-06-13T15:30:36Z</time>
      </trkpt>
      <trkpt lat="45.95835" lon="3.66596">
        <ele>1065.55</ele>
        <time>2015-06-13T15:30:46Z</time>
      </trkpt>
      <trkpt lat="45.95855" lon="3.666">
        <ele>1065.55</ele>
        <time>2015-06-13T15:30:54Z</time>
      </trkpt>
      <trkpt lat="45.95875" lon="3.66604">
        <ele>1065.55</ele>
        <time>2015-06-13T15:31:03Z</time>
      </trkpt>
      <trkpt lat="45.95895" lon="3.66609">
        <ele>1066.05</ele>
        <time>2015-06-13T15:31:13Z</time>
      </trkpt>
      <trkpt lat="45.95914" lon="3.66611">
        <ele>1067.05</ele>
        <time>2015-06-13T15:31:21Z</time>
      </trkpt>
      <trkpt lat="45.95933" lon="3.66619">
        <ele>1069.04</ele>
        <time>2015-06-13T15:31:31Z</time>
      </trkpt>
      <trkpt lat="45.9595" lon="3.66628">
        <ele>1070.55</ele>
        <time>2015-06-13T15:31:40Z</time>
      </trkpt>
      <trkpt lat="45.95965" lon="3.66643">
        <ele>1072.43</ele>
        <time>2015-06-13T15:31:51Z</time>
      </trkpt>
      <trkpt lat="45.95983" lon="3.66654">
        <ele>1075.49</ele>
        <time>2015-06-13T15:32:07Z</time>
      </trkpt>
      <trkpt lat="45.96002" lon="3.66656">
        <ele>1076.49</ele>
        <time>2015-06-13T15:32:16Z</time>
      </trkpt>
      <trkpt lat="45.96021" lon="3.66656">
        <ele>1076.55</ele>
        <time>2015-06-13T15:32:23Z</time>
      </trkpt>
      <trkpt lat="45.9604" lon="3.66656">
        <ele>1077.3</ele>
        <time>2015-06-13T15:32:30Z</time>
      </trkpt>
      <trkpt lat="45.96058" lon="3.66654">
        <ele>1078.3</ele>
        <time>2015-06-13T15:32:37Z</time>
      </trkpt>
      <trkpt lat="45.96078" lon="3.66654">
        <ele>1079.49</ele>
        <time>2015-06-13T15:32:45Z</time>
      </trkpt>
      <trkpt lat="45.96097" lon="3.6666">
        <ele>1081.49</ele>
        <time>2015-06-13T15:32:55Z</time>
      </trkpt>
      <trkpt lat="45.96114" lon="3.66671">
        <ele>1081.55</ele>
        <time>2015-06-13T15:33:02Z</time>
      </trkpt>
      <trkpt lat="45.96133" lon="3.66686">
        <ele>1082.52</ele>
        <time>2015-06-13T15:33:07Z</time>
      </trkpt>
      <trkpt lat="45.96151" lon="3.66701">
        <ele>1083.52</ele>
        <time>2015-06-13T15:33:13Z</time>
      </trkpt>
      <trkpt lat="45.9617" lon="3.66709">
        <ele>1087.49</ele>
        <time>2015-06-13T15:33:17Z</time>
      </trkpt>
      <trkpt lat="45.96188" lon="3.66716">
        <ele>1093.04</ele>
        <time>2015-06-13T15:33:20Z</time>
      </trkpt>
      <trkpt lat="45.9621" lon="3.66727">
        <ele>1097.36</ele>
        <time>2015-06-13T15:33:23Z</time>
      </trkpt>
      <trkpt lat="45.96232" lon="3.6674">
        <ele>1098.4</ele>
        <time>2015-06-13T15:33:26Z</time>
      </trkpt>
      <trkpt lat="45.96255" lon="3.66752">
        <ele>1099.41</ele>
        <time>2015-06-13T15:33:29Z</time>
      </trkpt>
      <trkpt lat="45.96276" lon="3.6677">
        <ele>1099.54</ele>
        <time>2015-06-13T15:33:32Z</time>
      </trkpt>
      <trkpt lat="45.96298" lon="3.66785">
        <ele>1101.18</ele>
        <time>2015-06-13T15:33:35Z</time>
      </trkpt>
      <trkpt lat="45.96319" lon="3.66793">
        <ele>1102.38</ele>
        <time>2015-06-13T15:33:38Z</time>
      </trkpt>
      <trkpt lat="45.96341" lon="3.668">
        <ele>1102.53</ele>
        <time>2015-06-13T15:33:41Z</time>
      </trkpt>
      <trkpt lat="45.96362" lon="3.66815">
        <ele>1101.8</ele>
        <time>2015-06-13T15:33:44Z</time>
      </trkpt>
      <trkpt lat="45.96383" lon="3.66838">
        <ele>1100.21</ele>
        <time>2015-06-13T15:33:47Z</time>
      </trkpt>
      <trkpt lat="45.96395" lon="3.6687">
        <ele>1098.89</ele>
        <time>2015-06-13T15:33:50Z</time>
      </trkpt>
      <trkpt lat="45.96405" lon="3.669">
        <ele>1097.72</ele>
        <time>2015-06-13T15:33:53Z</time>
      </trkpt>
      <trkpt lat="45.96416" lon="3.66928">
        <ele>1095.45</ele>
        <time>2015-06-13T15:33:56Z</time>
      </trkpt>
      <trkpt lat="45.96426" lon="3.66954">
        <ele>1088.29</ele>
        <time>2015-06-13T15:33:59Z</time>
      </trkpt>
      <trkpt lat="45.96442" lon="3.66978">
        <ele>1079.02</ele>
        <time>2015-06-13T15:34:02Z</time>
      </trkpt>
      <trkpt lat="45.96459" lon="3.67003">
        <ele>1073.86</ele>
        <time>2015-06-13T15:34:05Z</time>
      </trkpt>
      <trkpt lat="45.96477" lon="3.67027">
        <ele>1071.09</ele>
        <time>2015-06-13T15:34:08Z</time>
      </trkpt>
      <trkpt lat="45.96494" lon="3.67049">
        <ele>1069.75</ele>
        <time>2015-06-13T15:34:11Z</time>
      </trkpt>
      <trkpt lat="45.96506" lon="3.67076">
        <ele>1069.08</ele>
        <time>2015-06-13T15:34:14Z</time>
      </trkpt>
      <trkpt lat="45.96517" lon="3.67106">
        <ele>1068.62</ele>
        <time>2015-06-13T15:34:17Z</time>
      </trkpt>
      <trkpt lat="45.96529" lon="3.67134">
        <ele>1068.56</ele>
        <time>2015-06-13T15:34:20Z</time>
      </trkpt>
      <trkpt lat="45.96545" lon="3.67162">
        <ele>1067.18</ele>
        <time>2015-06-13T15:34:23Z</time>
      </trkpt>
      <trkpt lat="45.96555" lon="3.67184">
        <ele>1066.71</ele>
        <time>2015-06-13T15:34:25Z</time>
      </trkpt>
      <trkpt lat="45.9657" lon="3.67214">
        <ele>1067.32</ele>
        <time>2015-06-13T15:34:28Z</time>
      </trkpt>
      <trkpt lat="45.96587" lon="3.67239">
        <ele>1067.52</ele>
        <time>2015-06-13T15:34:31Z</time>
      </trkpt>
      <trkpt lat="45.96606" lon="3.67261">
        <ele>1067.55</ele>
        <time>2015-06-13T15:34:34Z</time>
      </trkpt>
      <trkpt lat="45.96627" lon="3.67282">
        <ele>1066.68</ele>
        <time>2015-06-13T15:34:37Z</time>
      </trkpt>
      <trkpt lat="45.9665" lon="3.673">
        <ele>1066.57</ele>
        <time>2015-06-13T15:34:40Z</time>
      </trkpt>
      <trkpt lat="45.96671" lon="3.67317">
        <ele>1066.05</ele>
        <time>2015-06-13T15:34:43Z</time>
      </trkpt>
      <trkpt lat="45.96695" lon="3.6733">
        <ele>1065.62</ele>
        <time>2015-06-13T15:34:46Z</time>
      </trkpt>
      <trkpt lat="45.96718" lon="3.6734">
        <ele>1064.69</ele>
        <time>2015-06-13T15:34:49Z</time>
      </trkpt>
      <trkpt lat="45.96741" lon="3.67351">
        <ele>1063.32</ele>
        <time>2015-06-13T15:34:52Z</time>
      </trkpt>
      <trkpt lat="45.96763" lon="3.6736">
        <ele>1061.27</ele>
        <time>2015-06-13T15:34:55Z</time>
      </trkpt>
      <trkpt lat="45.96784" lon="3.67366">
        <ele>1059.89</ele>
        <time>2015-06-13T15:34:58Z</time>
      </trkpt>
      <trkpt lat="45.96802" lon="3.67377">
        <ele>1059.56</ele>
        <time>2015-06-13T15:35:03Z</time>
      </trkpt>
      <trkpt lat="45.96816" lon="3.67394">
        <ele>1058.06</ele>
        <time>2015-06-13T15:35:13Z</time>
      </trkpt>
      <trkpt lat="45.96835" lon="3.67407">
        <ele>1055.8</ele>
        <time>2015-06-13T15:35:22Z</time>
      </trkpt>
      <trkpt lat="45.96851" lon="3.67424">
        <ele>1050.13</ele>
        <time>2015-06-13T15:35:26Z</time>
      </trkpt>
      <trkpt lat="45.96861" lon="3.6745">
        <ele>1048.38</ele>
        <time>2015-06-13T15:35:29Z</time>
      </trkpt>
      <trkpt lat="45.96865" lon="3.67478">
        <ele>1048.03</ele>
        <time>2015-06-13T15:35:32Z</time>
      </trkpt>
      <trkpt lat="45.96866" lon="3.67508">
        <ele>1042.49</ele>
        <time>2015-06-13T15:35:35Z</time>
      </trkpt>
      <trkpt lat="45.96865" lon="3.67538">
        <ele>1033.54</ele>
        <time>2015-06-13T15:35:38Z</time>
      </trkpt>
      <trkpt lat="45.96864" lon="3.67568">
        <ele>1026.3</ele>
        <time>2015-06-13T15:35:41Z</time>
      </trkpt>
      <trkpt lat="45.96861" lon="3.67598">
        <ele>1022.65</ele>
        <time>2015-06-13T15:35:44Z</time>
      </trkpt>
      <trkpt lat="45.9685" lon="3.67624">
        <ele>1019.56</ele>
        <time>2015-06-13T15:35:47Z</time>
      </trkpt>
      <trkpt lat="45.96847" lon="3.67649">
        <ele>1017.93</ele>
        <time>2015-06-13T15:35:50Z</time>
      </trkpt>
      <trkpt lat="45.96852" lon="3.67679">
        <ele>1016.85</ele>
        <time>2015-06-13T15:35:53Z</time>
      </trkpt>
      <trkpt lat="45.9687" lon="3.67703">
        <ele>1016.09</ele>
        <time>2015-06-13T15:35:56Z</time>
      </trkpt>
      <trkpt lat="45.96888" lon="3.67705">
        <ele>1015.69</ele>
        <time>2015-06-13T15:35:58Z</time>
      </trkpt>
      <trkpt lat="45.96913" lon="3.67707">
        <ele>1015.07</ele>
        <time>2015-06-13T15:36:01Z</time>
      </trkpt>
      <trkpt lat="45.96935" lon="3.67712">
        <ele>1015.37</ele>
        <time>2015-06-13T15:36:04Z</time>
      </trkpt>
      <trkpt lat="45.96956" lon="3.67718">
        <ele>1014.15</ele>
        <time>2015-06-13T15:36:07Z</time>
      </trkpt>
      <trkpt lat="45.96972" lon="3.67733">
        <ele>1013.2</ele>
        <time>2015-06-13T15:36:09Z</time>
      </trkpt>
      <trkpt lat="45.96994" lon="3.67752">
        <ele>1011.88</ele>
        <time>2015-06-13T15:36:12Z</time>
      </trkpt>
      <trkpt lat="45.97014" lon="3.67774">
        <ele>1010.72</ele>
        <time>2015-06-13T15:36:15Z</time>
      </trkpt>
      <trkpt lat="45.97034" lon="3.67791">
        <ele>1010.57</ele>
        <time>2015-06-13T15:36:18Z</time>
      </trkpt>
      <trkpt lat="45.97055" lon="3.67808">
        <ele>1009.68</ele>
        <time>2015-06-13T15:36:21Z</time>
      </trkpt>
      <trkpt lat="45.9708" lon="3.67821">
        <ele>1009.07</ele>
        <time>2015-06-13T15:36:24Z</time>
      </trkpt>
      <trkpt lat="45.97099" lon="3.67821">
        <ele>1008.68</ele>
        <time>2015-06-13T15:36:26Z</time>
      </trkpt>
      <trkpt lat="45.97124" lon="3.67823">
        <ele>1008.57</ele>
        <time>2015-06-13T15:36:29Z</time>
      </trkpt>
      <trkpt lat="45.97145" lon="3.6783">
        <ele>1008.55</ele>
        <time>2015-06-13T15:36:32Z</time>
      </trkpt>
      <trkpt lat="45.97165" lon="3.6784">
        <ele>1007.18</ele>
        <time>2015-06-13T15:36:35Z</time>
      </trkpt>
      <trkpt lat="45.97185" lon="3.67853">
        <ele>1005.88</ele>
        <time>2015-06-13T15:36:38Z</time>
      </trkpt>
      <trkpt lat="45.97205" lon="3.67866">
        <ele>1005.59</ele>
        <time>2015-06-13T15:36:41Z</time>
      </trkpt>
      <trkpt lat="45.97225" lon="3.67881">
        <ele>1005.56</ele>
        <time>2015-06-13T15:36:44Z</time>
      </trkpt>
      <trkpt lat="45.97248" lon="3.67896">
        <ele>1005.05</ele>
        <time>2015-06-13T15:36:47Z</time>
      </trkpt>
      <trkpt lat="45.97273" lon="3.67894">
        <ele>1003.24</ele>
        <time>2015-06-13T15:36:50Z</time>
      </trkpt>
      <trkpt lat="45.97297" lon="3.6789">
        <ele>999.64</ele>
        <time>2015-06-13T15:36:53Z</time>
      </trkpt>
      <trkpt lat="45.97317" lon="3.67885">
        <ele>994.44</ele>
        <time>2015-06-13T15:36:56Z</time>
      </trkpt>
      <trkpt lat="45.97337" lon="3.67875">
        <ele>983.17</ele>
        <time>2015-06-13T15:37:01Z</time>
      </trkpt>
      <trkpt lat="45.97356" lon="3.67862">
        <ele>971.01</ele>
        <time>2015-06-13T15:37:06Z</time>
      </trkpt>
      <trkpt lat="45.97374" lon="3.67849">
        <ele>968.14</ele>
        <time>2015-06-13T15:37:12Z</time>
      </trkpt>
      <trkpt lat="45.97394" lon="3.67849">
        <ele>959.15</ele>
        <time>2015-06-13T15:37:16Z</time>
      </trkpt>
      <trkpt lat="45.97415" lon="3.67857">
        <ele>953.38</ele>
        <time>2015-06-13T15:37:19Z</time>
      </trkpt>
      <trkpt lat="45.97439" lon="3.67868">
        <ele>950.41</ele>
        <time>2015-06-13T15:37:22Z</time>
      </trkpt>
      <trkpt lat="45.97455" lon="3.67885">
        <ele>948.52</ele>
        <time>2015-06-13T15:37:24Z</time>
      </trkpt>
      <trkpt lat="45.97469" lon="3.67903">
        <ele>945.29</ele>
        <time>2015-06-13T15:37:26Z</time>
      </trkpt>
      <trkpt lat="45.97485" lon="3.67928">
        <ele>939.52</ele>
        <time>2015-06-13T15:37:29Z</time>
      </trkpt>
      <trkpt lat="45.97503" lon="3.67956">
        <ele>935.67</ele>
        <time>2015-06-13T15:37:32Z</time>
      </trkpt>
      <trkpt lat="45.97523" lon="3.67982">
        <ele>933.07</ele>
        <time>2015-06-13T15:37:35Z</time>
      </trkpt>
      <trkpt lat="45.97546" lon="3.67999">
        <ele>931.74</ele>
        <time>2015-06-13T15:37:38Z</time>
      </trkpt>
      <trkpt lat="45.97563" lon="3.6801">
        <ele>930.85</ele>
        <time>2015-06-13T15:37:40Z</time>
      </trkpt>
      <trkpt lat="45.97581" lon="3.68018">
        <ele>930.13</ele>
        <time>2015-06-13T15:37:42Z</time>
      </trkpt>
      <trkpt lat="45.97601" lon="3.68016">
        <ele>929.7</ele>
        <time>2015-06-13T15:37:44Z</time>
      </trkpt>
      <trkpt lat="45.97621" lon="3.68012">
        <ele>928.84</ele>
        <time>2015-06-13T15:37:46Z</time>
      </trkpt>
      <trkpt lat="45.97639" lon="3.68006">
        <ele>928.12</ele>
        <time>2015-06-13T15:37:48Z</time>
      </trkpt>
      <trkpt lat="45.97664" lon="3.6799">
        <ele>927.12</ele>
        <time>2015-06-13T15:37:51Z</time>
      </trkpt>
      <trkpt lat="45.97686" lon="3.67978">
        <ele>926.12</ele>
        <time>2015-06-13T15:37:54Z</time>
      </trkpt>
      <trkpt lat="45.97704" lon="3.67965">
        <ele>925.62</ele>
        <time>2015-06-13T15:37:57Z</time>
      </trkpt>
      <trkpt lat="45.97726" lon="3.67952">
        <ele>923.87</ele>
        <time>2015-06-13T15:38:01Z</time>
      </trkpt>
      <trkpt lat="45.97747" lon="3.67941">
        <ele>921.26</ele>
        <time>2015-06-13T15:38:05Z</time>
      </trkpt>
      <trkpt lat="45.97765" lon="3.67935">
        <ele>919.39</ele>
        <time>2015-06-13T15:38:08Z</time>
      </trkpt>
      <trkpt lat="45.97788" lon="3.67926">
        <ele>917.78</ele>
        <time>2015-06-13T15:38:11Z</time>
      </trkpt>
      <trkpt lat="45.97809" lon="3.67913">
        <ele>916.83</ele>
        <time>2015-06-13T15:38:14Z</time>
      </trkpt>
      <trkpt lat="45.97831" lon="3.67894">
        <ele>914.09</ele>
        <time>2015-06-13T15:38:17Z</time>
      </trkpt>
      <trkpt lat="45.97855" lon="3.67881">
        <ele>908.49</ele>
        <time>2015-06-13T15:38:20Z</time>
      </trkpt>
      <trkpt lat="45.97873" lon="3.6787">
        <ele>903.8</ele>
        <time>2015-06-13T15:38:23Z</time>
      </trkpt>
      <trkpt lat="45.97889" lon="3.67857">
        <ele>899.69</ele>
        <time>2015-06-13T15:38:27Z</time>
      </trkpt>
      <trkpt lat="45.97909" lon="3.67842">
        <ele>897.69</ele>
        <time>2015-06-13T15:38:34Z</time>
      </trkpt>
      <trkpt lat="45.97927" lon="3.6783">
        <ele>895.25</ele>
        <time>2015-06-13T15:38:38Z</time>
      </trkpt>
      <trkpt lat="45.97947" lon="3.67817">
        <ele>892.28</ele>
        <time>2015-06-13T15:38:42Z</time>
      </trkpt>
      <trkpt lat="45.97964" lon="3.67802">
        <ele>890.72</ele>
        <time>2015-06-13T15:38:46Z</time>
      </trkpt>
      <trkpt lat="45.97977" lon="3.67782">
        <ele>889.7</ele>
        <time>2015-06-13T15:38:49Z</time>
      </trkpt>
      <trkpt lat="45.97993" lon="3.67761">
        <ele>888.7</ele>
        <time>2015-06-13T15:38:52Z</time>
      </trkpt>
      <trkpt lat="45.98009" lon="3.67739">
        <ele>887.82</ele>
        <time>2015-06-13T15:38:55Z</time>
      </trkpt>
      <trkpt lat="45.98026" lon="3.67722">
        <ele>887.59</ele>
        <time>2015-06-13T15:38:58Z</time>
      </trkpt>
      <trkpt lat="45.98043" lon="3.67714">
        <ele>887.56</ele>
        <time>2015-06-13T15:39:01Z</time>
      </trkpt>
      <trkpt lat="45.98063" lon="3.67709">
        <ele>886.68</ele>
        <time>2015-06-13T15:39:04Z</time>
      </trkpt>
      <trkpt lat="45.98083" lon="3.67707">
        <ele>885.69</ele>
        <time>2015-06-13T15:39:07Z</time>
      </trkpt>
      <trkpt lat="45.98104" lon="3.67705">
        <ele>884.7</ele>
        <time>2015-06-13T15:39:10Z</time>
      </trkpt>
      <trkpt lat="45.98129" lon="3.67707">
        <ele>884.57</ele>
        <time>2015-06-13T15:39:13Z</time>
      </trkpt>
      <trkpt lat="45.98156" lon="3.67709">
        <ele>883.18</ele>
        <time>2015-06-13T15:39:16Z</time>
      </trkpt>
      <trkpt lat="45.98174" lon="3.67707">
        <ele>882.21</ele>
        <time>2015-06-13T15:39:18Z</time>
      </trkpt>
      <trkpt lat="45.98192" lon="3.67703">
        <ele>880.97</ele>
        <time>2015-06-13T15:39:20Z</time>
      </trkpt>
      <trkpt lat="45.98213" lon="3.67699">
        <ele>879.41</ele>
        <time>2015-06-13T15:39:22Z</time>
      </trkpt>
      <trkpt lat="45.98234" lon="3.67694">
        <ele>878.27</ele>
        <time>2015-06-13T15:39:24Z</time>
      </trkpt>
      <trkpt lat="45.98256" lon="3.67692">
        <ele>877.23</ele>
        <time>2015-06-13T15:39:26Z</time>
      </trkpt>
      <trkpt lat="45.98277" lon="3.6769">
        <ele>875.97</ele>
        <time>2015-06-13T15:39:28Z</time>
      </trkpt>
      <trkpt lat="45.98299" lon="3.67688">
        <ele>874.91</ele>
        <time>2015-06-13T15:39:30Z</time>
      </trkpt>
      <trkpt lat="45.9832" lon="3.67686">
        <ele>874.14</ele>
        <time>2015-06-13T15:39:32Z</time>
      </trkpt>
      <trkpt lat="45.98341" lon="3.67686">
        <ele>873.7</ele>
        <time>2015-06-13T15:39:34Z</time>
      </trkpt>
      <trkpt lat="45.98363" lon="3.67686">
        <ele>873.07</ele>
        <time>2015-06-13T15:39:37Z</time>
      </trkpt>
      <trkpt lat="45.9838" lon="3.67673">
        <ele>870.88</ele>
        <time>2015-06-13T15:39:42Z</time>
      </trkpt>
      <trkpt lat="45.98393" lon="3.67654">
        <ele>869.84</ele>
        <time>2015-06-13T15:39:45Z</time>
      </trkpt>
      <trkpt lat="45.9841" lon="3.6763">
        <ele>869.59</ele>
        <time>2015-06-13T15:39:48Z</time>
      </trkpt>
      <trkpt lat="45.9843" lon="3.67609">
        <ele>868.68</ele>
        <time>2015-06-13T15:39:51Z</time>
      </trkpt>
      <trkpt lat="45.98446" lon="3.67585">
        <ele>867.69</ele>
        <time>2015-06-13T15:39:54Z</time>
      </trkpt>
      <trkpt lat="45.98462" lon="3.67561">
        <ele>866.82</ele>
        <time>2015-06-13T15:39:57Z</time>
      </trkpt>
      <trkpt lat="45.98478" lon="3.67542">
        <ele>865.19</ele>
        <time>2015-06-13T15:40:01Z</time>
      </trkpt>
      <trkpt lat="45.98494" lon="3.67527">
        <ele>863.22</ele>
        <time>2015-06-13T15:40:05Z</time>
      </trkpt>
      <trkpt lat="45.98512" lon="3.67518">
        <ele>859.42</ele>
        <time>2015-06-13T15:40:10Z</time>
      </trkpt>
      <trkpt lat="45.98529" lon="3.67499">
        <ele>857.64</ele>
        <time>2015-06-13T15:40:15Z</time>
      </trkpt>
      <trkpt lat="45.98537" lon="3.67471">
        <ele>856.62</ele>
        <time>2015-06-13T15:40:19Z</time>
      </trkpt>
      <trkpt lat="45.98544" lon="3.67443">
        <ele>857.43</ele>
        <time>2015-06-13T15:40:23Z</time>
      </trkpt>
      <trkpt lat="45.98559" lon="3.67424">
        <ele>858.52</ele>
        <time>2015-06-13T15:40:28Z</time>
      </trkpt>
      <trkpt lat="45.98574" lon="3.67398">
        <ele>858.55</ele>
        <time>2015-06-13T15:40:35Z</time>
      </trkpt>
      <trkpt lat="45.98586" lon="3.67375">
        <ele>858.55</ele>
        <time>2015-06-13T15:40:40Z</time>
      </trkpt>
      <trkpt lat="45.98604" lon="3.67355">
        <ele>858.55</ele>
        <time>2015-06-13T15:40:45Z</time>
      </trkpt>
      <trkpt lat="45.98623" lon="3.67351">
        <ele>857.8</ele>
        <time>2015-06-13T15:40:50Z</time>
      </trkpt>
      <trkpt lat="45.98642" lon="3.67342">
        <ele>857.07</ele>
        <time>2015-06-13T15:40:54Z</time>
      </trkpt>
      <trkpt lat="45.98661" lon="3.67334">
        <ele>856.09</ele>
        <time>2015-06-13T15:40:58Z</time>
      </trkpt>
      <trkpt lat="45.98678" lon="3.67323">
        <ele>854.84</ele>
        <time>2015-06-13T15:41:02Z</time>
      </trkpt>
      <trkpt lat="45.98698" lon="3.67319">
        <ele>853.62</ele>
        <time>2015-06-13T15:41:07Z</time>
      </trkpt>
      <trkpt lat="45.98716" lon="3.67306">
        <ele>853.55</ele>
        <time>2015-06-13T15:41:13Z</time>
      </trkpt>
      <trkpt lat="45.98734" lon="3.67291">
        <ele>853.55</ele>
        <time>2015-06-13T15:41:19Z</time>
      </trkpt>
      <trkpt lat="45.98749" lon="3.67276">
        <ele>853.55</ele>
        <time>2015-06-13T15:41:25Z</time>
      </trkpt>
      <trkpt lat="45.98765" lon="3.67259">
        <ele>854.54</ele>
        <time>2015-06-13T15:41:32Z</time>
      </trkpt>
      <trkpt lat="45.98776" lon="3.67235">
        <ele>855.05</ele>
        <time>2015-06-13T15:41:42Z</time>
      </trkpt>
      <trkpt lat="45.98791" lon="3.67216">
        <ele>855.55</ele>
        <time>2015-06-13T15:41:50Z</time>
      </trkpt>
      <trkpt lat="45.98806" lon="3.67199">
        <ele>855.55</ele>
        <time>2015-06-13T15:41:56Z</time>
      </trkpt>
      <trkpt lat="45.98823" lon="3.67179">
        <ele>856.43</ele>
        <time>2015-06-13T15:42:02Z</time>
      </trkpt>
      <trkpt lat="45.98836" lon="3.6716">
        <ele>856.54</ele>
        <time>2015-06-13T15:42:05Z</time>
      </trkpt>
      <trkpt lat="45.9885" lon="3.67132">
        <ele>857.8</ele>
        <time>2015-06-13T15:42:08Z</time>
      </trkpt>
      <trkpt lat="45.98861" lon="3.67109">
        <ele>859.21</ele>
        <time>2015-06-13T15:42:11Z</time>
      </trkpt>
      <trkpt lat="45.98873" lon="3.67087">
        <ele>861.14</ele>
        <time>2015-06-13T15:42:14Z</time>
      </trkpt>
      <trkpt lat="45.98887" lon="3.67061">
        <ele>860.75</ele>
        <time>2015-06-13T15:42:17Z</time>
      </trkpt>
      <trkpt lat="45.98906" lon="3.67033">
        <ele>858.45</ele>
        <time>2015-06-13T15:42:20Z</time>
      </trkpt>
      <trkpt lat="45.98924" lon="3.67014">
        <ele>856.53</ele>
        <time>2015-06-13T15:42:22Z</time>
      </trkpt>
      <trkpt lat="45.98942" lon="3.66997">
        <ele>853.8</ele>
        <time>2015-06-13T15:42:24Z</time>
      </trkpt>
      <trkpt lat="45.98964" lon="3.66986">
        <ele>852.11</ele>
        <time>2015-06-13T15:42:26Z</time>
      </trkpt>
      <trkpt lat="45.98985" lon="3.66976">
        <ele>850.44</ele>
        <time>2015-06-13T15:42:28Z</time>
      </trkpt>
      <trkpt lat="45.99008" lon="3.66967">
        <ele>850.28</ele>
        <time>2015-06-13T15:42:30Z</time>
      </trkpt>
      <trkpt lat="45.99033" lon="3.66954">
        <ele>850.48</ele>
        <time>2015-06-13T15:42:32Z</time>
      </trkpt>
      <trkpt lat="45.99059" lon="3.66941">
        <ele>850.54</ele>
        <time>2015-06-13T15:42:34Z</time>
      </trkpt>
      <trkpt lat="45.99085" lon="3.66926">
        <ele>849.8</ele>
        <time>2015-06-13T15:42:36Z</time>
      </trkpt>
      <trkpt lat="45.9911" lon="3.66911">
        <ele>848.86</ele>
        <time>2015-06-13T15:42:38Z</time>
      </trkpt>
      <trkpt lat="45.99132" lon="3.66898">
        <ele>847.88</ele>
        <time>2015-06-13T15:42:40Z</time>
      </trkpt>
      <trkpt lat="45.99154" lon="3.6689">
        <ele>847.13</ele>
        <time>2015-06-13T15:42:42Z</time>
      </trkpt>
      <trkpt lat="45.99174" lon="3.66881">
        <ele>846.7</ele>
        <time>2015-06-13T15:42:44Z</time>
      </trkpt>
      <trkpt lat="45.99193" lon="3.66873">
        <ele>845.84</ele>
        <time>2015-06-13T15:42:46Z</time>
      </trkpt>
      <trkpt lat="45.99214" lon="3.66868">
        <ele>845.62</ele>
        <time>2015-06-13T15:42:48Z</time>
      </trkpt>
      <trkpt lat="45.99232" lon="3.66862">
        <ele>844.82</ele>
        <time>2015-06-13T15:42:50Z</time>
      </trkpt>
      <trkpt lat="45.9925" lon="3.66858">
        <ele>844.12</ele>
        <time>2015-06-13T15:42:52Z</time>
      </trkpt>
      <trkpt lat="45.9927" lon="3.66858">
        <ele>843.19</ele>
        <time>2015-06-13T15:42:54Z</time>
      </trkpt>
      <trkpt lat="45.99295" lon="3.66864">
        <ele>841.38</ele>
        <time>2015-06-13T15:42:57Z</time>
      </trkpt>
      <trkpt lat="45.99317" lon="3.6687">
        <ele>839.28</ele>
        <time>2015-06-13T15:43:00Z</time>
      </trkpt>
      <trkpt lat="45.99339" lon="3.66875">
        <ele>837.89</ele>
        <time>2015-06-13T15:43:03Z</time>
      </trkpt>
      <trkpt lat="45.99364" lon="3.66873">
        <ele>837.6</ele>
        <time>2015-06-13T15:43:06Z</time>
      </trkpt>
      <trkpt lat="45.99389" lon="3.66864">
        <ele>836.68</ele>
        <time>2015-06-13T15:43:09Z</time>
      </trkpt>
      <trkpt lat="45.99412" lon="3.66858">
        <ele>837.32</ele>
        <time>2015-06-13T15:43:12Z</time>
      </trkpt>
      <trkpt lat="45.99438" lon="3.66855">
        <ele>837.02</ele>
        <time>2015-06-13T15:43:15Z</time>
      </trkpt>
      <trkpt lat="45.99462" lon="3.66853">
        <ele>836.61</ele>
        <time>2015-06-13T15:43:18Z</time>
      </trkpt>
      <trkpt lat="45.99487" lon="3.66847">
        <ele>835.69</ele>
        <time>2015-06-13T15:43:21Z</time>
      </trkpt>
      <trkpt lat="45.99506" lon="3.6684">
        <ele>835.09</ele>
        <time>2015-06-13T15:43:23Z</time>
      </trkpt>
      <trkpt lat="45.99525" lon="3.66827">
        <ele>834.69</ele>
        <time>2015-06-13T15:43:25Z</time>
      </trkpt>
      <trkpt lat="45.99544" lon="3.6681">
        <ele>833.84</ele>
        <time>2015-06-13T15:43:27Z</time>
      </trkpt>
      <trkpt lat="45.99564" lon="3.66789">
        <ele>832.37</ele>
        <time>2015-06-13T15:43:29Z</time>
      </trkpt>
      <trkpt lat="45.99578" lon="3.66765">
        <ele>830.51</ele>
        <time>2015-06-13T15:43:31Z</time>
      </trkpt>
      <trkpt lat="45.99587" lon="3.66742">
        <ele>829.04</ele>
        <time>2015-06-13T15:43:33Z</time>
      </trkpt>
      <trkpt lat="45.99601" lon="3.66707">
        <ele>827.24</ele>
        <time>2015-06-13T15:43:36Z</time>
      </trkpt>
      <trkpt lat="45.99617" lon="3.66677">
        <ele>825.89</ele>
        <time>2015-06-13T15:43:39Z</time>
      </trkpt>
      <trkpt lat="45.99629" lon="3.66656">
        <ele>824.89</ele>
        <time>2015-06-13T15:43:41Z</time>
      </trkpt>
      <trkpt lat="45.99643" lon="3.66637">
        <ele>823.89</ele>
        <time>2015-06-13T15:43:43Z</time>
      </trkpt>
      <trkpt lat="45.99658" lon="3.66617">
        <ele>822.89</ele>
        <time>2015-06-13T15:43:45Z</time>
      </trkpt>
      <trkpt lat="45.99676" lon="3.666">
        <ele>822.14</ele>
        <time>2015-06-13T15:43:47Z</time>
      </trkpt>
      <trkpt lat="45.99692" lon="3.66583">
        <ele>821.7</ele>
        <time>2015-06-13T15:43:49Z</time>
      </trkpt>
      <trkpt lat="45.99708" lon="3.66568">
        <ele>820.34</ele>
        <time>2015-06-13T15:43:51Z</time>
      </trkpt>
      <trkpt lat="45.99725" lon="3.66555">
        <ele>819.25</ele>
        <time>2015-06-13T15:43:53Z</time>
      </trkpt>
      <trkpt lat="45.99742" lon="3.66542">
        <ele>814.23</ele>
        <time>2015-06-13T15:43:55Z</time>
      </trkpt>
      <trkpt lat="45.9976" lon="3.66531">
        <ele>803.39</ele>
        <time>2015-06-13T15:43:58Z</time>
      </trkpt>
      <trkpt lat="45.99782" lon="3.66523">
        <ele>794.58</ele>
        <time>2015-06-13T15:44:06Z</time>
      </trkpt>
      <trkpt lat="45.99803" lon="3.66508">
        <ele>789.12</ele>
        <time>2015-06-13T15:44:21Z</time>
      </trkpt>
      <trkpt lat="45.9982" lon="3.66497">
        <ele>786.7</ele>
        <time>2015-06-13T15:44:29Z</time>
      </trkpt>
      <trkpt lat="45.99838" lon="3.66484">
        <ele>784.69</ele>
        <time>2015-06-13T15:44:36Z</time>
      </trkpt>
      <trkpt lat="45.99857" lon="3.66473">
        <ele>778.5</ele>
        <time>2015-06-13T15:44:40Z</time>
      </trkpt>
      <trkpt lat="45.99874" lon="3.66465">
        <ele>773.8</ele>
        <time>2015-06-13T15:44:43Z</time>
      </trkpt>
      <trkpt lat="45.99892" lon="3.66458">
        <ele>769.44</ele>
        <time>2015-06-13T15:44:47Z</time>
      </trkpt>
      <trkpt lat="45.99912" lon="3.6645">
        <ele>767.67</ele>
        <time>2015-06-13T15:44:51Z</time>
      </trkpt>
      <trkpt lat="45.99934" lon="3.66439">
        <ele>768.5</ele>
        <time>2015-06-13T15:44:55Z</time>
      </trkpt>
      <trkpt lat="45.99953" lon="3.66431">
        <ele>767.61</ele>
        <time>2015-06-13T15:44:59Z</time>
      </trkpt>
      <trkpt lat="45.99972" lon="3.66433">
        <ele>766.81</ele>
        <time>2015-06-13T15:45:03Z</time>
      </trkpt>
      <trkpt lat="45.99993" lon="3.66439">
        <ele>765.09</ele>
        <time>2015-06-13T15:45:08Z</time>
      </trkpt>
      <trkpt lat="46.00014" lon="3.66443">
        <ele>764.57</ele>
        <time>2015-06-13T15:45:13Z</time>
      </trkpt>
      <trkpt lat="46.00036" lon="3.66448">
        <ele>764.55</ele>
        <time>2015-06-13T15:45:18Z</time>
      </trkpt>
      <trkpt lat="46.00055" lon="3.6645">
        <ele>764.55</ele>
        <time>2015-06-13T15:45:23Z</time>
      </trkpt>
      <trkpt lat="46.00073" lon="3.66454">
        <ele>764.55</ele>
        <time>2015-06-13T15:45:28Z</time>
      </trkpt>
      <trkpt lat="46.00093" lon="3.66463">
        <ele>764.55</ele>
        <time>2015-06-13T15:45:33Z</time>
      </trkpt>
      <trkpt lat="46.0011" lon="3.66473">
        <ele>764.55</ele>
        <time>2015-06-13T15:45:38Z</time>
      </trkpt>
      <trkpt lat="46.00132" lon="3.66482">
        <ele>764.55</ele>
        <time>2015-06-13T15:45:43Z</time>
      </trkpt>
      <trkpt lat="46.00152" lon="3.66486">
        <ele>763.8</ele>
        <time>2015-06-13T15:45:46Z</time>
      </trkpt>
      <trkpt lat="46.00174" lon="3.66486">
        <ele>763.08</ele>
        <time>2015-06-13T15:45:49Z</time>
      </trkpt>
      <trkpt lat="46.00199" lon="3.6648">
        <ele>762.12</ele>
        <time>2015-06-13T15:45:52Z</time>
      </trkpt>
      <trkpt lat="46.00226" lon="3.66469">
        <ele>761.62</ele>
        <time>2015-06-13T15:45:55Z</time>
      </trkpt>
      <trkpt lat="46.0025" lon="3.66461">
        <ele>761.56</ele>
        <time>2015-06-13T15:45:58Z</time>
      </trkpt>
      <trkpt lat="46.00273" lon="3.66456">
        <ele>761.55</ele>
        <time>2015-06-13T15:46:01Z</time>
      </trkpt>
      <trkpt lat="46.00296" lon="3.66452">
        <ele>761.55</ele>
        <time>2015-06-13T15:46:04Z</time>
      </trkpt>
      <trkpt lat="46.00316" lon="3.66454">
        <ele>761.05</ele>
        <time>2015-06-13T15:46:07Z</time>
      </trkpt>
      <trkpt lat="46.00335" lon="3.66461">
        <ele>760.62</ele>
        <time>2015-06-13T15:46:10Z</time>
      </trkpt>
      <trkpt lat="46.00358" lon="3.66456">
        <ele>759.68</ele>
        <time>2015-06-13T15:46:14Z</time>
      </trkpt>
      <trkpt lat="46.00375" lon="3.66441">
        <ele>759.06</ele>
        <time>2015-06-13T15:46:18Z</time>
      </trkpt>
      <trkpt lat="46.00389" lon="3.66422">
        <ele>757.83</ele>
        <time>2015-06-13T15:46:22Z</time>
      </trkpt>
      <trkpt lat="46.00403" lon="3.66398">
        <ele>756.7</ele>
        <time>2015-06-13T15:46:26Z</time>
      </trkpt>
      <trkpt lat="46.00417" lon="3.66379">
        <ele>756.57</ele>
        <time>2015-06-13T15:46:29Z</time>
      </trkpt>
      <trkpt lat="46.00433" lon="3.66355">
        <ele>756.55</ele>
        <time>2015-06-13T15:46:33Z</time>
      </trkpt>
      <trkpt lat="46.00443" lon="3.66332">
        <ele>755.68</ele>
        <time>2015-06-13T15:46:37Z</time>
      </trkpt>
      <trkpt lat="46.00454" lon="3.6631">
        <ele>754.12</ele>
        <time>2015-06-13T15:46:41Z</time>
      </trkpt>
      <trkpt lat="46.00468" lon="3.66285">
        <ele>752.82</ele>
        <time>2015-06-13T15:46:46Z</time>
      </trkpt>
      <trkpt lat="46.0048" lon="3.66261">
        <ele>751.82</ele>
        <time>2015-06-13T15:46:50Z</time>
      </trkpt>
      <trkpt lat="46.00492" lon="3.6624">
        <ele>751.59</ele>
        <time>2015-06-13T15:46:53Z</time>
      </trkpt>
      <trkpt lat="46.00506" lon="3.66214">
        <ele>750.68</ele>
        <time>2015-06-13T15:46:56Z</time>
      </trkpt>
      <trkpt lat="46.0052" lon="3.66184">
        <ele>749.82</ele>
        <time>2015-06-13T15:46:59Z</time>
      </trkpt>
      <trkpt lat="46.00532" lon="3.66152">
        <ele>749.59</ele>
        <time>2015-06-13T15:47:02Z</time>
      </trkpt>
      <trkpt lat="46.00543" lon="3.66115">
        <ele>748.68</ele>
        <time>2015-06-13T15:47:05Z</time>
      </trkpt>
      <trkpt lat="46.00549" lon="3.66089">
        <ele>747.84</ele>
        <time>2015-06-13T15:47:07Z</time>
      </trkpt>
      <trkpt lat="46.00554" lon="3.66061">
        <ele>746.87</ele>
        <time>2015-06-13T15:47:09Z</time>
      </trkpt>
      <trkpt lat="46.00559" lon="3.66031">
        <ele>745.88</ele>
        <time>2015-06-13T15:47:11Z</time>
      </trkpt>
      <trkpt lat="46.00564" lon="3.66004">
        <ele>745.14</ele>
        <time>2015-06-13T15:47:13Z</time>
      </trkpt>
      <trkpt lat="46.00566" lon="3.65976">
        <ele>744.2</ele>
        <time>2015-06-13T15:47:15Z</time>
      </trkpt>
      <trkpt lat="46.00567" lon="3.65948">
        <ele>743.71</ele>
        <time>2015-06-13T15:47:17Z</time>
      </trkpt>
      <trkpt lat="46.00566" lon="3.6592">
        <ele>743.09</ele>
        <time>2015-06-13T15:47:19Z</time>
      </trkpt>
      <trkpt lat="46.00562" lon="3.65892">
        <ele>742.69</ele>
        <time>2015-06-13T15:47:21Z</time>
      </trkpt>
      <trkpt lat="46.00559" lon="3.65864">
        <ele>741.34</ele>
        <time>2015-06-13T15:47:23Z</time>
      </trkpt>
      <trkpt lat="46.00555" lon="3.65836">
        <ele>740.25</ele>
        <time>2015-06-13T15:47:25Z</time>
      </trkpt>
      <trkpt lat="46.00551" lon="3.65808">
        <ele>738.48</ele>
        <time>2015-06-13T15:47:27Z</time>
      </trkpt>
      <trkpt lat="46.00555" lon="3.65776">
        <ele>736.92</ele>
        <time>2015-06-13T15:47:30Z</time>
      </trkpt>
      <trkpt lat="46.00564" lon="3.65744">
        <ele>737.35</ele>
        <time>2015-06-13T15:47:33Z</time>
      </trkpt>
      <trkpt lat="46.00571" lon="3.65714">
        <ele>737.15</ele>
        <time>2015-06-13T15:47:36Z</time>
      </trkpt>
      <trkpt lat="46.00577" lon="3.65686">
        <ele>735.38</ele>
        <time>2015-06-13T15:47:39Z</time>
      </trkpt>
      <trkpt lat="46.00589" lon="3.65656">
        <ele>732.04</ele>
        <time>2015-06-13T15:47:43Z</time>
      </trkpt>
      <trkpt lat="46.00601" lon="3.65626">
        <ele>729.27</ele>
        <time>2015-06-13T15:47:47Z</time>
      </trkpt>
      <trkpt lat="46.00617" lon="3.65602">
        <ele>728.1</ele>
        <time>2015-06-13T15:47:51Z</time>
      </trkpt>
      <trkpt lat="46.0064" lon="3.65587">
        <ele>726.84</ele>
        <time>2015-06-13T15:47:55Z</time>
      </trkpt>
      <trkpt lat="46.00661" lon="3.65583">
        <ele>725.84</ele>
        <time>2015-06-13T15:47:58Z</time>
      </trkpt>
      <trkpt lat="46.00684" lon="3.65579">
        <ele>724.71</ele>
        <time>2015-06-13T15:48:01Z</time>
      </trkpt>
      <trkpt lat="46.00705" lon="3.65572">
        <ele>724.57</ele>
        <time>2015-06-13T15:48:04Z</time>
      </trkpt>
      <trkpt lat="46.00726" lon="3.65568">
        <ele>723.68</ele>
        <time>2015-06-13T15:48:07Z</time>
      </trkpt>
      <trkpt lat="46.00745" lon="3.65564">
        <ele>722.82</ele>
        <time>2015-06-13T15:48:10Z</time>
      </trkpt>
      <trkpt lat="46.00763" lon="3.65555">
        <ele>722.09</ele>
        <time>2015-06-13T15:48:13Z</time>
      </trkpt>
      <trkpt lat="46.00783" lon="3.65546">
        <ele>721.12</ele>
        <time>2015-06-13T15:48:16Z</time>
      </trkpt>
      <trkpt lat="46.00803" lon="3.65536">
        <ele>720.62</ele>
        <time>2015-06-13T15:48:19Z</time>
      </trkpt>
      <trkpt lat="46.00818" lon="3.65519">
        <ele>719.69</ele>
        <time>2015-06-13T15:48:22Z</time>
      </trkpt>
      <trkpt lat="46.00834" lon="3.65499">
        <ele>718.69</ele>
        <time>2015-06-13T15:48:25Z</time>
      </trkpt>
      <trkpt lat="46.00853" lon="3.65486">
        <ele>718.57</ele>
        <time>2015-06-13T15:48:28Z</time>
      </trkpt>
      <trkpt lat="46.0087" lon="3.65478">
        <ele>717.62</ele>
        <time>2015-06-13T15:48:32Z</time>
      </trkpt>
      <trkpt lat="46.0089" lon="3.65465">
        <ele>717.55</ele>
        <time>2015-06-13T15:48:38Z</time>
      </trkpt>
      <trkpt lat="46.00905" lon="3.6545">
        <ele>717.55</ele>
        <time>2015-06-13T15:48:43Z</time>
      </trkpt>
      <trkpt lat="46.00921" lon="3.65435">
        <ele>717.05</ele>
        <time>2015-06-13T15:48:48Z</time>
      </trkpt>
      <trkpt lat="46.00937" lon="3.65413">
        <ele>715.69</ele>
        <time>2015-06-13T15:48:53Z</time>
      </trkpt>
      <trkpt lat="46.00957" lon="3.65392">
        <ele>714.69</ele>
        <time>2015-06-13T15:48:57Z</time>
      </trkpt>
      <trkpt lat="46.0098" lon="3.65371">
        <ele>714.57</ele>
        <time>2015-06-13T15:49:00Z</time>
      </trkpt>
      <trkpt lat="46.01002" lon="3.65355">
        <ele>713.68</ele>
        <time>2015-06-13T15:49:03Z</time>
      </trkpt>
      <trkpt lat="46.01023" lon="3.65343">
        <ele>714.32</ele>
        <time>2015-06-13T15:49:06Z</time>
      </trkpt>
      <trkpt lat="46.01042" lon="3.65338">
        <ele>714.54</ele>
        <time>2015-06-13T15:49:10Z</time>
      </trkpt>
      <trkpt lat="46.01059" lon="3.65328">
        <ele>713.8</ele>
        <time>2015-06-13T15:49:14Z</time>
      </trkpt>
      <trkpt lat="46.01076" lon="3.65313">
        <ele>711.88</ele>
        <time>2015-06-13T15:49:18Z</time>
      </trkpt>
      <trkpt lat="46.01095" lon="3.65298">
        <ele>709.89</ele>
        <time>2015-06-13T15:49:22Z</time>
      </trkpt>
      <trkpt lat="46.01109" lon="3.6528">
        <ele>708.22</ele>
        <time>2015-06-13T15:49:25Z</time>
      </trkpt>
      <trkpt lat="46.01124" lon="3.65257">
        <ele>706.26</ele>
        <time>2015-06-13T15:49:28Z</time>
      </trkpt>
      <trkpt lat="46.01142" lon="3.65233">
        <ele>704.02</ele>
        <time>2015-06-13T15:49:31Z</time>
      </trkpt>
      <trkpt lat="46.0116" lon="3.6521">
        <ele>701.99</ele>
        <time>2015-06-13T15:49:34Z</time>
      </trkpt>
      <trkpt lat="46.0118" lon="3.65195">
        <ele>701.11</ele>
        <time>2015-06-13T15:49:37Z</time>
      </trkpt>
      <trkpt lat="46.01201" lon="3.65182">
        <ele>700.62</ele>
        <time>2015-06-13T15:49:40Z</time>
      </trkpt>
      <trkpt lat="46.01222" lon="3.65171">
        <ele>699.69</ele>
        <time>2015-06-13T15:49:43Z</time>
      </trkpt>
      <trkpt lat="46.01242" lon="3.65162">
        <ele>698.69</ele>
        <time>2015-06-13T15:49:46Z</time>
      </trkpt>
      <trkpt lat="46.01261" lon="3.65165">
        <ele>697.7</ele>
        <time>2015-06-13T15:49:49Z</time>
      </trkpt>
      <trkpt lat="46.0128" lon="3.65167">
        <ele>696.7</ele>
        <time>2015-06-13T15:49:52Z</time>
      </trkpt>
      <trkpt lat="46.01302" lon="3.65171">
        <ele>695.2</ele>
        <time>2015-06-13T15:49:55Z</time>
      </trkpt>
      <trkpt lat="46.01325" lon="3.6518">
        <ele>694.13</ele>
        <time>2015-06-13T15:49:58Z</time>
      </trkpt>
      <trkpt lat="46.01342" lon="3.65188">
        <ele>693.13</ele>
        <time>2015-06-13T15:50:01Z</time>
      </trkpt>
      <trkpt lat="46.01361" lon="3.65197">
        <ele>692.12</ele>
        <time>2015-06-13T15:50:04Z</time>
      </trkpt>
      <trkpt lat="46.01384" lon="3.65201">
        <ele>690.25</ele>
        <time>2015-06-13T15:50:07Z</time>
      </trkpt>
      <trkpt lat="46.01404" lon="3.65205">
        <ele>689.64</ele>
        <time>2015-06-13T15:50:10Z</time>
      </trkpt>
      <trkpt lat="46.01422" lon="3.65205">
        <ele>688.68</ele>
        <time>2015-06-13T15:50:14Z</time>
      </trkpt>
      <trkpt lat="46.01441" lon="3.65199">
        <ele>686.21</ele>
        <time>2015-06-13T15:50:19Z</time>
      </trkpt>
      <trkpt lat="46.01462" lon="3.65216">
        <ele>684.56</ele>
        <time>2015-06-13T15:50:28Z</time>
      </trkpt>
      <trkpt lat="46.01481" lon="3.65237">
        <ele>682.83</ele>
        <time>2015-06-13T15:50:33Z</time>
      </trkpt>
      <trkpt lat="46.01504" lon="3.6525">
        <ele>678.34</ele>
        <time>2015-06-13T15:50:36Z</time>
      </trkpt>
      <trkpt lat="46.01527" lon="3.65261">
        <ele>674.65</ele>
        <time>2015-06-13T15:50:39Z</time>
      </trkpt>
      <trkpt lat="46.01548" lon="3.65276">
        <ele>670.82</ele>
        <time>2015-06-13T15:50:42Z</time>
      </trkpt>
      <trkpt lat="46.01565" lon="3.65291">
        <ele>669.12</ele>
        <time>2015-06-13T15:50:44Z</time>
      </trkpt>
      <trkpt lat="46.01583" lon="3.65319">
        <ele>668.62</ele>
        <time>2015-06-13T15:50:47Z</time>
      </trkpt>
      <trkpt lat="46.016" lon="3.65343">
        <ele>668.56</ele>
        <time>2015-06-13T15:50:50Z</time>
      </trkpt>
      <trkpt lat="46.01618" lon="3.65362">
        <ele>667.3</ele>
        <time>2015-06-13T15:50:53Z</time>
      </trkpt>
      <trkpt lat="46.01637" lon="3.65377">
        <ele>664.52</ele>
        <time>2015-06-13T15:50:56Z</time>
      </trkpt>
      <trkpt lat="46.0166" lon="3.65381">
        <ele>661.55</ele>
        <time>2015-06-13T15:50:59Z</time>
      </trkpt>
      <trkpt lat="46.01683" lon="3.65375">
        <ele>658.18</ele>
        <time>2015-06-13T15:51:02Z</time>
      </trkpt>
      <trkpt lat="46.01706" lon="3.65358">
        <ele>656.26</ele>
        <time>2015-06-13T15:51:05Z</time>
      </trkpt>
      <trkpt lat="46.01721" lon="3.65343">
        <ele>655.23</ele>
        <time>2015-06-13T15:51:07Z</time>
      </trkpt>
      <trkpt lat="46.01738" lon="3.6533">
        <ele>654.22</ele>
        <time>2015-06-13T15:51:09Z</time>
      </trkpt>
      <trkpt lat="46.01763" lon="3.65315">
        <ele>652.89</ele>
        <time>2015-06-13T15:51:12Z</time>
      </trkpt>
      <trkpt lat="46.0178" lon="3.65306">
        <ele>651.89</ele>
        <time>2015-06-13T15:51:14Z</time>
      </trkpt>
      <trkpt lat="46.01797" lon="3.65298">
        <ele>650.89</ele>
        <time>2015-06-13T15:51:16Z</time>
      </trkpt>
      <trkpt lat="46.01819" lon="3.65278">
        <ele>649.22</ele>
        <time>2015-06-13T15:51:19Z</time>
      </trkpt>
      <trkpt lat="46.01837" lon="3.65255">
        <ele>648.14</ele>
        <time>2015-06-13T15:51:22Z</time>
      </trkpt>
      <trkpt lat="46.01853" lon="3.65231">
        <ele>647.13</ele>
        <time>2015-06-13T15:51:25Z</time>
      </trkpt>
      <trkpt lat="46.01868" lon="3.65205">
        <ele>645.37</ele>
        <time>2015-06-13T15:51:28Z</time>
      </trkpt>
      <trkpt lat="46.01885" lon="3.65182">
        <ele>643.41</ele>
        <time>2015-06-13T15:51:31Z</time>
      </trkpt>
      <trkpt lat="46.01908" lon="3.65162">
        <ele>639.78</ele>
        <time>2015-06-13T15:51:34Z</time>
      </trkpt>
      <trkpt lat="46.01929" lon="3.65141">
        <ele>635.71</ele>
        <time>2015-06-13T15:51:37Z</time>
      </trkpt>
      <trkpt lat="46.01944" lon="3.65126">
        <ele>633.59</ele>
        <time>2015-06-13T15:51:39Z</time>
      </trkpt>
      <trkpt lat="46.01966" lon="3.65117">
        <ele>631.31</ele>
        <time>2015-06-13T15:51:42Z</time>
      </trkpt>
      <trkpt lat="46.01992" lon="3.65115">
        <ele>627.55</ele>
        <time>2015-06-13T15:52:03Z</time>
      </trkpt>
      <trkpt lat="46.0201" lon="3.65117">
        <ele>624.15</ele>
        <time>2015-06-13T15:52:09Z</time>
      </trkpt>
      <trkpt lat="46.02029" lon="3.65107">
        <ele>621.71</ele>
        <time>2015-06-13T15:52:16Z</time>
      </trkpt>
      <trkpt lat="46.02048" lon="3.65094">
        <ele>619.13</ele>
        <time>2015-06-13T15:52:22Z</time>
      </trkpt>
      <trkpt lat="46.02067" lon="3.65081">
        <ele>612.21</ele>
        <time>2015-06-13T15:52:26Z</time>
      </trkpt>
      <trkpt lat="46.02085" lon="3.6507">
        <ele>606.14</ele>
        <time>2015-06-13T15:52:29Z</time>
      </trkpt>
      <trkpt lat="46.02104" lon="3.65064">
        <ele>602.13</ele>
        <time>2015-06-13T15:52:32Z</time>
      </trkpt>
      <trkpt lat="46.02122" lon="3.65053">
        <ele>598.53</ele>
        <time>2015-06-13T15:52:36Z</time>
      </trkpt>
      <trkpt lat="46.0214" lon="3.6504">
        <ele>595.93</ele>
        <time>2015-06-13T15:52:40Z</time>
      </trkpt>
      <trkpt lat="46.02155" lon="3.65025">
        <ele>593.97</ele>
        <time>2015-06-13T15:52:43Z</time>
      </trkpt>
      <trkpt lat="46.02171" lon="3.65006">
        <ele>591.27</ele>
        <time>2015-06-13T15:52:47Z</time>
      </trkpt>
      <trkpt lat="46.02185" lon="3.64982">
        <ele>589.22</ele>
        <time>2015-06-13T15:52:51Z</time>
      </trkpt>
      <trkpt lat="46.022" lon="3.64961">
        <ele>587.34</ele>
        <time>2015-06-13T15:52:55Z</time>
      </trkpt>
      <trkpt lat="46.02217" lon="3.64948">
        <ele>584.91</ele>
        <time>2015-06-13T15:52:59Z</time>
      </trkpt>
      <trkpt lat="46.02233" lon="3.64928">
        <ele>582.71</ele>
        <time>2015-06-13T15:53:21Z</time>
      </trkpt>
      <trkpt lat="46.02249" lon="3.64911">
        <ele>577.34</ele>
        <time>2015-06-13T15:53:26Z</time>
      </trkpt>
      <trkpt lat="46.02268" lon="3.64896">
        <ele>572.23</ele>
        <time>2015-06-13T15:53:30Z</time>
      </trkpt>
      <trkpt lat="46.0229" lon="3.64881">
        <ele>569.91</ele>
        <time>2015-06-13T15:53:34Z</time>
      </trkpt>
      <trkpt lat="46.02307" lon="3.64871">
        <ele>568.7</ele>
        <time>2015-06-13T15:53:38Z</time>
      </trkpt>
      <trkpt lat="46.02322" lon="3.6489">
        <ele>567.81</ele>
        <time>2015-06-13T15:53:44Z</time>
      </trkpt>
      <trkpt lat="46.02328" lon="3.64916">
        <ele>564.03</ele>
        <time>2015-06-13T15:53:49Z</time>
      </trkpt>
      <trkpt lat="46.02327" lon="3.64944">
        <ele>563.56</ele>
        <time>2015-06-13T15:53:55Z</time>
      </trkpt>
      <trkpt lat="46.02321" lon="3.64971">
        <ele>561.33</ele>
        <time>2015-06-13T15:54:00Z</time>
      </trkpt>
      <trkpt lat="46.02312" lon="3.64997">
        <ele>560.1</ele>
        <time>2015-06-13T15:54:04Z</time>
      </trkpt>
      <trkpt lat="46.02312" lon="3.65029">
        <ele>558.84</ele>
        <time>2015-06-13T15:54:08Z</time>
      </trkpt>
      <trkpt lat="46.02319" lon="3.65057">
        <ele>557.84</ele>
        <time>2015-06-13T15:54:11Z</time>
      </trkpt>
      <trkpt lat="46.02323" lon="3.65085">
        <ele>557.09</ele>
        <time>2015-06-13T15:54:14Z</time>
      </trkpt>
      <trkpt lat="46.02326" lon="3.65113">
        <ele>556.62</ele>
        <time>2015-06-13T15:54:17Z</time>
      </trkpt>
    </trkseg>
  </trk>
</gpx>